GFSGL_sfc_dewp_000.txt.gz
Dewpoint
67 70 69 66 67 69 68 68 68 69 68 68 68 70 70 69 69 68 69 68 67 67 68 68 67 66 65 68 67 67 65 66 63 66 67 69 67 68 67 68 66 62 61
68 68 68 67 67 68 68 68 68 68 69 67 68 67 68 68 68 68 67 67 66 66 67 66 65 66 66 67 67 66 67 67 65 64 66 67 67 68 66 64 62 57 57
68 66 67 67 68 69 68 69 69 68 68 67 68 67 67 66 66 65 64 64 63 64 63 63 63 65 65 65 66 66 67 67 67 65 64 67 65 65 66 64 61 61 58
65 66 66 67 67 69 69 70 69 69 67 67 67 67 67 66 66 64 63 63 63 62 61 60 60 61 61 62 64 64 65 65 65 64 64 63 62 64 65 63 60 59 55
65 66 67 67 68 67 69 69 69 68 68 67 66 66 66 65 65 64 64 63 62 60 59 59 59 59 59 60 61 59 60 64 64 63 62 62 63 63 62 62 62 61 58
64 66 67 67 67 66 68 67 68 67 68 67 66 65 64 62 62 63 64 63 61 59 57 56 55 53 54 55 57 57 56 59 62 62 63 62 62 60 60 58 58 55 54
66 65 65 66 66 66 66 66 67 67 67 66 63 62 61 58 56 60 62 64 61 61 60 59 58 54 55 51 56 54 52 55 58 61 60 58 57 57 58 57 55 55 54
67 65 66 65 64 66 67 66 67 65 64 62 60 59 57 50 51 55 60 62 59 55 56 55 53 52 53 55 51 48 46 46 49 48 48 48 48 51 54 54 54 54 55
66 67 65 65 66 65 65 65 64 62 58 57 56 56 54 49 49 50 56 54 51 49 49 50 51 51 53 53 51 49 47 47 49 50 49 49 49 50 51 50 48 47 47
63 64 63 63 60 59 60 58 58 57 55 53 52 52 51 49 47 47 53 50 48 46 46 45 48 47 48 50 54 52 49 49 51 51 50 50 51 47 50 49 47 45 45
56 57 56 56 55 55 54 54 54 51 50 50 49 49 49 49 47 46 47 50 46 45 45 45 44 45 44 44 46 49 49 51 51 49 48 47 48 48 47 48 49 46 44
54 54 53 53 53 52 51 50 49 48 47 47 46 46 47 47 47 47 47 47 48 45 45 45 45 44 43 44 44 44 46 47 49 49 49 49 46 42 43 47 47 47 48
51 51 51 51 51 51 49 49 48 48 47 46 46 45 46 47 47 46 46 47 48 47 48 47 46 44 45 46 45 46 47 46 44 42 43 43 43 44 43 47 48 49 49
50 51 51 51 52 52 51 51 49 48 47 46 45 45 46 47 47 48 48 48 48 48 47 47 47 47 46 44 45 46 45 44 43 42 42 42 43 40 40 38 37 38 36
49 46 44 43 41 41 42 43 43 43 44 45 44 42 40 38 38 39 44 47 45 43 42 46 46 45 45 45 44 44 41 42 41 41 39 39 38 36 37 35 38 38 37
46 42 38 37 37 37 36 35 40 40 38 37 37 35 35 38 38 37 37 37 38 39 45 44 44 42 40 40 40 41 42 40 40 41 39 38 36 35 34 33 37 36 36
46 46 41 39 38 37 35 33 31 34 38 37 36 35 36 37 36 36 36 37 37 39 40 40 40 41 41 41 40 39 38 41 44 43 39 39 37 35 33 33 35 35 35
46 44 40 39 38 38 38 36 35 35 33 32 36 34 35 36 35 35 35 35 38 37 35 35 38 40 42 41 39 37 37 39 36 37 39 37 36 34 33 33 33 35 34
44 41 43 42 40 41 41 39 36 39 38 36 32 34 34 35 36 36 37 35 34 32 33 35 39 40 38 38 39 41 41 39 37 38 37 36 34 32 33 32 31 32 33
45 49 44 40 38 38 38 37 37 40 41 39 36 35 33 32 33 36 38 37 33 30 31 33 36 37 39 40 41 40 38 38 38 35 35 35 35 33 31 30 30 32 33
39 41 46 40 40 38 37 38 39 38 37 36 34 29 35 31 29 30 29 31 30 29 31 33 28 33 37 39 38 38 35 34 35 34 33 33 34 30 33 32 30 31 31
42 40 42 40 42 41 41 42 41 39 37 33 31 25 31 27 26 29 31 31 31 35 32 37 29 29 30 32 37 36 33 34 34 33 32 30 30 30 31 28 29 30 30
46 43 44 44 44 44 42 41 41 40 35 32 30 26 25 29 26 28 28 30 32 34 35 35 33 31 32 37 37 37 32 33 32 33 31 28 28 31 30 29 28 27 27
43 38 35 43 43 40 40 42 40 36 33 31 29 26 25 27 26 33 30 32 31 32 36 35 33 28 32 33 33 34 33 34 35 30 31 28 29 31 30 30 27 28 26
37 40 36 41 40 39 40 39 38 31 31 28 26 26 25 28 28 29 31 32 33 35 32 33 33 31 30 31 34 31 29 28 29 28 28 28 29 33 31 29 28 27 27
35 37 36 37 39 38 38 36 35 34 31 29 27 27 27 27 28 29 31 33 33 32 34 35 34 30 30 32 31 29 28 28 28 27 26 28 29 31 31 30 28 26 28

GFSGL_sfc_dewp_003.txt.gz
Dewpoint
66 67 65 65 65 65 65 66 66 66 67 67 67 67 66 66 66 67 67 67 66 66 66 66 66 66 66 67 66 66 64 64 61 64 65 67 67 67 68 67 66 63 63
66 67 65 64 66 65 65 66 66 66 66 66 67 66 66 66 66 66 66 66 66 66 66 65 65 65 64 65 66 65 65 64 63 62 64 65 65 66 65 62 64 63 60
67 64 66 65 65 64 65 66 66 65 65 66 66 66 66 65 64 63 63 63 61 61 61 62 63 64 63 64 64 64 65 65 64 64 63 64 63 64 61 59 58 59 62
66 65 64 64 64 67 66 66 66 66 65 65 66 65 64 64 63 63 63 62 61 60 60 59 59 60 61 62 61 60 62 63 63 63 62 62 62 63 62 59 55 54 54
65 65 64 64 65 66 66 66 66 66 64 65 64 63 63 64 64 63 62 61 59 58 58 57 58 59 58 59 58 57 59 61 63 62 61 62 62 62 61 60 57 57 53
64 66 64 64 64 66 66 65 65 65 64 64 62 59 58 58 62 62 62 60 59 57 55 54 55 55 58 57 56 56 58 58 61 61 61 58 57 58 59 58 55 53 50
62 65 65 64 64 65 65 64 63 61 61 59 58 54 50 50 56 60 61 60 59 57 57 58 58 57 55 53 50 49 50 54 55 57 54 55 53 54 56 55 53 52 50
65 65 65 65 64 65 64 63 61 59 57 55 53 50 47 48 52 59 56 51 49 50 50 49 49 50 52 47 41 41 42 43 43 46 49 47 47 48 49 51 51 53 52
65 64 65 65 64 63 61 59 56 53 51 50 50 49 46 46 50 52 49 46 45 45 48 49 48 51 53 50 44 45 46 47 50 51 50 50 50 51 49 44 44 41 42
60 62 61 61 60 59 58 56 53 51 50 48 48 48 48 45 47 49 47 43 43 43 43 43 48 47 48 50 49 47 47 48 49 48 47 48 46 48 49 46 46 44 42
55 55 55 55 54 53 52 50 49 49 48 48 48 48 47 47 46 46 47 44 44 44 43 43 44 46 44 44 44 45 46 48 48 48 47 45 45 44 48 50 49 46 44
52 52 52 52 52 51 49 48 47 47 47 47 47 47 48 48 48 47 47 47 47 45 45 46 47 45 45 45 46 46 46 47 48 50 50 44 37 38 41 43 43 43 45
50 50 50 50 50 50 49 48 47 47 47 46 46 46 46 47 48 47 47 48 48 48 48 48 47 44 44 45 45 45 45 43 40 39 39 39 39 39 36 34 37 44 44
50 51 51 50 50 49 48 48 46 46 46 45 45 45 45 45 46 48 48 48 49 49 48 48 47 46 46 43 43 40 40 40 40 38 36 34 36 31 32 30 29 30 31
44 41 40 39 39 39 40 41 41 40 43 43 43 41 37 36 36 39 44 46 44 42 39 42 41 42 42 41 41 38 37 38 36 38 36 34 31 31 27 27 29 32 29
37 36 35 34 34 33 30 31 40 38 37 36 36 34 34 37 37 37 36 36 38 38 40 37 36 35 34 34 35 38 37 37 36 39 36 33 31 31 27 27 31 31 31
35 35 36 35 32 30 29 27 26 32 37 36 35 35 35 34 35 35 35 36 36 37 34 34 34 34 35 36 34 34 33 35 38 36 34 33 31 29 28 28 29 31 29
41 43 37 35 33 31 30 28 30 32 31 31 34 32 34 33 33 34 35 35 34 33 31 34 34 35 36 35 34 32 32 32 30 32 34 31 29 27 28 28 28 29 28
41 41 40 40 39 36 34 33 36 36 34 31 29 32 32 34 34 34 35 32 31 29 32 32 32 33 33 32 32 34 32 33 29 33 30 28 29 27 27 28 27 33 32
45 47 44 39 40 41 40 39 39 37 35 33 34 31 30 30 31 32 33 30 29 29 30 31 32 31 32 31 32 30 32 33 31 29 28 29 28 27 28 27 26 27 29
40 42 45 41 39 39 41 40 38 38 37 36 30 30 34 33 32 30 29 29 28 31 30 29 29 30 34 34 31 33 31 31 30 30 29 29 28 27 29 26 25 26 28
42 42 42 43 43 42 42 42 40 39 32 28 24 20 30 26 28 30 29 30 31 32 30 30 29 27 30 30 31 30 30 32 30 29 29 27 26 27 28 26 28 29 27
45 44 44 44 42 43 42 41 41 39 33 30 23 20 23 27 28 30 31 31 31 32 31 31 30 31 33 33 34 34 32 30 30 29 26 24 25 28 29 28 28 27 25
42 43 44 44 43 41 43 42 40 35 34 32 27 27 29 29 32 30 31 31 30 31 32 31 29 28 29 30 32 31 31 33 28 27 26 25 27 29 30 30 28 25 25
37 41 43 43 42 42 41 42 41 35 32 29 29 27 29 29 32 32 33 32 32 34 32 32 30 29 33 31 30 27 28 28 25 27 24 24 25 28 30 27 26 26 26
38 40 38 41 41 41 41 40 39 34 32 30 30 30 30 30 30 33 33 32 31 35 34 34 30 32 34 34 32 28 28 28 25 26 22 25 26 28 29 26 24 25 25

GFSGL_sfc_dewp_006.txt.gz
Dewpoint
66 65 64 64 64 64 64 64 64 65 65 66 66 65 65 65 65 65 65 66 66 66 66 66 64 64 65 66 66 66 65 65 62 64 65 66 66 67 67 66 66 65 64
66 65 63 64 64 64 64 64 64 64 66 66 66 66 64 65 65 66 66 66 66 65 65 66 64 67 65 65 65 64 65 65 63 62 64 64 65 65 66 63 64 63 63
66 66 64 63 64 64 64 64 64 64 65 65 65 64 64 63 63 62 62 61 61 62 62 62 64 63 63 62 62 62 64 64 64 63 62 63 63 63 61 59 57 60 61
66 64 65 64 64 64 65 64 64 64 64 64 64 63 63 63 63 62 62 61 60 60 60 60 60 60 61 60 60 60 62 62 62 62 61 61 62 61 61 58 53 55 58
65 64 63 64 65 66 65 64 64 64 64 63 62 62 62 62 62 61 61 60 59 58 57 59 59 60 60 60 59 59 60 61 61 61 61 61 61 61 59 59 54 55 53
65 64 64 64 66 65 64 64 63 62 60 58 56 56 58 59 60 60 60 58 57 55 55 55 56 57 57 57 58 58 59 60 61 61 60 58 56 58 58 59 56 52 49
64 66 64 65 65 64 63 61 60 58 56 53 51 51 51 54 58 58 59 58 57 57 57 57 57 57 55 51 51 50 52 55 58 60 55 53 52 53 55 54 53 54 52
64 64 64 65 64 63 61 59 56 54 53 50 48 48 49 51 55 53 53 50 49 49 50 50 53 54 52 42 43 44 44 44 43 47 51 50 48 49 52 51 51 51 48
62 64 65 64 62 60 57 55 52 50 48 48 47 47 48 50 51 49 47 46 45 44 47 50 51 49 50 49 46 46 46 47 50 51 51 51 50 50 48 43 42 42 42
57 60 64 63 61 57 55 53 50 48 47 47 47 47 48 47 48 47 44 44 43 43 43 45 49 47 48 48 48 48 47 48 47 47 47 46 46 48 49 46 45 44 44
55 55 55 55 54 53 51 50 49 48 47 47 48 48 47 47 46 46 46 44 43 43 44 45 46 47 46 45 46 46 46 48 49 48 46 44 42 44 46 49 49 48 47
51 51 51 52 52 51 49 49 48 48 48 48 47 47 48 48 48 47 46 46 48 46 47 47 47 44 44 45 45 44 45 46 47 46 45 38 36 37 38 43 43 43 45
51 50 50 50 50 50 49 48 48 48 47 47 47 46 46 48 48 47 47 48 48 48 49 48 46 44 44 45 45 44 43 40 37 35 34 36 39 35 28 28 29 32 42
49 49 49 48 48 48 48 49 47 46 45 46 46 45 45 46 47 48 48 48 49 49 48 47 46 44 44 43 39 39 39 39 36 35 33 34 33 29 25 28 28 31 30
43 44 43 43 42 41 40 40 41 40 44 44 43 41 39 40 40 40 44 44 43 41 41 41 40 40 39 40 38 36 36 35 37 35 31 29 29 28 24 26 26 29 28
36 36 36 33 30 30 29 30 39 38 38 37 36 35 35 37 37 36 35 36 37 39 36 34 33 33 34 34 36 34 34 37 36 34 33 30 28 27 26 27 30 30 29
34 33 32 29 28 28 27 25 25 31 37 36 36 35 34 35 35 34 34 35 36 36 33 34 35 35 34 33 32 31 32 30 30 32 33 30 27 26 27 28 30 29 28
36 41 33 30 28 28 27 26 27 26 26 28 32 32 33 33 33 34 34 35 33 34 34 33 34 34 33 32 32 30 30 30 30 32 28 28 27 26 25 27 26 28 28
38 36 35 34 31 31 30 32 33 30 28 26 26 30 30 32 32 33 34 32 29 30 31 31 32 32 30 30 32 31 31 33 30 29 27 27 27 26 26 26 26 32 31
38 41 39 37 35 34 33 34 36 32 29 28 28 26 28 29 29 32 31 29 29 29 31 30 30 30 30 31 29 30 31 32 28 27 27 27 27 26 27 26 24 24 26
43 43 44 40 40 37 37 37 37 34 32 32 32 33 33 29 31 31 28 28 29 29 28 29 30 30 31 31 30 30 31 30 28 28 27 25 25 25 28 25 26 28 28
41 40 41 40 41 40 39 39 38 37 36 34 29 26 34 26 29 28 28 28 30 29 29 29 27 30 31 29 30 30 31 29 28 28 26 24 24 26 28 27 28 28 26
43 43 43 43 41 43 41 41 39 36 33 27 22 20 23 28 29 29 30 30 31 30 30 31 31 31 31 33 34 34 30 28 28 27 24 22 24 27 29 28 28 25 24
43 44 44 42 41 41 41 40 40 36 31 27 22 24 25 28 30 31 30 31 31 31 32 30 28 27 31 32 32 32 33 30 28 25 25 24 25 27 28 28 25 24 24
37 41 44 43 41 41 42 41 40 33 34 31 26 27 29 31 31 31 32 31 31 33 31 29 28 29 30 30 29 28 29 28 24 26 22 22 24 26 28 26 25 24 24
39 40 43 43 42 41 42 42 41 37 31 30 29 28 29 31 31 32 33 32 32 32 31 30 29 31 31 31 30 29 29 27 24 24 21 24 25 27 28 28 28 24 25

GFSGL_sfc_dewp_009.txt.gz
Dewpoint
65 64 63 63 62 63 63 63 63 64 65 65 64 64 64 64 64 64 64 65 66 65 64 65 64 65 65 65 66 65 64 64 62 63 65 66 66 66 65 65 64 64 64
65 63 63 63 62 63 63 63 63 64 65 65 65 64 64 64 64 65 66 66 66 65 65 64 64 66 65 65 65 64 64 65 63 61 64 64 65 65 64 63 63 63 62
65 64 62 63 63 63 63 63 63 64 64 63 63 63 63 62 61 61 62 62 62 63 64 65 64 65 64 63 63 63 63 64 64 63 62 63 64 63 59 57 58 60 59
65 65 63 62 63 63 63 63 63 63 62 62 62 62 62 62 62 61 61 60 60 60 60 60 61 61 60 60 61 61 62 63 63 62 61 61 61 61 59 56 54 57 57
65 63 64 64 64 64 63 63 62 62 60 59 60 60 61 61 61 61 61 60 59 58 59 60 61 61 61 61 61 60 61 60 61 61 60 61 61 60 59 58 55 54 54
65 63 64 64 65 64 63 62 61 57 56 56 56 58 59 60 58 59 58 56 56 56 55 56 57 57 58 58 59 58 59 60 59 59 60 59 57 57 57 59 55 54 52
64 65 64 65 64 63 62 60 57 54 52 51 53 55 56 58 57 57 58 57 56 57 56 57 57 56 53 51 50 48 49 52 55 59 56 53 53 54 56 55 55 55 53
63 64 64 64 63 61 59 56 54 52 50 48 49 50 54 55 53 52 53 49 48 49 50 53 54 49 46 45 45 45 46 47 47 47 50 50 50 50 52 53 54 52 51
59 63 64 64 62 59 55 52 50 48 47 47 48 49 51 50 49 49 47 45 45 45 47 50 46 46 51 50 47 47 47 47 49 50 50 50 50 50 48 42 42 43 43
55 56 64 62 59 55 53 50 48 47 47 47 47 48 50 47 47 46 45 44 44 45 45 46 49 47 48 48 46 46 46 47 46 45 44 44 45 46 48 45 45 44 45
53 54 54 57 55 53 52 50 49 47 47 48 47 48 47 46 46 46 46 44 44 45 45 45 46 47 45 45 45 46 46 49 49 45 41 38 38 42 45 48 48 47 46
51 51 51 53 52 51 49 50 49 49 48 48 48 48 48 48 47 47 47 47 48 46 47 47 46 44 43 43 42 44 45 45 43 43 41 37 35 33 33 40 36 42 44
50 50 50 50 50 50 49 49 49 49 48 48 47 47 47 48 48 47 47 48 48 48 48 47 46 43 42 42 44 43 40 36 34 32 32 33 33 31 27 27 29 30 33
47 47 48 48 48 48 48 48 48 47 47 46 46 46 46 47 48 48 48 49 48 47 46 44 45 44 43 40 37 36 37 38 35 32 30 30 29 26 24 26 27 29 28
45 45 45 45 45 43 43 43 44 43 45 45 44 44 44 43 42 41 44 43 40 40 41 39 36 36 38 36 34 35 36 36 34 32 28 27 27 26 24 27 30 28 29
38 36 34 33 32 32 31 32 39 40 38 37 37 37 36 38 37 36 35 36 38 39 34 32 32 34 35 34 31 30 31 33 33 32 30 27 25 26 26 28 29 29 27
33 31 30 28 27 27 27 27 28 31 37 36 35 35 35 35 35 34 34 36 36 35 33 34 33 33 32 31 30 31 31 29 31 30 27 26 25 25 26 27 29 28 27
33 35 27 27 26 25 25 25 26 26 27 28 32 32 33 33 34 34 36 35 34 34 33 34 33 32 31 31 31 30 30 29 29 27 26 26 25 25 25 25 25 27 27
34 32 30 28 28 28 28 28 26 26 27 27 27 29 30 33 34 34 34 33 31 31 31 33 32 31 30 30 30 30 30 30 30 26 26 26 25 25 26 26 25 29 29
36 36 33 30 31 30 32 32 30 26 27 27 27 27 28 29 30 31 28 29 30 30 30 30 30 30 29 30 29 30 32 29 26 26 25 25 24 26 26 25 24 25 25
37 38 39 35 33 32 33 34 33 30 28 29 28 29 33 28 30 31 27 28 28 29 29 30 29 29 29 30 30 30 30 28 27 27 25 24 24 25 27 26 27 27 27
41 41 41 38 38 37 36 36 38 34 32 32 32 32 35 30 30 30 28 28 29 29 29 28 28 29 30 30 30 30 30 28 28 27 25 23 23 27 28 27 27 26 25
42 42 41 41 41 41 40 39 39 37 35 35 32 27 29 27 29 29 28 29 30 30 30 30 30 29 30 32 32 32 31 29 28 28 25 23 22 26 28 27 26 23 23
45 44 42 42 41 41 40 40 39 37 36 33 26 23 25 28 28 29 30 31 31 31 31 31 29 28 29 32 32 31 30 29 28 26 25 23 24 26 27 27 24 24 23
38 39 44 43 41 41 41 41 40 37 35 31 24 24 25 29 29 30 32 31 32 32 32 30 28 28 31 30 30 30 31 29 26 26 21 21 22 26 27 27 25 24 23
38 39 43 43 42 41 41 41 40 39 35 32 29 25 26 28 30 31 32 32 31 32 32 29 28 28 29 30 30 30 30 28 26 26 20 21 25 26 27 28 28 27 25

GFSGL_sfc_dewp_012.txt.gz
Dewpoint
65 65 64 64 64 64 65 64 65 66 66 66 65 65 66 66 67 67 66 66 66 66 66 66 66 67 67 67 67 66 66 65 62 64 66 66 67 66 65 65 64 65 65
66 64 64 65 64 64 64 64 65 65 65 64 65 64 64 65 66 66 66 66 66 65 66 66 66 67 66 66 66 65 65 65 64 62 64 64 64 64 62 60 62 62 62
66 64 64 64 64 64 64 64 64 64 63 63 64 63 63 63 63 63 63 63 63 63 65 64 65 65 64 64 64 63 64 65 64 63 62 64 63 61 59 58 59 58 58
66 65 63 64 64 65 64 64 64 63 62 62 62 63 62 62 62 61 61 61 60 60 61 61 62 62 62 62 62 63 63 63 63 62 62 62 61 60 59 57 56 57 56
66 65 65 64 65 64 64 64 62 61 60 60 61 61 61 61 61 61 60 60 59 58 59 60 61 62 62 61 61 61 61 62 61 61 60 61 61 60 59 58 56 56 55
66 64 65 64 65 63 63 62 59 58 58 60 60 60 60 59 57 58 58 58 58 57 57 57 57 56 56 56 56 57 58 59 60 60 60 59 57 57 57 59 56 55 53
65 66 65 65 64 63 61 59 57 55 55 56 57 59 59 57 56 56 57 56 55 56 57 57 55 52 51 51 50 50 51 53 56 57 51 52 52 53 56 56 55 54 52
62 64 65 65 63 62 59 56 54 52 52 52 54 56 54 52 52 51 51 51 51 52 53 50 49 50 50 48 47 46 47 48 49 50 52 52 51 51 51 54 53 50 51
58 60 65 64 61 59 56 53 51 50 50 50 52 53 51 50 49 48 49 49 48 48 50 50 50 51 51 50 49 49 48 47 48 50 49 49 50 50 50 48 47 47 46
55 56 62 63 60 56 54 51 50 50 49 49 50 49 49 48 47 47 48 47 47 47 48 49 49 48 47 48 49 49 48 47 46 44 43 45 47 47 48 47 46 46 46
53 54 54 56 55 54 51 51 50 49 49 49 49 48 48 48 47 46 46 47 46 46 46 46 46 46 44 44 46 49 49 50 46 42 40 38 37 38 42 43 48 47 48
51 51 51 52 52 51 50 51 50 50 50 49 48 48 49 49 48 47 47 48 49 47 46 45 45 43 42 42 41 42 43 44 42 39 35 33 31 30 32 35 39 46 46
50 50 50 50 50 51 50 50 49 50 49 48 48 47 48 49 49 47 47 47 48 47 48 46 44 41 40 40 43 42 40 36 35 33 32 32 31 30 35 35 38 40 45
48 48 49 49 48 49 49 49 49 48 48 48 47 47 48 48 48 48 49 49 47 47 45 43 43 42 41 39 39 39 39 36 33 32 31 31 31 30 31 32 32 33 35
46 46 46 46 45 44 43 45 46 46 47 47 47 47 45 44 44 44 44 41 42 42 40 39 39 37 35 36 36 37 36 35 33 32 31 29 29 30 30 32 33 32 31
41 40 41 41 40 39 38 38 40 40 39 38 39 42 40 40 37 37 37 38 38 37 36 36 36 37 34 33 33 33 33 34 34 32 30 29 28 30 30 32 32 31 31
37 35 33 31 29 30 30 31 32 33 37 37 36 36 36 35 35 35 36 36 36 36 35 35 35 34 33 33 33 33 32 33 34 30 30 29 29 29 28 28 31 31 31
35 33 29 28 27 27 29 29 30 31 32 32 33 33 34 34 34 35 36 37 36 36 36 34 34 34 34 33 33 32 33 31 30 29 30 29 29 28 28 28 28 31 31
31 29 29 28 28 29 28 27 27 30 31 31 30 32 32 34 35 35 35 37 35 34 35 35 35 34 33 33 33 34 35 32 30 29 29 28 28 29 29 28 27 29 30
34 34 32 31 30 30 29 27 27 30 31 31 31 30 30 32 32 33 34 34 34 33 33 33 33 33 33 34 34 34 34 32 30 29 29 29 28 30 28 28 28 28 29
34 37 35 32 31 31 32 31 29 28 30 30 31 31 33 32 32 31 30 31 32 32 32 32 31 31 32 34 34 34 33 32 30 30 29 27 28 28 31 30 29 29 28
38 37 38 34 34 34 34 35 35 31 30 30 31 32 35 33 32 33 31 30 31 32 31 33 31 30 31 32 34 33 32 31 31 31 29 27 27 29 31 30 29 27 27
41 41 40 41 40 39 37 36 37 37 34 33 33 32 32 34 32 32 31 30 32 32 32 32 31 30 31 34 33 34 31 32 32 31 29 28 27 26 31 30 28 26 26
43 44 43 42 42 41 41 41 40 38 38 37 35 34 33 33 31 32 32 32 32 33 33 33 33 31 33 34 34 34 34 34 32 30 30 28 24 27 29 29 27 26 25
46 45 42 44 43 42 42 41 41 39 39 38 36 33 29 30 31 30 32 32 33 33 33 33 33 33 33 33 33 33 33 30 32 30 27 24 23 28 29 29 28 27 26
39 41 42 44 44 42 42 42 41 41 39 38 36 33 30 28 29 30 33 34 33 33 33 33 33 32 32 33 33 32 31 30 30 28 24 22 22 27 29 30 30 30 28

GFSGL_sfc_dewp_015.txt.gz
Dewpoint
68 68 66 67 67 68 67 68 68 68 68 68 67 66 68 68 69 69 68 67 67 67 68 67 68 69 68 68 68 68 68 68 65 66 67 67 67 67 66 66 65 66 64
68 68 66 68 67 67 67 67 68 67 68 67 66 65 65 66 68 68 67 67 66 66 66 66 67 68 69 70 69 68 66 66 64 63 65 66 64 62 61 61 61 62 62
68 68 66 67 68 67 67 67 67 67 66 66 66 66 65 65 65 64 64 63 63 64 66 66 66 67 66 66 66 66 66 66 66 64 63 65 63 61 59 58 59 59 60
67 67 66 66 68 68 67 67 66 66 65 65 65 65 65 65 65 64 64 63 62 61 62 62 62 62 62 63 63 63 64 64 64 63 62 62 61 61 60 58 56 57 57
67 66 67 66 67 67 66 66 65 65 65 65 65 64 64 62 61 63 63 62 60 59 58 59 60 61 61 61 61 60 62 63 62 62 62 62 61 61 59 58 56 55 55
66 66 68 68 67 66 64 65 64 64 64 64 63 62 62 59 57 59 62 61 60 60 59 57 56 56 56 56 56 57 58 60 61 61 59 58 55 56 57 59 56 55 53
67 67 68 68 67 66 64 64 63 62 62 61 62 61 60 59 54 55 58 59 58 58 58 56 52 51 52 51 51 52 53 55 56 57 53 53 52 52 56 57 56 53 52
64 66 68 68 67 64 64 63 62 62 60 59 59 58 58 54 51 52 55 59 54 52 52 53 54 53 51 51 50 49 49 50 51 49 53 53 52 54 56 56 52 52 52
61 62 65 67 65 64 63 61 59 59 60 58 57 56 57 54 49 50 54 55 52 52 52 53 52 52 51 51 51 50 49 45 46 49 49 49 50 50 51 50 48 49 46
57 58 59 65 64 62 61 59 58 58 58 56 53 52 51 52 47 48 51 49 51 49 51 50 48 50 48 49 53 51 49 47 45 45 44 46 46 44 48 49 42 45 46
55 55 56 57 58 57 57 57 56 55 55 53 51 50 50 50 49 47 48 50 48 47 46 45 44 45 44 45 48 50 49 45 44 41 37 34 34 35 34 42 48 41 42
54 54 53 53 53 52 53 53 53 54 54 52 50 49 50 50 48 47 47 48 49 45 43 42 41 42 42 42 42 43 43 43 38 36 33 32 31 32 34 38 46 46 46
52 52 52 52 52 52 51 51 51 52 51 50 48 49 49 50 50 47 46 47 47 46 46 43 42 40 41 41 43 42 41 37 34 32 32 31 31 35 38 39 42 48 50
50 50 51 50 50 51 51 51 51 50 49 48 48 49 50 50 50 50 50 47 47 43 43 40 41 42 42 41 39 39 36 35 33 32 32 32 31 31 31 33 31 34 36
49 49 48 48 48 46 44 46 48 48 49 49 49 50 46 46 46 44 43 43 44 42 41 39 37 36 36 36 36 36 35 35 34 34 32 30 29 30 31 32 32 31 30
49 48 47 45 43 43 42 40 40 41 41 40 41 44 42 41 39 38 38 38 38 38 39 38 37 36 35 35 34 34 35 35 34 32 31 28 27 28 31 31 31 30 30
48 46 42 42 41 38 41 40 38 37 38 37 37 37 38 37 36 37 36 36 36 37 35 36 36 36 35 35 34 32 32 33 37 31 29 29 28 28 30 28 30 31 31
41 39 31 28 28 28 31 33 36 39 40 39 35 35 34 35 36 36 36 36 34 36 34 34 35 35 34 33 33 32 31 31 31 31 30 28 27 27 28 28 29 29 30
31 30 30 29 28 30 28 28 29 33 35 36 36 33 35 35 36 36 36 35 31 31 32 33 34 32 33 34 34 36 37 33 32 32 31 31 31 29 30 28 28 29 29
34 36 36 31 30 29 28 29 31 33 34 35 35 33 32 33 33 35 36 36 33 31 32 32 33 33 33 35 35 35 34 34 33 31 32 33 33 31 29 28 28 27 29
34 34 37 34 33 33 32 31 31 32 32 32 33 33 34 32 31 31 33 34 32 31 32 32 31 31 32 35 34 34 32 31 32 32 31 32 33 29 31 30 29 29 29
35 35 35 35 36 36 36 36 34 32 32 31 32 32 34 30 30 30 31 30 30 32 32 34 30 30 29 30 32 32 30 30 32 32 32 31 31 29 27 27 27 27 27
39 39 39 39 39 40 37 37 37 37 35 34 32 30 30 30 31 32 32 32 32 32 33 34 32 28 29 32 33 33 29 30 31 32 32 31 30 26 24 27 26 25 25
41 42 41 42 44 43 42 41 40 38 39 38 37 36 34 32 32 34 33 32 33 33 34 33 32 29 31 34 34 33 31 31 33 32 34 30 27 23 22 26 26 25 25
44 44 44 44 41 40 42 42 42 41 41 40 39 38 37 36 33 32 34 32 33 33 34 34 33 34 34 35 33 31 30 30 34 31 32 30 25 24 22 25 26 26 26
40 42 40 39 40 42 43 43 43 42 41 40 40 40 39 37 34 31 33 34 33 32 33 34 34 36 35 34 34 32 31 30 32 30 30 25 26 25 20 27 29 27 26

GFSGL_sfc_dewp_018.txt.gz
Dewpoint
68 67 67 67 67 68 67 67 68 69 69 69 68 68 68 69 70 71 70 69 68 68 68 68 68 69 66 66 72 71 72 71 68 71 68 70 68 66 65 65 64 64 64
67 68 67 68 68 67 67 67 67 68 68 67 68 67 67 67 69 69 67 67 67 66 66 67 67 67 70 71 72 71 70 69 67 64 66 66 62 61 60 60 61 62 62
67 67 67 67 68 68 67 67 68 67 66 66 66 66 66 67 66 65 65 65 63 64 65 65 66 67 67 67 66 66 67 67 67 65 65 65 61 60 58 59 59 59 59
66 66 66 67 68 67 67 67 67 66 66 66 66 65 65 65 66 65 65 64 63 62 63 63 62 63 63 64 63 63 65 64 64 63 62 62 61 61 60 58 56 58 57
67 66 67 68 68 68 67 66 66 66 65 65 65 64 64 63 62 65 64 64 63 62 60 59 60 60 60 61 62 61 64 63 63 62 62 61 60 59 59 59 56 55 55
67 66 67 68 67 68 67 65 65 65 65 64 64 63 62 59 57 59 63 62 62 62 60 59 58 57 55 56 57 57 59 63 62 61 58 56 56 58 59 58 55 55 52
68 67 67 68 68 67 67 65 65 64 64 63 62 62 62 60 55 56 60 61 60 60 60 57 55 52 54 55 55 55 55 56 58 59 55 55 53 56 58 58 56 55 53
67 67 67 69 68 67 67 65 64 63 63 62 62 62 61 55 52 54 58 59 58 58 58 57 57 56 55 54 53 51 50 52 53 50 55 55 55 57 58 56 55 55 53
63 63 65 65 68 66 66 65 64 63 61 61 62 62 61 57 50 51 56 56 56 56 55 55 53 53 51 53 53 51 49 45 47 49 49 48 49 50 51 51 50 50 47
59 61 62 63 67 66 66 64 64 63 62 59 59 60 55 57 48 49 53 53 55 51 53 52 49 51 49 49 55 54 51 49 48 48 48 47 47 46 48 51 44 45 49
58 58 58 58 61 62 62 63 61 61 60 58 56 52 53 54 52 47 49 55 52 50 47 45 45 45 45 46 49 51 48 47 46 45 42 38 37 39 38 44 48 42 41
57 56 56 55 55 55 56 58 58 58 57 57 55 52 52 52 48 47 47 48 49 47 44 42 42 42 42 42 43 43 43 46 41 37 34 33 33 34 37 41 48 48 45
55 54 54 53 53 53 53 54 53 53 53 51 50 49 50 51 49 46 46 47 47 47 43 42 42 41 40 40 42 41 43 38 35 34 33 33 33 36 41 42 46 50 48
53 53 52 52 52 52 53 53 52 52 50 50 49 49 51 51 52 49 46 44 45 41 43 41 43 42 42 40 40 39 36 36 35 34 33 33 34 33 33 34 34 37 39
52 52 51 50 49 47 45 47 49 49 50 52 51 52 50 49 47 44 44 45 44 43 42 40 39 38 37 37 37 37 37 37 35 35 33 32 31 32 32 34 34 35 32
52 50 49 47 46 45 44 43 41 42 42 41 42 46 43 42 39 38 39 38 39 40 40 39 39 38 37 37 36 35 35 36 35 34 32 30 30 31 33 34 35 33 33
52 51 47 48 47 46 45 44 42 40 39 37 37 37 38 37 37 37 36 36 37 38 37 39 38 38 37 36 35 35 33 34 41 34 33 32 32 29 30 31 33 33 33
47 41 36 34 33 33 37 39 41 43 42 42 36 38 35 37 37 36 36 37 34 35 35 35 37 37 36 35 35 35 33 33 34 34 34 32 31 29 30 31 31 31 33
35 32 32 32 31 34 33 32 32 35 36 37 38 35 35 36 37 37 37 37 34 32 33 34 36 35 36 35 36 37 37 33 32 32 34 34 33 30 32 29 28 29 28
38 40 39 35 34 34 34 34 34 35 35 35 34 33 34 35 35 35 35 35 33 31 32 33 33 34 35 37 36 36 35 34 33 32 33 34 34 31 29 28 27 27 29
36 37 41 37 37 36 36 36 37 36 33 31 33 33 35 33 31 32 32 33 33 32 32 32 30 31 33 35 34 34 31 30 32 31 31 31 33 29 31 28 27 27 28
38 37 38 38 39 40 41 41 40 38 37 34 31 32 33 29 29 29 31 31 31 32 31 33 31 30 29 30 33 33 31 30 30 31 31 31 30 29 28 26 26 26 26
39 40 40 42 43 43 41 40 40 40 38 37 34 31 30 28 29 30 30 31 31 31 32 33 32 29 28 31 32 33 30 30 30 31 32 31 30 29 26 24 25 25 25
42 43 42 42 42 41 41 42 42 40 40 39 37 36 34 32 30 32 32 32 32 32 33 33 33 31 30 32 32 32 31 31 30 29 34 31 29 28 24 22 25 25 24
46 45 44 43 41 40 39 38 38 40 41 41 39 38 37 37 36 34 34 34 33 33 34 33 33 34 34 35 34 32 34 29 30 31 30 32 30 31 23 21 25 25 26
42 44 40 40 40 42 42 41 40 41 42 42 41 42 41 40 39 38 36 35 35 33 34 33 34 36 35 34 35 34 30 30 31 31 31 29 28 27 25 24 25 26 27

GFSGL_sfc_dewp_021.txt.gz
Dewpoint
68 67 67 66 66 70 68 68 68 69 70 69 69 68 68 69 71 71 70 69 69 69 69 69 68 70 71 75 75 74 71 71 68 68 69 70 66 65 63 64 64 63 63
67 68 67 67 66 68 67 68 69 68 70 69 69 68 68 67 68 68 67 67 68 67 68 68 67 68 69 71 72 71 71 71 69 67 68 65 62 60 60 60 60 61 60
67 67 66 66 67 69 68 67 68 67 67 67 67 67 67 67 67 67 66 65 65 65 65 65 66 67 66 66 66 67 67 68 67 66 65 63 60 60 59 59 58 58 59
65 65 66 66 67 68 67 66 67 66 67 67 67 66 67 66 66 66 65 65 64 63 63 63 64 64 64 65 64 65 66 65 64 63 62 61 61 61 60 58 56 57 56
66 65 66 67 67 68 67 66 66 66 66 66 66 66 63 62 62 64 64 63 63 62 61 60 59 60 60 61 63 64 65 64 64 63 61 60 59 59 59 59 56 55 55
65 65 67 68 68 69 67 66 67 65 66 66 64 64 62 59 58 60 63 63 62 62 61 61 61 60 57 58 58 58 62 63 62 60 59 57 57 58 59 58 55 55 52
70 67 67 69 69 69 67 66 66 65 65 64 64 63 62 60 56 57 61 61 61 60 60 59 56 55 59 57 57 57 57 58 59 61 57 56 57 58 59 57 57 56 54
67 67 68 70 70 70 68 67 66 64 64 63 63 63 61 56 53 54 57 61 60 59 59 58 58 57 55 55 53 50 49 50 54 53 56 56 57 59 59 58 57 56 55
65 65 65 67 69 69 68 67 66 64 63 63 62 62 61 59 52 53 56 59 58 58 56 55 54 54 52 53 53 52 49 46 46 48 48 49 49 50 51 54 52 51 49
60 61 62 63 66 67 67 66 66 64 63 61 61 61 57 59 50 50 52 55 56 52 54 53 50 51 49 49 57 55 53 52 51 51 49 48 49 48 49 55 46 47 53
60 60 60 59 60 64 65 65 65 64 62 61 59 58 57 52 52 49 49 56 55 52 49 47 47 46 45 46 49 55 52 51 50 48 43 38 40 42 41 46 52 45 44
59 58 57 57 56 57 58 59 59 62 60 59 58 56 53 52 48 47 46 48 52 50 48 45 44 43 41 42 45 42 43 46 43 38 35 35 36 36 41 45 51 49 47
57 57 56 55 54 54 54 55 54 54 57 55 51 51 51 50 48 46 46 47 48 49 46 42 42 41 40 39 41 42 45 40 38 36 35 35 36 38 47 47 51 51 50
56 54 53 52 51 52 53 53 52 52 52 50 50 52 51 51 51 50 47 43 44 42 44 42 44 44 43 40 39 41 39 38 37 35 35 35 37 36 35 35 35 38 39
56 54 52 50 48 47 46 48 50 49 51 52 52 52 52 50 48 44 44 46 44 43 45 42 40 40 39 39 39 39 39 39 38 37 36 34 33 35 35 35 34 35 33
55 53 51 50 49 48 48 46 43 43 42 42 43 46 44 42 40 39 39 39 40 40 41 42 40 39 38 37 37 37 37 36 37 36 35 32 31 31 33 35 34 34 33
54 53 50 50 50 49 48 48 46 42 40 38 38 39 39 39 38 38 37 37 39 39 40 39 40 39 38 37 35 34 35 37 43 35 33 33 31 31 32 31 33 33 33
53 44 47 44 42 42 45 46 46 46 45 43 38 40 36 38 38 37 37 37 35 36 37 37 37 38 36 35 34 35 35 35 35 35 35 32 31 29 29 30 30 31 30
38 35 34 33 33 35 34 33 33 37 38 40 39 37 36 38 38 37 38 37 38 33 33 34 37 36 35 35 36 37 39 35 34 35 35 33 33 31 31 29 29 29 24
39 44 40 35 34 35 35 34 34 36 37 36 35 35 35 37 35 34 34 37 34 31 32 32 34 36 35 37 37 37 36 37 36 33 34 33 33 31 29 29 27 28 30
35 37 43 36 36 36 36 36 36 35 33 32 35 34 35 34 33 34 34 33 34 33 33 32 31 32 35 37 37 36 34 32 34 34 33 33 33 31 32 30 28 28 28
38 37 38 37 39 40 39 40 40 38 37 35 32 33 35 29 30 30 31 31 31 33 32 34 32 31 31 33 35 34 33 32 32 32 32 32 32 31 30 28 27 28 27
39 39 39 40 42 42 42 40 39 39 38 37 36 32 31 28 28 29 30 30 32 33 33 34 33 31 30 32 33 33 31 31 32 32 32 32 31 31 30 29 25 26 26
40 42 42 42 43 41 41 40 40 41 40 38 37 37 35 35 33 34 33 34 34 34 35 34 34 33 34 33 32 32 32 33 33 31 33 32 32 31 30 29 23 25 26
46 45 47 48 47 42 43 42 42 41 39 43 42 44 41 40 39 37 37 37 37 37 36 35 35 35 36 36 35 32 32 27 31 30 30 31 33 34 30 28 24 22 26
44 47 41 41 41 41 40 41 41 41 40 40 40 41 40 39 40 40 41 43 41 38 37 38 37 37 37 36 35 34 30 29 31 28 30 30 29 29 28 28 27 23 25

GFSGL_sfc_dewp_024.txt.gz
Dewpoint
70 71 71 71 71 71 70 70 70 71 70 69 69 69 68 69 70 70 69 70 69 69 69 69 69 70 70 70 71 70 68 68 66 67 68 66 62 62 61 61 61 61 61
71 70 71 71 70 70 70 70 70 69 69 68 68 69 69 68 68 67 67 67 66 66 66 67 67 69 69 69 70 69 69 69 67 65 67 61 60 61 60 59 59 60 59
70 70 70 70 70 70 69 70 69 68 68 67 67 68 67 66 66 66 66 64 64 64 64 64 64 65 65 65 66 66 67 67 67 66 62 61 60 60 58 58 57 57 59
68 68 69 70 71 69 70 70 69 69 67 67 67 67 67 66 65 65 65 64 63 62 62 62 62 63 64 65 65 65 65 65 64 62 61 60 60 60 60 56 55 56 56
68 67 70 69 70 70 69 69 68 68 65 67 66 65 65 63 60 64 63 63 63 61 61 60 60 60 61 62 63 64 64 63 62 60 59 59 58 58 58 57 55 54 54
68 66 71 70 71 70 69 68 68 66 65 67 66 64 62 59 58 59 63 63 62 62 60 61 61 59 58 59 59 59 61 63 61 59 59 57 58 58 59 56 54 55 52
68 70 70 70 70 69 69 67 67 66 65 66 65 64 62 59 55 57 58 63 62 62 62 61 58 56 59 58 57 56 56 59 60 59 57 58 57 58 59 57 57 56 54
69 68 68 69 69 70 69 68 67 65 63 63 64 63 60 55 55 53 55 62 60 59 58 60 59 57 55 56 51 48 46 48 53 53 55 56 54 59 59 59 57 55 55
65 65 64 64 66 70 67 66 66 65 65 64 64 63 61 57 52 51 56 61 59 57 55 54 57 56 52 53 54 52 50 46 46 49 50 50 50 50 53 57 56 55 53
61 61 62 62 62 68 67 66 66 65 63 62 61 60 57 56 50 49 52 61 58 54 56 54 50 49 49 49 60 58 56 56 54 51 50 50 52 51 53 55 50 50 52
60 60 59 59 59 62 64 65 65 63 63 61 60 59 56 52 52 48 48 55 58 55 51 50 50 46 45 45 49 53 52 53 53 55 52 52 51 48 50 52 52 49 48
59 57 56 56 56 57 58 58 60 62 60 59 57 54 51 50 48 47 46 48 53 52 50 49 48 42 41 42 46 42 43 46 50 51 47 46 46 47 49 52 53 52 52
57 56 55 54 54 54 55 55 55 55 54 53 52 52 50 51 51 46 44 46 49 51 45 43 42 40 40 42 41 42 45 47 50 48 47 46 46 46 50 52 54 53 52
55 54 53 51 51 52 53 53 53 53 52 51 51 51 51 51 51 48 47 44 44 43 45 45 45 46 44 45 43 48 48 46 47 47 46 46 47 47 46 46 49 51 48
55 54 52 51 50 49 47 49 51 50 51 52 52 52 52 51 48 44 44 48 50 47 48 48 43 41 42 49 48 48 49 49 48 47 47 45 43 45 43 45 44 45 44
56 53 52 51 50 50 49 47 44 44 43 42 44 47 45 43 41 40 39 39 40 41 46 46 46 47 46 46 47 46 46 45 47 46 45 43 43 41 41 45 43 42 41
56 55 52 51 51 50 50 49 47 43 40 39 39 38 39 39 39 38 38 38 39 40 43 44 49 47 46 45 44 44 44 46 47 46 43 42 41 42 38 42 42 41 42
57 50 53 51 50 50 51 50 48 47 45 44 39 40 37 38 39 37 37 39 40 40 39 43 47 46 45 45 45 45 45 45 44 44 43 41 40 41 39 39 38 39 38
49 42 43 41 40 43 44 40 36 43 45 43 41 38 37 38 38 37 38 38 41 41 42 44 45 46 45 46 46 47 47 45 42 44 44 43 43 40 40 38 36 35 33
43 46 43 41 37 39 37 36 37 42 45 42 41 39 38 38 37 39 39 41 40 39 39 43 44 46 45 46 46 47 45 43 43 42 42 41 44 41 38 38 36 36 36
35 38 45 37 37 37 37 39 39 39 38 36 40 38 38 39 37 39 39 39 40 40 43 43 37 41 46 47 45 44 42 41 42 43 42 43 43 39 41 40 37 36 36
39 39 39 38 40 42 40 41 41 39 38 36 38 36 37 33 31 34 40 41 41 44 42 45 38 38 36 41 44 42 41 40 40 42 42 40 40 40 39 38 36 35 35
39 39 39 41 43 46 44 44 45 44 44 44 41 34 29 33 32 33 35 36 42 43 44 43 42 39 39 42 43 44 37 39 41 42 42 40 40 39 39 38 35 33 32
41 42 45 47 47 44 46 45 43 42 41 41 42 45 43 42 40 43 41 42 43 44 45 43 42 37 41 44 43 41 39 41 41 39 43 39 38 38 36 37 33 33 30
46 49 48 48 45 46 46 43 43 45 44 42 41 43 44 46 44 43 45 48 48 47 46 45 45 43 43 43 41 40 37 28 37 34 38 38 37 38 37 34 34 34 32
45 45 46 46 44 43 43 44 45 44 39 39 41 45 42 40 38 39 43 48 47 48 47 48 48 47 46 43 41 37 33 29 32 30 39 39 36 33 32 34 34 32 31

GFSGL_sfc_dewp_027.txt.gz
Dewpoint
68 68 67 67 67 67 68 66 66 67 66 66 68 67 66 66 66 66 66 66 65 65 66 67 67 67 67 67 67 66 65 64 62 65 65 63 62 61 61 60 60 60 60
68 66 67 67 67 67 67 66 66 66 66 65 67 66 66 66 65 64 63 63 63 63 63 64 64 65 64 65 65 65 65 65 63 62 62 60 60 59 58 58 59 59 59
67 67 68 68 67 66 66 65 66 66 65 64 65 65 64 64 64 64 63 62 62 61 61 61 62 63 63 63 64 64 63 64 63 63 61 60 59 58 57 57 57 58 59
67 67 67 68 67 66 66 65 65 66 65 64 64 64 62 62 63 63 62 61 61 60 59 59 59 60 62 62 62 62 62 61 61 60 60 59 59 59 58 55 54 56 55
67 67 68 68 68 67 67 66 65 63 63 64 63 61 60 59 61 63 62 62 60 59 58 57 58 60 61 61 60 60 61 60 59 58 58 58 58 58 57 56 54 54 54
66 68 69 69 67 66 66 66 64 63 64 63 61 60 59 56 57 59 62 61 61 59 58 57 57 57 57 57 56 58 60 58 57 56 58 56 57 57 57 55 53 53 51
69 69 69 68 67 67 66 66 64 62 63 62 61 59 57 54 54 56 61 60 59 58 58 55 53 54 53 48 49 50 53 57 59 57 55 56 56 58 57 55 56 53 52
66 66 65 66 66 67 66 66 64 63 61 60 60 57 54 51 52 52 58 57 55 53 54 56 53 51 53 46 42 39 39 45 50 51 51 48 48 56 55 55 52 51 52
62 62 61 62 62 65 66 65 64 63 62 60 61 58 54 49 50 50 56 56 54 51 49 51 51 49 51 53 46 42 41 39 46 50 50 50 51 53 53 56 52 51 50
60 60 59 59 61 65 66 65 64 63 62 58 57 55 55 49 48 48 53 56 53 51 50 47 50 47 48 51 51 49 46 44 43 44 44 45 48 50 53 49 48 48 49
58 57 56 57 58 60 63 64 64 62 60 58 56 53 50 48 47 47 49 53 54 51 48 47 44 46 44 46 46 47 46 46 46 48 48 47 44 47 48 48 48 46 45
56 55 55 55 55 57 58 59 61 61 59 56 52 50 49 48 47 45 46 49 51 47 46 46 43 42 41 43 41 42 43 43 40 45 40 41 42 42 46 48 47 47 47
55 54 53 53 54 54 55 55 55 55 54 52 52 50 49 50 50 45 44 46 48 43 41 42 41 40 39 42 41 42 44 41 44 40 38 38 35 39 46 48 48 48 46
53 52 51 51 50 51 52 53 53 53 52 51 50 50 51 51 48 45 43 40 43 40 43 42 45 45 45 46 37 42 37 37 39 38 37 38 42 41 39 43 47 47 45
53 52 50 49 48 47 46 48 50 48 50 52 52 52 52 49 46 42 42 44 46 42 43 41 39 37 36 37 44 41 40 41 39 37 36 36 36 39 36 36 35 39 44
53 52 51 50 49 48 47 45 44 44 43 42 43 46 46 43 41 39 39 39 41 41 40 42 43 44 44 41 40 40 39 41 39 38 37 34 36 32 29 33 37 35 36
52 52 52 51 51 50 48 46 43 42 41 40 39 39 41 40 39 38 38 38 40 39 38 40 41 41 38 38 38 40 37 37 37 39 34 35 32 34 33 32 36 36 36
54 52 52 51 51 50 50 48 46 43 43 41 39 39 37 37 38 37 37 38 38 39 36 35 41 38 37 37 39 39 40 38 40 38 37 36 35 35 33 34 35 34 30
54 49 44 42 46 48 50 50 48 47 44 43 38 37 36 36 37 36 36 34 35 37 41 40 39 37 35 39 40 39 38 38 36 36 36 37 38 38 34 34 35 33 30
40 45 42 37 37 41 39 37 39 44 44 42 40 38 37 37 36 36 36 36 38 39 38 35 39 38 40 39 38 38 38 39 37 37 37 36 36 38 32 34 35 33 29
38 37 45 42 41 39 39 37 39 40 40 43 41 39 39 37 37 37 37 38 37 39 37 35 34 39 40 41 38 39 38 37 38 40 39 37 39 38 36 35 34 34 33
41 41 40 39 39 42 42 42 41 40 38 39 38 38 38 37 35 33 35 39 39 39 37 35 33 35 34 38 41 40 37 37 36 36 38 39 38 37 37 35 33 33 32
41 43 41 43 44 45 44 45 43 44 43 42 37 34 33 32 31 30 31 33 36 37 38 38 36 34 34 35 38 42 38 38 37 38 38 36 37 37 36 35 35 32 31
48 46 45 45 43 43 45 45 44 43 44 43 40 35 32 33 35 34 37 39 38 38 40 40 38 35 36 38 39 38 39 38 37 36 35 34 33 33 33 34 34 34 32
49 48 46 45 45 45 43 44 44 44 41 39 44 42 42 44 44 43 45 45 44 45 44 44 44 42 38 37 37 37 34 31 31 37 37 32 31 30 30 32 34 33 32
44 44 43 43 43 43 43 42 41 41 37 37 40 41 42 43 43 43 43 43 43 42 40 39 36 35 35 35 33 33 32 31 34 31 32 35 33 33 32 30 30 32 32

GFSGL_sfc_dewp_030.txt.gz
Dewpoint
68 67 67 66 66 66 65 65 65 64 63 67 67 65 65 64 64 63 63 63 63 63 64 65 64 64 65 66 66 66 65 65 61 62 62 62 61 60 59 59 60 59 60
68 66 67 66 66 66 64 64 64 64 64 65 64 63 64 63 62 62 62 62 61 61 61 62 63 63 63 64 64 64 64 64 62 60 60 60 59 59 59 58 58 59 59
67 66 66 66 66 65 64 64 64 63 63 64 63 62 62 62 62 61 60 60 59 59 59 59 59 61 61 61 62 62 61 62 62 61 59 59 58 58 57 57 57 57 57
66 66 66 66 65 65 64 64 65 64 63 62 62 61 61 62 62 61 60 59 58 57 57 58 59 61 61 60 61 60 60 61 61 60 59 58 58 57 57 55 54 55 53
66 66 67 67 66 65 65 64 63 63 63 61 60 59 58 59 60 61 60 59 57 56 56 57 58 58 58 60 59 59 58 58 59 59 58 58 58 56 55 56 54 53 54
66 67 68 67 66 65 64 63 62 63 62 60 59 58 56 54 55 59 60 60 59 57 56 55 55 54 52 55 57 60 59 56 55 57 57 57 57 56 55 54 52 52 51
68 68 68 67 66 65 65 64 63 62 61 59 58 56 52 52 54 58 59 56 56 56 53 52 51 50 47 44 48 52 55 58 58 56 54 54 56 58 56 54 54 54 52
64 64 64 65 66 66 65 64 64 62 61 58 57 53 50 50 52 55 56 53 53 53 54 52 50 49 48 40 39 39 41 48 51 51 49 50 55 56 55 54 52 50 51
61 61 61 61 62 66 66 64 64 62 60 59 56 53 50 48 50 51 54 51 49 48 49 50 48 48 52 49 43 42 41 40 46 50 52 52 53 53 55 53 52 50 48
59 59 58 60 61 66 65 63 64 63 59 57 54 53 51 47 48 48 54 52 49 48 47 45 49 46 49 50 46 45 46 47 44 45 45 47 47 49 51 48 48 49 51
57 56 56 57 59 62 64 64 63 60 57 54 51 50 48 47 47 47 50 52 50 48 46 44 41 46 45 45 48 47 45 44 43 47 47 44 43 46 45 46 46 47 45
56 56 55 55 56 58 60 62 61 59 56 52 51 50 49 48 46 45 47 50 50 46 44 43 41 41 41 41 39 42 44 44 41 43 45 41 40 42 46 45 45 46 46
54 54 53 53 54 54 56 57 56 56 54 53 51 50 50 51 49 45 45 46 47 43 40 42 44 43 42 41 43 44 41 39 39 37 36 36 34 41 44 46 46 44 44
54 52 51 50 50 51 52 53 54 53 53 52 51 50 51 50 44 44 42 41 44 41 45 44 44 43 42 42 40 42 39 39 37 36 36 37 40 39 39 43 44 45 43
51 50 50 49 49 48 47 49 50 48 51 52 52 52 51 48 44 42 41 42 44 40 41 41 41 40 39 40 41 40 37 37 35 35 33 33 34 36 35 36 35 40 43
50 49 48 47 46 47 47 45 44 44 43 43 45 47 46 44 40 39 38 39 39 39 39 39 39 42 42 38 37 39 38 38 37 35 34 32 34 29 27 30 35 34 35
51 50 49 48 47 46 44 44 44 43 41 40 40 41 43 42 38 37 37 37 38 37 35 35 37 38 37 38 39 37 36 36 36 37 33 33 31 32 33 33 35 33 33
51 51 50 50 48 47 46 45 43 43 42 41 39 38 37 37 37 36 36 36 36 39 36 35 38 38 36 36 38 38 37 35 38 37 35 34 33 35 34 33 34 34 31
53 52 51 51 50 49 48 46 45 44 42 41 39 38 37 36 36 36 36 31 32 35 37 40 39 38 35 37 38 38 37 36 35 35 34 34 35 36 35 33 34 37 33
52 52 49 44 47 49 50 48 47 46 43 41 38 37 36 36 34 33 33 32 33 35 38 36 39 37 38 39 37 36 36 37 37 36 36 36 36 36 36 33 34 32 31
37 37 43 40 39 40 46 44 46 45 43 41 39 38 37 35 34 35 35 36 36 36 37 36 38 38 38 39 37 37 37 36 36 37 38 38 38 37 37 36 35 34 33
37 37 39 39 41 40 39 38 39 40 42 42 42 40 38 37 36 37 37 37 38 37 38 36 33 34 36 38 39 39 37 36 37 37 36 37 38 38 37 36 35 33 33
40 40 42 42 42 44 44 44 42 43 42 39 39 38 38 38 37 35 31 31 34 37 39 38 36 35 35 37 38 40 39 38 38 37 36 36 35 35 36 34 34 33 32
46 44 45 43 44 45 45 44 44 42 41 41 37 35 34 35 35 39 42 44 42 43 44 41 39 37 36 36 35 35 35 34 34 37 36 35 35 34 33 33 32 32 32
47 45 44 43 42 42 42 41 41 39 38 43 42 43 43 43 43 43 43 42 41 38 36 36 36 35 34 33 33 32 32 31 32 33 34 34 33 32 32 30 30 31 31
44 44 44 44 44 44 44 43 42 41 42 42 43 43 42 41 40 40 40 42 41 38 35 34 30 31 31 30 29 30 30 30 32 32 33 36 35 34 34 32 31 31 31

GFSGL_sfc_dewp_036.txt.gz
Dewpoint
68 66 66 66 65 65 64 64 64 64 64 64 63 63 63 63 63 63 62 62 62 63 63 64 64 65 66 67 68 68 67 66 62 62 62 61 60 59 59 59 59 59 60
68 67 66 66 65 65 64 64 64 63 64 63 63 62 62 61 60 60 60 60 60 60 61 62 62 63 63 64 65 66 67 66 63 59 60 58 58 59 58 57 57 57 58
68 67 66 66 65 64 64 64 64 63 63 62 62 62 61 60 59 59 59 59 59 59 60 61 61 62 61 62 63 63 64 64 63 61 59 59 58 58 57 56 55 55 56
68 67 66 66 65 65 65 64 64 63 62 61 61 61 61 61 59 58 58 57 57 57 57 58 59 60 61 61 61 62 62 61 61 59 58 57 57 57 57 55 53 54 53
67 67 66 66 66 65 65 64 64 63 61 60 60 59 59 59 59 58 57 57 57 54 54 54 58 60 61 61 61 61 62 61 60 59 58 57 56 56 55 56 53 54 54
67 67 66 66 66 65 65 64 63 61 60 59 58 57 56 57 58 59 59 57 55 52 52 51 52 53 56 58 59 59 60 61 59 59 59 57 57 57 56 55 53 53 52
67 67 67 66 66 65 64 64 62 60 60 58 56 55 55 57 56 57 58 55 54 52 50 49 45 45 51 52 53 53 54 56 58 59 58 57 58 58 56 54 54 54 53
67 67 67 66 65 65 64 63 63 61 59 57 54 53 54 54 54 54 55 55 53 52 52 51 49 49 49 49 49 48 48 51 52 52 54 54 58 59 57 56 56 53 53
64 64 64 66 65 65 64 63 63 60 59 56 54 53 52 52 51 52 54 52 51 50 50 51 52 51 50 49 48 48 48 48 48 51 51 51 53 54 55 55 54 53 52
61 61 61 62 64 65 65 64 63 60 58 53 51 51 50 49 48 50 51 50 49 48 48 48 48 51 49 48 50 49 48 49 48 48 47 47 48 49 49 50 51 52 53
59 59 59 60 62 63 65 63 61 58 55 52 50 49 48 48 49 49 49 52 49 47 46 44 43 46 46 46 47 49 49 51 50 49 45 44 46 46 45 47 49 51 51
59 58 59 59 60 62 63 60 58 56 53 51 51 52 52 49 47 47 50 49 49 48 45 43 43 42 42 43 43 44 45 45 44 48 45 43 42 44 46 47 49 48 48
58 57 57 56 56 58 61 59 57 55 54 53 53 52 51 51 51 45 46 46 47 43 41 45 44 40 41 43 45 43 43 44 44 46 46 43 40 40 46 50 50 49 48
56 55 54 54 54 55 56 57 56 55 54 53 52 51 51 46 46 47 47 45 46 45 45 43 43 44 45 44 44 43 43 41 40 40 40 40 41 41 41 42 44 45 46
56 55 52 51 51 50 48 50 53 51 53 53 53 52 50 46 45 43 44 45 41 43 45 44 45 45 45 44 43 42 41 40 39 38 37 37 37 35 36 38 39 39 42
52 51 51 51 51 50 50 48 45 44 43 45 46 48 48 43 40 39 38 38 38 39 41 41 43 42 39 39 40 42 41 39 40 39 38 36 35 36 35 36 38 38 37
51 50 50 50 50 49 49 49 48 45 41 40 41 42 43 41 38 37 37 37 37 37 38 39 42 40 40 40 40 40 39 39 41 40 39 38 36 36 36 37 36 36 36
50 48 49 49 48 48 48 48 48 48 48 46 41 41 39 38 37 36 35 36 38 41 40 40 41 40 40 40 40 40 40 39 39 40 40 39 38 37 37 37 37 36 36
50 50 49 49 48 47 46 45 44 44 44 44 43 40 38 36 36 36 35 34 38 38 39 40 41 41 40 40 41 41 41 39 39 39 39 39 39 38 38 37 37 37 37
52 51 50 49 48 48 47 44 43 43 41 41 40 39 39 37 37 37 37 35 34 36 36 39 40 42 42 41 41 41 40 39 39 39 39 39 40 39 37 38 37 37 37
52 52 51 50 49 49 48 46 45 44 43 41 41 39 38 37 35 34 33 34 34 35 37 37 38 40 41 41 41 41 39 39 39 39 39 39 39 37 39 39 38 38 37
52 52 52 50 50 50 50 50 49 47 46 45 43 41 37 37 35 36 38 38 38 38 38 39 38 36 37 39 41 40 40 39 40 39 39 39 39 38 38 37 37 36 36
42 44 46 46 46 45 46 47 48 47 46 46 45 43 40 40 38 37 38 39 41 40 40 40 39 37 36 36 36 36 35 36 36 37 38 39 38 37 37 37 36 35 35
40 41 42 42 43 42 42 43 43 42 44 43 42 42 41 40 39 43 42 39 38 37 37 36 35 33 30 27 26 25 28 31 34 35 37 37 38 38 39 39 38 37 36
44 45 44 45 45 45 44 43 41 43 42 41 41 42 43 43 41 40 38 36 34 33 32 29 26 25 24 23 22 22 28 29 28 31 34 35 36 37 36 36 37 37 38
46 46 44 44 43 43 42 43 43 44 43 43 42 41 41 41 41 39 37 35 31 27 26 25 24 23 22 22 23 26 28 28 26 28 25 23 22 22 23 28 31 34 37

GFSGL_sfc_dewp_042.txt.gz
Dewpoint
70 69 69 68 68 67 66 67 67 67 67 67 66 66 66 67 67 67 67 66 66 67 67 67 67 69 68 70 73 72 72 69 63 61 61 61 60 60 60 61 60 60 59
69 69 69 68 67 66 66 67 67 66 66 66 66 66 65 65 66 65 64 65 64 64 65 66 66 65 68 68 68 68 71 70 64 59 59 58 58 59 59 59 57 57 57
68 68 68 67 67 67 66 66 67 66 65 65 65 64 64 64 64 64 64 64 64 64 64 65 65 66 65 64 66 65 65 67 65 60 58 59 58 58 57 56 56 56 55
64 67 69 68 68 67 67 67 66 66 65 65 64 63 63 62 62 62 62 63 63 63 64 64 63 64 65 65 65 66 66 63 62 60 58 58 58 58 58 56 54 53 53
64 66 69 70 69 68 67 67 66 66 65 65 64 64 62 60 59 61 58 61 61 61 62 61 62 61 59 61 61 65 66 63 60 59 58 58 57 57 57 57 55 54 54
65 66 69 69 69 68 68 67 66 66 65 65 63 62 61 57 59 59 59 57 58 57 58 59 60 61 59 58 59 59 61 64 63 60 59 59 59 58 58 57 55 56 55
66 67 69 71 69 69 68 67 66 66 65 64 63 63 63 61 57 56 58 57 56 57 57 56 54 54 58 58 59 58 57 57 59 62 60 60 61 61 61 59 59 58 56
66 66 70 70 69 69 69 68 68 66 65 63 63 64 63 60 55 55 57 59 59 58 58 58 56 53 54 56 55 52 49 52 55 50 56 56 58 59 59 58 60 60 58
66 67 69 70 69 69 67 68 68 65 65 63 63 63 62 60 53 54 57 58 58 58 58 58 58 54 51 52 54 53 50 45 48 52 53 52 51 51 51 48 52 48 54
65 68 67 69 69 68 68 69 67 67 64 60 61 62 58 61 51 51 54 54 56 54 57 57 52 54 51 51 55 53 52 51 50 50 51 51 51 51 51 51 42 40 41
66 66 66 67 68 68 69 69 67 66 63 61 59 58 59 59 58 50 50 54 53 52 51 51 52 47 44 44 46 52 53 54 50 50 47 45 46 44 42 46 50 41 41
65 65 65 65 65 67 68 67 65 63 62 60 59 57 56 58 51 49 49 50 52 51 49 47 43 44 43 43 44 45 45 46 46 47 46 43 39 38 40 45 51 49 46
63 63 63 64 65 66 67 62 61 61 60 57 56 55 55 55 56 47 47 48 49 48 47 46 44 43 43 43 44 44 46 42 41 40 39 39 40 42 48 47 48 52 54
63 62 63 62 62 62 62 62 60 59 57 56 59 56 55 54 54 54 52 47 47 45 44 42 45 46 46 44 44 44 41 39 39 38 39 40 40 38 37 37 36 36 35
61 60 60 59 58 54 52 55 59 58 58 58 57 56 54 54 52 47 47 49 47 45 47 43 42 45 45 43 42 42 41 41 39 39 38 37 36 36 36 38 37 35 34
59 58 58 58 56 54 54 51 46 46 45 47 48 51 51 44 41 40 39 38 40 41 44 44 45 44 42 38 39 38 38 40 38 38 38 38 37 37 36 36 36 36 35
58 57 56 56 56 55 54 53 50 47 43 41 41 42 42 41 39 38 38 38 38 38 44 45 43 42 38 39 39 39 37 39 47 40 39 38 38 37 38 36 35 36 35
58 52 56 56 56 56 57 56 54 54 54 52 43 44 39 38 38 37 38 39 40 39 43 44 42 39 39 41 42 42 42 42 42 40 40 39 38 37 36 36 36 36 35
57 55 56 56 56 55 56 55 54 54 52 52 50 45 41 38 37 36 36 44 43 42 42 40 40 39 41 41 44 45 46 42 39 40 40 39 39 38 37 36 35 38 37
56 53 54 54 50 48 47 46 44 44 43 42 42 43 47 43 43 43 42 41 40 38 37 37 38 41 42 44 43 44 42 42 42 40 40 40 40 39 37 37 36 35 36
53 50 50 42 38 36 35 35 36 37 38 40 40 40 39 38 35 37 36 37 36 36 36 37 36 38 40 42 42 42 40 39 39 40 40 40 41 40 42 39 37 36 35
50 45 44 41 38 38 39 40 40 40 40 39 39 38 38 38 36 35 36 36 36 38 39 40 37 36 37 39 43 43 40 39 40 42 42 41 41 41 41 41 40 38 37
52 47 44 43 42 43 42 41 41 41 40 40 40 39 33 35 38 38 38 38 40 41 42 41 39 40 41 44 43 42 38 40 41 42 41 41 41 41 40 40 37 35 33
55 49 49 45 44 42 43 43 43 42 43 43 44 44 43 41 40 40 38 40 42 41 42 42 41 40 42 40 39 36 34 33 37 36 37 36 36 33 31 27 20 22 25
54 52 48 45 44 45 45 44 43 42 43 44 44 44 44 45 44 43 44 43 43 41 41 40 39 40 39 37 35 32 26 28 27 25 26 26 23 27 20 18 18 19 20
53 49 46 45 43 43 44 41 42 44 44 44 44 44 44 43 43 42 42 42 41 41 40 38 38 38 38 34 31 26 28 27 26 28 25 21 20 20 19 20 20 19 19

GFSGL_sfc_dewp_048.txt.gz
Dewpoint
71 71 72 70 70 70 71 70 70 70 68 69 69 68 68 69 69 70 69 67 67 67 68 67 68 69 70 71 70 70 69 67 59 59 61 61 60 60 60 60 60 59 57
70 69 70 70 69 70 70 69 70 70 70 69 68 68 68 68 68 68 66 66 65 63 65 66 66 66 67 68 67 69 69 68 60 57 58 58 58 58 59 59 58 58 56
69 69 70 69 69 70 70 69 69 69 69 67 68 68 67 67 67 67 67 66 65 63 64 64 65 67 66 68 67 65 64 63 61 57 56 58 57 58 57 57 57 58 57
66 68 69 70 70 69 70 70 70 69 68 68 68 67 67 66 65 66 65 66 64 63 63 62 62 62 64 67 67 65 63 60 59 57 56 57 57 58 58 56 55 55 55
65 67 69 71 70 70 70 70 69 69 68 68 67 67 66 62 56 62 65 64 65 64 62 61 61 61 61 61 64 65 62 59 58 57 57 57 57 57 57 57 56 55 57
66 69 70 71 70 70 70 69 70 69 68 69 67 66 62 55 59 60 63 63 64 64 64 63 63 61 59 59 59 59 64 62 59 58 58 57 58 59 59 58 58 57 56
68 69 70 71 71 70 70 69 69 69 69 68 67 66 63 60 58 60 60 64 63 63 62 61 58 56 60 58 58 58 57 59 61 63 61 61 60 60 61 60 59 59 58
69 69 69 69 70 69 71 70 70 69 68 68 68 67 64 58 57 57 59 65 64 63 62 60 60 58 55 56 53 51 51 53 56 53 55 53 53 54 57 57 60 60 60
69 68 67 69 69 69 70 70 70 69 68 67 67 66 64 61 55 56 56 65 63 62 61 59 59 58 51 51 55 53 52 47 48 50 50 50 50 51 53 54 57 57 55
66 67 67 68 68 68 69 71 71 68 67 65 66 66 62 63 53 53 54 59 62 60 61 58 50 51 49 48 60 58 54 52 52 52 52 52 53 51 56 55 52 48 48
68 67 66 67 66 68 68 69 70 69 67 66 66 65 65 64 59 52 51 62 59 59 59 56 50 46 47 47 47 55 56 56 55 57 58 57 57 56 53 55 55 51 48
68 67 67 66 67 67 68 67 68 67 67 66 65 64 63 64 56 50 51 52 58 59 56 55 48 44 43 44 48 46 48 48 52 54 55 52 51 50 52 54 54 54 53
67 67 66 66 66 66 67 70 67 66 65 64 63 62 61 62 59 49 49 50 52 57 56 51 45 41 43 43 45 46 46 51 52 53 51 51 50 51 51 55 56 57 57
65 65 64 64 64 64 65 66 65 63 63 62 62 63 60 60 59 56 53 53 50 52 48 46 47 48 50 50 47 48 52 50 50 51 51 51 51 51 52 48 49 48 48
63 63 63 63 62 59 55 53 60 60 60 62 62 62 61 59 58 55 55 56 54 52 51 50 50 50 50 50 51 53 52 50 52 51 51 50 50 49 50 49 50 50 47
62 61 62 61 59 57 54 53 47 46 45 45 46 55 51 47 42 42 42 43 44 44 50 48 46 47 48 50 50 51 48 48 51 50 51 49 48 49 46 49 49 47 47
62 63 62 60 58 57 55 55 53 50 44 42 42 43 46 43 41 40 40 40 42 44 50 47 47 49 53 50 49 50 48 51 53 53 50 49 48 48 44 48 47 48 46
60 56 59 61 59 58 57 56 55 55 55 53 45 44 40 39 39 39 39 42 43 42 46 47 50 53 52 50 50 50 49 52 51 51 50 48 48 47 46 46 46 46 44
60 58 59 58 60 58 58 57 57 57 57 54 48 44 41 40 39 39 40 47 48 47 45 45 48 51 52 52 54 55 53 51 49 49 49 50 49 47 47 46 44 42 43
60 58 56 59 56 57 58 58 57 57 57 55 52 51 46 44 45 46 45 47 48 48 46 47 50 52 52 54 55 54 52 50 51 49 50 50 49 48 45 44 43 42 41
57 59 57 56 56 57 56 55 57 56 57 57 54 52 46 48 49 50 50 49 49 49 48 47 44 48 52 54 53 51 48 47 47 47 47 50 47 46 48 46 44 42 41
58 57 56 56 55 54 56 53 54 52 54 52 46 47 43 49 46 45 46 47 48 47 48 51 46 44 43 46 48 48 47 45 48 48 48 47 47 46 46 44 42 42 41
58 56 54 55 52 50 47 43 44 44 40 42 44 45 46 44 44 43 43 42 44 45 49 50 48 46 48 50 51 50 46 47 48 48 48 47 47 45 44 42 39 37 36
57 55 53 54 52 47 47 44 46 45 44 45 44 42 42 42 41 44 45 47 47 47 51 49 49 45 48 49 49 47 42 40 46 44 47 45 44 42 40 38 32 30 28
55 55 54 54 53 49 50 46 51 52 51 52 50 52 52 47 44 42 50 49 49 49 49 48 49 49 50 49 40 29 27 27 27 26 36 40 40 40 33 30 29 29 30
54 55 54 55 53 51 51 49 47 49 50 50 49 52 53 53 54 52 51 50 48 47 48 46 46 47 49 47 33 26 26 26 28 27 23 28 28 29 29 32 32 29 28

GFSGL_sfc_dewp_051.txt.gz
Dewpoint
67 68 70 68 67 67 67 66 66 66 66 66 66 66 65 65 66 66 65 64 63 64 65 64 64 66 66 68 68 66 65 61 58 59 60 60 59 60 59 60 59 57 57
67 69 70 67 66 67 66 66 66 65 65 65 64 65 64 64 65 64 63 62 63 63 63 64 65 65 65 66 65 64 63 61 59 57 58 57 57 58 58 57 57 56 55
68 68 68 66 66 66 66 65 65 65 64 64 64 63 63 63 63 64 64 63 62 61 60 60 61 62 65 64 63 62 60 59 59 57 56 57 57 57 56 56 55 56 56
67 66 68 67 66 66 66 66 66 65 64 64 63 63 63 60 61 63 64 62 60 59 59 59 59 59 61 63 61 59 59 58 57 56 56 57 57 57 57 55 53 54 53
65 67 67 67 67 67 66 66 65 65 65 64 63 62 58 56 57 61 61 62 60 59 58 58 58 60 61 63 61 58 58 57 57 56 56 56 56 56 54 55 53 52 53
62 65 68 69 68 67 67 66 65 65 64 64 63 57 55 55 58 60 61 60 61 61 59 59 59 58 59 59 59 62 59 57 55 55 54 54 53 54 56 55 54 53 52
65 68 69 68 68 68 68 66 66 65 64 63 61 58 56 55 58 57 61 59 59 57 57 59 54 54 53 51 54 56 57 59 60 58 56 56 58 57 57 55 57 56 55
64 65 67 67 67 68 68 66 66 66 64 64 63 59 56 54 56 57 58 60 60 58 56 57 54 51 52 48 44 41 43 48 51 50 49 47 47 48 51 52 56 56 56
66 65 66 67 67 67 67 67 66 66 65 64 65 61 56 53 54 54 57 60 59 57 56 55 54 48 51 52 44 41 38 36 47 50 48 49 49 51 51 47 48 49 51
65 66 66 65 65 65 66 64 65 67 65 65 64 63 58 56 52 52 53 56 58 57 54 48 51 46 48 51 48 44 40 41 43 44 44 46 48 48 53 47 47 43 47
66 65 64 64 62 64 66 66 65 66 65 64 64 64 62 57 53 51 50 59 59 57 55 51 41 46 45 45 49 54 51 50 53 49 51 50 50 50 50 48 48 44 45
65 64 62 65 66 66 65 65 65 66 65 64 64 63 63 60 52 50 50 53 55 56 54 50 42 41 42 43 42 45 46 46 44 47 51 50 52 50 50 48 47 49 46
64 63 63 63 64 64 63 65 65 66 65 64 63 61 62 60 54 49 49 50 52 53 53 48 44 40 41 41 42 43 45 45 48 47 43 42 42 41 43 47 47 50 50
64 64 62 61 61 61 62 63 65 65 64 63 62 61 62 61 54 50 50 50 50 49 48 43 41 41 45 48 44 42 43 41 43 41 42 43 45 45 46 40 40 41 43
62 62 62 62 61 58 53 52 55 57 58 63 62 62 61 61 57 51 50 52 49 48 45 42 41 42 44 47 46 46 48 41 44 42 43 43 43 43 39 40 43 42 39
61 61 61 61 59 55 55 53 47 46 45 46 48 57 52 48 48 47 47 47 46 46 46 43 40 41 44 47 47 47 43 45 44 43 42 40 41 38 36 38 43 39 40
59 59 60 60 58 56 54 55 54 51 44 42 43 47 46 43 41 42 42 43 44 46 46 45 43 43 45 47 48 46 41 43 41 45 43 40 41 43 36 40 42 41 39
58 56 58 58 59 58 57 55 55 55 55 54 47 45 41 40 40 40 41 43 41 41 45 45 47 48 48 47 44 45 43 43 41 45 43 42 42 38 38 40 39 41 38
60 59 58 58 58 58 58 57 56 56 56 55 46 45 42 41 40 40 41 46 45 44 43 43 45 47 49 44 47 47 46 46 46 44 42 44 42 41 40 42 40 41 39
60 59 57 57 57 57 59 58 57 57 57 55 50 48 42 42 42 43 41 42 45 48 47 45 45 47 48 50 48 45 44 41 40 42 42 44 46 44 41 38 38 38 37
59 58 57 57 57 56 57 58 58 58 57 56 53 51 44 45 46 46 46 46 46 47 48 49 46 48 46 50 48 47 44 45 45 45 44 46 46 41 42 41 40 39 38
59 58 57 57 57 56 56 58 58 58 59 58 58 54 42 48 48 49 49 49 49 49 49 49 47 45 46 48 48 47 46 46 47 48 47 45 43 42 42 41 40 39 37
59 58 57 56 56 54 50 46 45 47 49 56 58 51 47 48 49 48 48 48 49 50 50 48 44 45 45 48 48 48 45 45 45 46 44 44 43 42 40 38 38 37 34
58 57 56 54 55 52 47 46 48 48 50 49 47 48 48 48 45 44 45 46 46 46 48 45 44 45 46 46 46 44 44 44 41 41 44 42 40 39 37 34 29 26 25
59 57 57 55 54 53 49 47 51 50 51 51 51 51 50 45 46 49 50 50 49 47 47 46 45 44 44 42 32 29 30 29 29 32 34 33 32 32 31 28 26 25 26
58 58 58 58 56 54 51 48 48 49 49 50 51 52 52 54 53 52 52 51 50 48 46 45 44 44 41 33 27 28 29 27 23 25 19 20 22 24 26 27 27 26 24

GFSGL_sfc_dewp_054.txt.gz
Dewpoint
68 68 69 67 67 67 65 65 65 65 65 65 65 65 65 65 64 63 62 62 63 63 63 63 63 64 65 65 66 65 64 61 58 59 60 60 60 60 59 58 57 56 57
67 68 69 67 66 65 64 64 64 63 64 64 64 63 65 64 63 62 61 62 61 61 61 61 62 65 64 63 63 61 60 60 60 57 58 58 58 58 58 57 56 55 55
67 67 68 65 66 65 64 64 64 64 64 63 63 62 63 64 63 62 61 60 59 59 59 59 60 62 61 60 60 59 60 60 59 58 56 57 57 57 56 56 55 55 56
67 66 67 65 65 65 65 64 65 64 63 63 62 62 61 62 63 62 59 58 58 58 58 58 59 61 60 59 58 58 58 58 57 57 56 56 57 57 57 55 54 53 52
66 65 66 66 66 65 65 65 65 64 63 62 62 58 56 58 61 61 59 58 57 56 57 58 59 62 63 61 58 56 56 57 56 56 56 56 55 55 55 55 52 51 52
65 66 67 67 66 66 65 65 64 64 63 62 59 56 55 57 58 60 61 60 58 57 57 56 57 57 59 61 60 59 57 56 54 55 53 53 52 53 54 53 52 51 50
63 64 67 67 67 66 67 66 65 64 63 62 56 55 54 56 57 58 60 59 58 58 58 54 51 53 53 54 57 59 59 59 58 55 54 53 53 55 54 53 53 55 53
64 65 67 66 66 66 67 66 65 65 63 60 58 55 54 55 56 56 59 58 55 56 55 52 49 49 48 46 44 45 49 52 55 57 56 54 52 51 56 55 55 54 54
64 65 65 66 65 66 65 63 64 65 65 64 60 56 54 54 53 56 58 58 56 55 55 53 49 48 52 48 36 34 34 36 49 50 48 48 50 51 51 46 46 51 50
64 64 64 65 64 64 64 64 63 63 64 65 63 60 54 53 52 51 56 59 55 54 51 51 52 47 50 48 38 39 41 39 41 42 43 46 49 50 51 45 45 48 48
64 63 63 61 61 62 64 63 61 63 65 65 64 62 59 53 52 50 51 58 57 54 52 47 42 47 45 48 47 43 44 45 48 46 47 47 48 49 48 46 44 46 44
63 61 60 62 64 64 64 63 62 62 63 64 63 63 62 57 51 49 50 55 56 55 53 50 42 43 41 45 43 48 46 48 48 48 51 51 50 49 49 48 47 46 42
62 62 62 61 62 62 62 62 63 64 64 64 64 63 62 61 53 49 49 51 54 55 55 50 44 41 39 40 44 45 44 44 46 46 47 47 49 50 45 46 44 47 47
64 63 62 61 60 59 59 60 62 64 64 64 63 62 62 60 57 53 51 51 52 53 53 48 43 41 41 44 44 41 43 41 42 42 41 42 44 44 43 39 38 40 40
62 62 62 62 61 58 55 53 54 57 54 61 64 63 62 60 59 53 50 50 49 47 43 40 38 38 39 43 45 43 45 41 42 42 41 41 40 42 39 40 41 41 37
59 58 60 61 60 58 56 55 49 47 45 44 47 57 58 52 51 47 44 44 44 43 41 39 38 38 41 44 45 44 46 45 42 42 40 39 40 36 35 37 42 37 38
57 57 58 58 60 57 55 55 55 52 45 43 43 45 48 50 45 47 44 43 43 43 45 42 39 39 40 43 45 46 43 41 43 42 40 38 40 39 36 37 41 38 40
57 55 56 56 57 57 57 56 55 55 55 55 47 44 42 41 41 42 43 44 46 45 46 45 44 43 42 42 45 47 45 41 41 43 42 41 41 38 38 38 39 38 38
57 57 56 56 56 56 57 57 56 56 55 55 49 46 42 40 41 42 42 50 51 49 46 45 46 47 47 48 48 47 45 42 40 42 43 42 41 40 38 39 40 40 39
59 58 57 57 56 55 56 57 57 56 55 54 52 52 45 45 47 47 47 48 47 46 45 44 45 45 46 47 47 46 44 42 43 43 42 41 42 42 40 40 39 38 37
59 59 57 57 56 56 56 56 57 57 57 56 55 52 44 47 48 46 46 44 45 46 49 48 47 46 46 48 48 46 44 43 43 43 42 41 44 44 44 39 38 39 38
60 58 57 57 57 56 56 56 56 57 58 57 57 53 43 47 48 47 47 46 46 46 47 48 48 48 47 47 48 45 43 43 43 44 44 44 45 43 41 41 40 39 38
57 58 58 57 56 55 55 52 47 46 49 55 58 55 48 50 49 49 49 49 50 49 50 50 50 49 47 48 48 47 43 44 44 46 46 46 44 43 43 41 39 37 36
56 57 58 57 56 55 53 47 47 47 49 48 58 58 51 50 49 49 48 47 48 49 51 50 49 46 46 48 49 47 46 46 46 46 46 44 43 40 40 38 36 33 28
54 56 56 56 55 54 53 52 49 49 49 48 47 48 49 49 46 47 49 49 48 47 47 46 45 44 45 45 38 35 31 31 35 36 41 40 38 36 35 32 30 27 25
53 56 56 55 55 54 54 52 51 50 49 50 50 51 50 50 52 51 51 50 50 51 50 50 50 43 37 34 31 29 28 27 28 29 27 25 25 24 24 24 26 26 26

GFSGL_sfc_dewp_057.txt.gz
Dewpoint
67 67 68 66 66 66 65 65 64 63 64 64 64 64 64 63 63 62 61 62 62 62 62 63 63 64 64 65 64 66 64 62 59 59 60 60 60 60 57 57 57 56 58
67 67 67 66 67 65 64 64 64 64 64 64 63 64 64 63 61 61 61 61 60 60 60 61 62 64 62 62 62 62 62 61 60 57 58 58 58 58 57 56 55 55 55
67 67 67 65 66 64 64 64 63 63 63 63 63 63 62 62 61 60 59 59 59 58 59 60 61 61 59 59 58 60 60 60 60 58 56 57 57 57 56 56 55 55 55
67 66 66 64 65 64 64 64 64 63 63 62 62 62 62 62 61 58 58 57 58 58 58 59 60 59 59 58 58 60 59 59 58 57 57 56 57 57 57 55 54 54 53
66 66 66 65 65 65 64 64 64 63 63 62 61 59 60 62 61 57 56 56 56 56 57 58 60 62 61 59 57 56 59 57 57 57 56 56 55 55 55 55 53 53 51
65 65 66 66 65 65 64 65 64 64 62 62 59 57 57 60 60 59 58 57 56 55 55 55 56 60 61 60 59 58 57 57 57 57 55 55 55 56 55 52 50 50 50
64 65 66 66 65 65 66 66 65 64 64 61 57 56 56 57 58 59 60 58 56 56 54 52 52 55 58 58 59 59 59 58 57 55 53 53 52 54 53 52 51 52 52
63 63 65 66 65 65 66 66 66 65 64 63 60 55 55 56 56 56 59 57 56 57 54 50 51 51 52 53 53 53 53 53 56 56 55 55 55 55 55 55 54 53 52
63 63 65 65 64 64 64 63 64 64 65 63 61 58 54 55 53 55 56 55 55 55 53 49 48 48 50 48 44 40 37 40 50 51 50 50 50 52 53 50 52 52 50
63 64 64 63 63 63 62 61 62 63 64 65 63 61 56 55 52 53 56 56 53 53 52 51 52 47 49 45 34 33 33 37 41 42 44 47 48 49 51 44 45 46 48
63 62 62 62 61 61 62 61 60 61 64 63 63 62 60 57 53 51 54 57 55 52 51 48 46 49 48 44 42 44 43 43 47 44 45 46 47 47 46 44 44 49 46
61 60 60 60 61 62 62 62 61 61 60 63 62 62 62 60 52 49 51 54 55 54 52 49 45 45 43 46 46 45 47 48 49 48 49 47 47 46 47 46 45 43 42
61 62 62 61 60 60 60 62 61 59 60 63 63 63 62 62 58 50 49 51 53 55 54 51 46 42 41 43 43 46 47 44 45 46 47 49 50 49 47 46 45 46 46
63 61 62 61 61 60 59 59 59 62 62 63 63 63 63 62 59 55 53 54 54 55 55 51 45 42 42 42 43 43 42 43 46 44 45 45 44 44 43 41 37 40 39
61 61 62 62 61 59 55 55 56 56 55 57 61 63 63 62 61 57 55 56 54 54 50 42 38 36 37 40 44 40 43 41 41 41 41 41 42 42 41 40 39 41 36
57 58 57 57 57 56 56 55 50 49 46 44 43 46 59 53 49 50 48 49 45 43 43 41 39 37 37 39 43 44 44 45 42 41 40 41 40 40 37 38 40 36 36
56 56 56 56 57 56 54 54 55 52 46 45 43 43 44 48 46 45 46 47 43 42 48 43 42 39 38 40 43 44 43 44 43 41 39 39 40 37 37 36 39 37 38
56 54 55 55 55 56 55 55 54 55 55 56 45 43 43 42 43 42 43 46 47 44 48 47 45 42 40 39 43 45 46 43 42 42 41 39 40 40 37 39 39 38 39
56 56 55 55 55 55 55 55 55 55 56 56 54 47 42 41 41 41 43 55 54 52 50 48 47 45 43 41 41 44 45 46 42 41 43 41 40 39 38 38 39 41 40
56 56 56 56 55 55 55 55 55 55 54 54 53 52 47 45 48 48 47 52 52 55 55 54 52 48 47 47 46 46 47 46 45 43 42 42 41 41 39 39 40 39 38
58 58 57 58 57 56 55 55 55 55 55 55 55 55 47 50 52 50 50 49 50 50 50 50 52 52 49 47 47 47 46 46 44 43 42 42 42 41 41 40 40 39 38
55 56 57 57 57 56 56 55 55 55 55 56 57 54 43 49 51 51 50 50 49 49 49 49 50 49 50 48 48 48 47 45 45 43 43 42 42 42 43 42 40 39 39
52 54 55 56 56 55 56 55 54 52 49 49 52 54 47 50 50 52 50 48 48 48 48 48 48 48 48 49 49 50 47 46 44 44 43 43 43 43 43 42 41 39 39
52 52 54 55 55 55 55 54 53 48 48 48 48 54 53 52 52 52 50 50 50 50 51 50 50 50 50 50 50 49 48 46 46 45 44 44 44 43 44 42 40 39 38
50 51 53 54 54 55 54 52 51 51 48 49 50 49 50 50 50 50 52 50 48 47 47 48 48 47 47 47 47 47 42 37 45 43 45 44 44 43 41 39 36 34 32
54 53 52 54 53 53 52 51 50 50 49 50 50 52 52 51 50 51 50 50 51 51 51 52 43 37 36 35 34 32 31 31 34 34 39 39 38 36 33 32 32 30 29

GFSGL_sfc_dewp_060.txt.gz
Dewpoint
68 67 68 67 66 66 66 66 66 65 65 65 66 66 65 64 64 64 64 64 64 64 64 65 66 67 68 68 67 67 66 64 59 59 60 61 60 58 57 58 59 60 59
67 68 68 66 67 66 66 66 65 65 65 65 65 65 65 64 63 63 62 62 62 62 63 64 65 65 65 66 66 65 64 63 61 58 59 58 58 58 57 56 56 56 57
67 68 67 66 66 65 65 65 65 65 65 65 65 65 64 63 62 61 61 61 61 61 62 63 63 63 63 63 63 62 62 62 61 59 57 58 58 58 57 56 56 56 56
67 67 67 66 66 65 65 65 65 65 64 64 64 65 63 63 62 59 60 60 60 60 61 62 62 62 62 62 62 62 61 60 60 58 57 57 57 57 58 56 54 55 54
66 66 67 66 66 65 65 65 65 65 64 64 63 63 63 63 58 58 59 59 59 59 60 62 63 62 61 60 61 61 61 59 58 58 57 57 56 56 56 56 55 54 54
66 66 67 66 66 66 65 65 65 65 64 63 62 61 61 62 59 58 58 58 58 58 59 59 60 61 61 60 59 60 61 59 59 58 57 57 56 57 56 55 54 54 53
66 66 66 67 66 66 66 66 65 65 64 63 62 60 60 61 58 58 58 57 58 57 57 57 58 58 60 60 59 59 59 58 59 60 59 58 57 58 57 55 56 57 57
65 65 66 66 67 66 66 66 66 66 65 64 62 59 58 59 56 56 59 59 59 59 56 55 57 57 58 58 58 58 57 58 59 57 59 58 59 59 58 58 58 58 57
65 65 65 66 66 66 66 66 66 66 66 63 62 61 58 57 54 54 58 59 58 59 55 52 54 55 52 53 56 53 52 51 52 54 54 54 55 56 57 57 57 57 57
65 65 65 66 65 65 64 64 64 64 64 65 62 60 59 59 53 52 56 57 57 56 55 53 51 52 48 47 51 48 49 47 48 50 50 50 52 53 54 56 56 56 54
65 64 64 64 64 64 63 63 62 63 64 64 63 62 61 59 58 51 52 57 55 54 54 53 51 50 47 43 43 46 47 47 47 49 48 48 49 48 47 48 51 51 50
63 62 62 62 62 63 63 64 63 62 63 63 64 62 62 61 55 52 51 52 55 54 54 53 52 47 45 43 45 46 45 48 47 47 48 48 48 48 48 48 49 50 48
61 62 63 63 62 62 63 64 63 62 61 62 62 62 62 62 60 52 51 50 52 56 56 54 49 44 43 46 46 47 47 49 49 49 49 50 50 50 51 51 50 51 51
62 63 63 63 62 61 61 60 60 61 62 62 63 63 63 63 61 59 56 55 53 56 56 54 50 46 45 46 45 46 51 50 49 50 50 51 50 51 50 48 46 47 47
63 63 62 62 61 61 59 59 58 59 58 59 59 60 62 63 62 57 56 57 57 57 55 50 47 45 42 43 45 44 45 47 46 47 46 46 47 47 49 45 43 43 42
60 60 60 60 60 59 57 57 52 50 47 45 43 47 56 52 48 47 47 48 50 50 53 51 49 45 42 41 43 45 44 47 45 45 46 46 46 45 45 43 43 43 42
59 59 59 58 59 58 57 57 56 55 45 44 42 42 41 43 43 44 43 45 46 48 55 53 54 50 48 42 41 44 44 45 48 45 45 45 45 45 43 42 42 42 41
58 53 57 57 57 58 58 58 57 56 56 56 47 45 44 42 42 42 41 45 48 47 52 54 52 51 46 43 41 43 46 47 46 46 45 44 44 43 41 41 41 43 42
58 58 57 57 57 56 57 57 57 57 57 57 57 49 44 41 41 41 41 53 53 53 52 52 53 50 48 45 46 46 46 47 46 46 46 45 44 43 42 41 41 42 43
59 56 56 58 58 57 57 57 57 57 57 57 57 57 54 48 51 51 48 51 55 56 56 54 54 53 53 51 49 49 45 47 48 46 46 46 45 43 43 42 41 41 41
57 58 57 59 59 59 58 57 57 57 57 56 57 56 49 54 55 53 52 51 52 55 55 56 56 55 54 54 52 51 48 47 46 47 47 47 46 43 44 43 42 42 41
53 54 56 57 58 59 59 58 58 57 58 58 59 58 44 52 54 54 54 54 54 53 53 52 52 52 53 53 53 53 52 50 48 47 48 47 45 45 44 43 42 42 42
52 52 53 54 56 55 57 58 58 57 56 56 51 50 52 53 53 54 54 54 53 52 51 51 51 50 51 52 52 52 51 51 52 49 47 46 44 44 44 43 43 41 41
53 52 52 54 55 56 57 57 57 51 51 49 49 51 52 54 55 54 54 53 52 52 52 51 50 49 50 50 50 51 52 53 54 52 50 46 45 43 43 43 43 42 41
53 54 54 53 53 55 56 54 53 52 51 50 50 51 50 50 50 51 52 52 50 50 51 48 45 49 50 51 51 51 46 36 45 45 49 50 49 48 48 47 46 43 41
53 54 54 53 52 53 52 51 51 50 51 51 52 52 52 52 53 53 53 53 53 53 53 53 52 50 41 38 37 34 32 32 39 38 48 47 46 45 44 44 42 42 41

GFSGL_sfc_dewp_063.txt.gz
Dewpoint
72 71 71 70 70 69 69 69 69 69 68 68 68 68 67 67 67 68 68 67 67 67 68 68 68 69 70 71 70 71 66 65 61 60 61 61 61 61 60 61 62 61 59
72 71 70 70 69 68 68 68 68 68 68 68 68 68 67 66 66 66 65 65 65 65 66 67 67 67 67 70 69 69 67 64 61 58 59 59 59 61 59 58 57 58 57
70 70 69 68 68 68 68 68 68 68 68 67 68 68 66 65 65 65 65 64 65 65 66 66 66 68 67 67 68 66 64 63 62 59 58 59 58 59 58 57 57 58 56
69 69 69 68 68 68 68 68 68 68 67 67 67 67 66 65 64 62 62 64 65 65 66 65 65 66 67 66 66 66 65 63 62 60 58 58 58 58 58 55 54 54 53
69 68 69 69 69 69 68 68 67 67 67 67 66 67 66 65 61 61 63 63 64 65 66 64 65 64 62 65 65 65 65 62 60 59 57 57 57 56 57 57 56 54 55
69 68 69 69 69 69 68 68 68 67 67 66 64 65 66 63 58 58 61 62 63 64 64 64 64 63 61 60 61 62 63 62 61 59 58 57 57 57 57 56 55 54 52
69 68 69 70 69 69 69 69 68 68 68 66 65 63 64 65 57 57 58 60 60 61 63 64 60 59 62 62 60 60 60 59 61 63 61 61 59 60 59 57 56 57 56
69 68 69 69 69 70 69 69 69 69 68 68 64 62 61 62 57 56 58 61 61 61 59 61 63 62 61 62 62 62 62 62 62 60 63 62 62 62 60 60 59 60 60
68 68 68 69 69 69 69 68 68 68 68 67 66 62 60 61 55 55 58 62 61 62 60 57 60 62 56 56 61 61 61 60 54 55 56 56 57 57 59 59 58 57 57
69 68 68 69 69 68 68 66 67 66 67 66 64 66 60 61 54 52 56 61 61 60 61 59 52 57 51 52 61 61 60 59 58 58 57 55 58 58 57 61 58 55 55
68 68 68 69 69 69 68 68 67 67 66 66 65 65 61 60 59 53 52 61 58 58 57 57 54 50 47 46 50 58 58 57 53 56 52 51 53 57 58 57 58 56 52
68 68 67 67 66 66 67 67 66 66 65 65 65 64 64 63 56 52 52 53 57 58 57 56 56 48 45 43 43 45 45 48 46 45 43 44 44 44 45 48 54 54 53
66 65 65 64 64 64 65 64 64 65 64 64 62 62 63 64 64 52 50 51 54 57 58 56 52 45 44 45 44 46 46 43 45 45 45 45 46 46 51 52 53 55 54
64 64 65 65 65 65 64 64 63 64 64 64 63 63 64 64 63 64 58 55 53 56 58 58 55 51 49 50 51 48 48 49 48 46 46 47 49 51 49 47 46 47 45
65 64 65 64 64 63 63 62 62 63 60 62 62 63 61 63 64 57 59 61 59 58 58 60 57 54 53 50 50 50 52 54 52 52 51 51 51 51 52 52 47 45 43
64 63 62 61 61 60 60 60 52 52 48 45 45 50 59 53 47 43 45 45 47 49 57 57 56 55 53 51 49 49 48 47 48 51 52 51 49 48 49 51 49 45 42
62 61 60 59 59 59 59 58 57 55 46 44 43 43 41 45 42 41 41 42 43 48 57 58 57 58 60 56 53 48 46 45 50 46 47 47 48 48 48 48 47 44 42
61 54 59 58 58 58 58 59 58 57 57 57 46 46 43 41 41 41 41 44 52 48 56 57 56 58 59 56 56 50 46 46 47 47 45 45 46 47 46 45 43 43 41
60 59 59 59 58 57 58 58 57 57 57 57 57 49 46 42 42 41 41 58 57 56 54 55 56 56 57 58 55 54 49 48 50 51 50 46 44 44 43 42 41 42 42
62 58 57 60 59 59 59 58 57 58 57 56 55 55 57 53 54 55 55 54 56 58 58 56 56 55 55 53 52 52 51 51 51 52 50 48 46 44 42 42 41 40 41
55 57 55 59 59 59 59 59 60 60 58 56 56 55 46 53 50 50 52 53 54 55 57 58 58 58 58 56 55 53 52 51 51 52 52 51 48 45 46 43 41 41 40
52 53 54 54 54 56 57 58 59 58 59 58 58 56 45 50 50 52 53 54 55 56 56 57 55 55 54 54 55 55 55 55 55 52 51 51 51 51 47 45 43 43 41
51 52 52 52 53 54 55 57 57 58 57 56 53 50 49 50 52 52 52 53 54 55 55 54 53 50 50 51 52 53 52 53 54 55 52 52 53 50 48 48 48 47 43
53 53 53 54 55 54 55 57 55 50 51 51 50 50 50 50 50 51 51 52 52 52 52 50 49 48 49 50 51 51 51 52 52 54 55 54 52 49 50 50 50 48 44
54 54 54 54 54 55 54 53 52 51 51 51 51 52 52 52 52 52 52 52 52 52 53 53 52 51 49 47 44 41 37 33 40 41 53 54 53 52 51 50 48 48 48
53 53 54 54 53 54 53 52 52 51 51 51 51 51 52 52 52 53 53 52 52 52 53 54 54 52 51 48 42 36 34 32 38 35 44 51 51 51 50 49 49 49 49

GFSGL_sfc_dewp_066.txt.gz
Dewpoint
72 72 72 71 70 70 69 69 69 69 68 68 68 68 68 68 68 68 68 67 67 67 68 68 69 70 68 73 74 73 71 65 61 61 62 62 62 63 63 63 63 62 61
73 73 71 71 70 69 69 69 69 69 68 68 67 67 67 66 67 66 65 65 65 65 65 68 68 67 70 72 73 72 71 67 62 61 61 60 61 62 62 62 62 59 59
72 72 70 70 69 69 69 69 68 68 67 66 67 67 67 66 65 65 65 65 65 65 65 66 66 67 68 69 71 70 69 65 63 60 59 60 59 61 61 60 60 61 57
71 70 69 69 69 68 68 69 68 68 67 67 67 66 66 65 65 64 61 63 65 65 66 65 65 65 68 68 70 68 67 63 62 60 59 59 58 59 59 57 57 56 54
71 68 68 69 69 69 68 68 68 68 67 68 67 67 67 64 62 63 62 63 64 65 65 65 65 64 63 65 67 68 67 64 62 60 59 58 58 57 57 57 56 55 56
70 68 69 70 69 69 69 68 69 68 68 68 67 66 66 63 58 59 61 62 63 64 64 64 65 63 62 61 62 62 66 65 63 60 58 57 58 57 59 57 56 54 52
70 68 69 70 69 70 69 69 69 69 69 69 68 67 66 66 57 57 60 61 61 62 64 64 60 58 62 63 61 61 61 61 62 63 60 60 59 59 59 58 57 54 55
70 68 69 70 69 69 70 70 70 70 69 69 69 68 64 64 57 56 58 63 62 61 61 62 63 63 63 62 63 62 62 63 63 62 65 64 64 62 60 60 61 59 62
69 68 69 69 69 69 70 71 71 69 70 69 69 68 64 62 56 55 57 62 61 62 61 61 61 62 58 58 61 62 62 62 56 56 58 59 59 59 61 60 59 58 58
68 68 69 69 69 69 70 70 69 68 68 67 67 67 63 63 53 53 56 61 63 60 63 62 54 58 54 54 62 61 61 61 59 61 61 59 60 61 59 63 61 58 60
70 69 69 70 70 70 70 70 69 68 67 67 66 67 66 64 62 52 52 62 61 59 58 59 58 52 50 50 51 61 59 61 58 60 59 59 60 60 59 61 62 57 57
71 69 69 69 69 68 69 68 67 67 66 66 66 64 65 65 58 52 51 52 59 61 59 59 59 48 46 45 48 48 47 53 53 52 50 48 49 50 54 56 60 60 56
69 67 68 68 68 67 68 67 65 67 64 63 62 62 63 64 65 53 50 51 53 59 61 57 52 46 45 45 44 46 45 43 47 46 46 45 45 45 51 53 54 56 57
66 65 66 66 66 66 64 64 63 63 63 64 65 64 63 64 64 64 60 57 54 57 58 61 58 55 52 52 48 44 44 50 49 48 48 48 48 48 48 48 47 48 45
66 65 65 65 65 66 65 62 61 64 60 62 61 62 63 63 63 52 56 63 63 60 59 61 60 59 57 54 54 54 51 51 51 53 51 49 48 48 50 49 48 47 45
65 64 64 63 62 60 58 58 54 50 49 47 46 50 57 52 46 44 43 43 45 47 57 59 61 61 58 58 57 55 54 55 55 57 56 53 51 50 50 52 53 50 47
67 67 59 57 56 56 55 54 54 55 48 46 44 44 44 44 43 42 41 42 43 46 58 59 59 59 59 59 60 60 58 57 55 56 57 53 55 53 50 49 50 52 50
61 55 57 56 55 54 54 54 53 53 53 55 47 48 44 43 42 41 41 43 57 52 59 59 60 60 59 59 60 58 56 57 57 54 52 53 51 51 50 48 46 50 47
62 59 60 57 56 55 55 54 52 53 53 53 53 48 47 43 43 41 41 55 56 58 59 58 59 59 59 59 58 58 55 55 53 53 52 53 54 54 53 53 50 45 45
63 59 59 62 55 55 53 52 51 52 54 53 53 52 56 54 54 53 54 55 53 54 57 58 58 59 59 59 57 55 53 52 52 53 52 53 53 54 53 51 47 44 43
56 56 56 55 54 52 51 51 51 52 52 53 58 57 47 51 50 50 50 51 52 53 53 58 58 58 58 58 57 56 55 56 55 53 53 54 54 53 53 53 52 46 43
53 52 52 51 50 51 51 52 52 52 53 53 60 60 47 51 51 51 52 52 52 53 53 55 55 53 51 51 53 56 55 55 55 56 55 55 54 54 52 51 51 50 51
50 49 49 50 51 52 52 52 52 55 57 56 51 50 50 50 51 51 50 51 52 52 52 53 52 50 50 50 50 51 49 51 53 54 56 56 56 54 52 53 52 52 52
52 52 51 52 53 52 50 53 55 50 51 51 52 52 52 53 52 52 52 52 52 52 52 52 52 52 52 51 49 47 46 47 49 49 51 52 54 54 54 53 53 52 52
54 54 55 55 55 55 53 52 52 52 51 51 51 51 50 50 50 50 50 51 51 51 52 51 49 49 51 48 47 46 39 34 43 39 49 50 52 53 53 53 51 51 51
53 54 54 53 53 53 52 51 49 49 49 49 50 49 49 49 48 48 50 52 49 48 48 49 50 50 50 49 49 39 35 34 41 35 48 49 49 48 47 46 45 46 46

GFSGL_sfc_dewp_069.txt.gz
Dewpoint
71 71 72 70 71 70 70 69 68 69 68 68 67 70 69 69 70 68 69 67 67 68 68 68 69 70 70 74 75 71 72 72 64 62 63 64 64 64 65 65 63 63 61
72 71 71 71 71 71 69 68 69 68 68 67 66 66 69 67 66 66 65 64 64 65 66 67 67 68 69 72 73 71 72 72 63 62 61 61 62 64 65 64 63 61 60
72 71 68 71 70 72 69 68 68 68 67 66 66 67 68 68 64 65 65 64 64 64 65 66 67 67 68 69 72 72 71 71 64 62 60 61 60 63 63 63 64 64 59
71 70 67 69 71 69 69 68 68 68 67 67 67 67 66 65 64 64 62 63 65 64 65 66 65 66 68 69 70 71 70 66 65 61 60 59 59 60 61 60 59 58 57
69 69 67 69 69 69 68 67 67 67 67 68 68 68 67 64 62 64 62 62 64 64 64 64 66 64 64 66 67 70 68 65 62 61 59 59 58 58 58 59 58 57 59
69 68 68 69 71 69 69 68 68 71 69 70 67 67 67 67 59 61 61 63 63 64 64 63 65 64 63 62 63 63 67 66 63 61 60 58 59 58 59 58 58 57 55
71 69 69 70 69 71 70 68 70 70 71 71 70 68 67 67 57 57 60 61 62 62 63 63 61 59 63 64 61 62 62 62 64 65 62 60 60 60 61 58 59 59 57
72 69 69 70 69 70 70 70 70 71 70 71 70 69 68 67 58 56 57 60 65 63 61 62 63 63 64 63 63 63 63 64 64 62 64 63 64 63 62 62 60 62 60
71 69 69 69 69 70 71 72 72 70 70 70 70 68 68 68 57 55 57 60 63 65 62 61 61 62 59 59 63 63 63 63 58 58 59 60 60 60 62 60 60 58 58
70 69 69 70 69 70 71 72 72 71 69 66 68 67 64 67 55 54 55 60 64 64 66 65 56 58 56 56 63 63 61 62 60 61 62 61 62 62 60 64 60 58 58
69 69 70 70 70 70 72 72 71 69 67 68 67 67 67 66 64 52 52 60 63 64 63 62 62 54 53 53 53 64 61 62 60 61 60 61 62 64 62 63 67 65 63
70 70 70 71 68 69 71 71 69 68 68 67 67 66 64 67 59 53 52 52 58 63 64 64 60 50 49 49 52 51 49 52 58 56 59 58 59 59 59 61 64 64 64
72 72 72 72 70 70 70 69 66 67 64 64 62 62 62 65 65 53 51 51 53 58 61 57 53 47 47 48 47 47 46 49 49 52 52 51 50 50 61 61 63 61 61
68 68 69 69 68 68 66 66 64 62 64 64 62 63 66 68 66 66 62 61 55 58 59 60 58 56 53 54 52 47 45 48 50 52 50 50 53 53 50 50 49 50 50
67 66 66 66 66 66 66 64 63 64 62 62 60 60 58 59 60 54 55 62 61 60 59 62 61 60 60 58 57 55 51 50 51 53 52 52 51 55 52 54 52 50 48
65 63 62 62 64 64 64 62 53 53 51 49 47 51 55 49 46 45 43 43 43 45 58 60 60 61 62 62 60 57 57 57 55 53 55 58 58 58 56 55 53 51 49
65 67 63 62 62 60 58 56 57 54 48 46 47 47 47 45 43 42 42 43 43 47 59 60 60 60 60 60 60 61 60 62 61 58 59 60 59 58 57 57 55 53 52
66 57 63 58 56 54 55 57 50 54 55 56 48 48 44 44 44 44 42 44 55 51 58 59 60 60 61 61 61 61 60 59 57 57 57 57 57 56 54 54 54 53 54
61 62 61 61 59 58 59 56 52 51 51 51 56 49 47 43 43 42 42 55 52 52 56 58 59 59 60 60 60 60 59 58 56 55 54 55 54 53 52 53 54 51 53
59 58 58 59 60 61 57 54 52 54 55 59 58 58 57 54 54 55 55 56 57 54 52 57 58 59 58 59 58 58 58 57 56 55 55 54 53 53 52 51 51 52 52
60 60 59 59 55 61 61 56 53 53 55 56 60 57 48 53 51 55 54 53 53 54 56 60 55 61 63 62 58 57 55 54 55 56 55 55 54 53 53 52 53 53 53
54 55 57 56 51 50 50 50 49 49 53 56 61 57 47 51 52 53 53 53 54 55 52 53 51 51 51 52 53 52 53 54 57 58 58 57 55 55 55 54 53 53 52
50 50 48 48 48 50 49 48 50 53 53 53 53 55 54 53 53 52 51 52 52 52 52 52 51 50 51 51 51 50 49 49 50 51 52 53 55 56 56 55 54 54 52
52 52 52 52 51 51 54 55 52 50 52 52 52 52 51 51 50 51 51 52 52 52 52 51 49 48 48 48 49 49 47 45 48 47 50 50 51 52 53 53 53 53 53
54 54 55 54 53 53 53 52 52 51 51 50 50 49 49 49 49 50 52 50 49 48 47 47 47 49 49 49 48 49 42 34 44 39 48 49 48 48 48 49 49 49 49
52 53 53 52 51 51 50 50 49 49 48 48 48 48 46 45 48 48 48 48 49 51 51 46 44 48 46 44 47 40 36 34 40 34 44 48 46 45 44 44 45 45 46

GFSGL_sfc_dewp_072.txt.gz
Dewpoint
73 73 74 72 72 73 73 72 72 73 72 72 69 71 71 71 71 71 71 70 69 69 70 69 69 70 71 72 72 71 69 68 63 62 63 65 64 64 65 64 63 62 62
73 73 72 72 72 72 72 72 73 72 72 71 71 69 70 70 71 67 67 68 67 67 66 68 68 70 70 70 70 69 69 69 64 61 61 61 62 64 65 64 64 61 60
72 72 71 71 72 72 72 72 72 71 71 69 70 70 69 69 67 67 67 67 67 67 66 66 68 68 69 70 70 70 69 67 64 62 60 60 61 63 63 63 63 62 60
70 71 72 71 71 71 72 72 71 71 71 68 68 68 68 69 68 68 66 66 67 67 65 67 67 69 69 70 70 69 68 67 64 61 60 59 60 61 62 61 60 60 58
72 71 71 72 72 71 71 71 71 71 69 70 68 68 68 67 62 67 66 65 66 67 66 66 66 65 65 65 67 69 68 65 62 60 59 58 58 59 59 60 60 59 59
72 72 72 72 71 70 71 71 71 71 71 71 70 68 69 70 60 62 63 64 66 65 64 65 65 64 63 64 64 64 67 65 63 62 60 58 58 58 60 59 59 58 56
72 71 72 72 72 72 71 71 70 71 72 72 71 69 68 69 58 57 60 60 62 65 64 66 63 62 65 64 62 63 63 63 64 63 61 60 59 59 59 60 59 58 58
72 71 72 72 71 71 71 71 72 72 72 72 71 71 70 64 57 57 57 61 59 64 63 65 65 65 64 65 65 65 65 65 64 64 65 63 62 61 60 61 60 60 60
72 72 71 72 71 71 71 72 72 73 72 71 71 71 71 66 58 56 59 61 59 62 63 62 64 65 60 60 64 65 64 63 59 60 60 61 60 59 61 61 59 58 57
72 71 71 72 71 71 71 72 73 72 71 69 70 70 66 68 56 54 59 61 63 63 64 64 58 61 56 56 62 64 63 64 61 61 62 61 61 60 60 61 60 58 58
73 71 70 72 72 72 72 73 73 72 70 71 69 70 69 68 62 53 53 62 63 64 63 63 64 55 54 53 53 63 58 57 62 63 63 63 63 64 62 62 63 62 60
71 70 69 71 70 70 72 72 72 71 70 69 69 68 67 68 60 53 51 54 59 63 65 62 58 51 51 52 54 53 50 53 63 63 62 62 62 62 62 62 63 64 65
60 60 69 71 72 72 72 71 70 70 68 67 66 65 67 68 64 53 51 51 53 59 62 60 55 48 48 49 50 49 47 56 56 56 57 60 60 60 62 62 63 64 63
60 60 68 69 71 72 69 71 69 66 66 67 66 65 67 68 68 63 61 58 54 58 60 60 58 54 53 55 55 51 53 54 53 54 54 58 60 59 58 59 58 57 56
64 66 67 68 68 67 69 69 66 61 64 66 66 64 63 62 59 53 59 62 60 55 59 65 65 61 61 60 59 58 53 53 50 51 51 53 58 59 56 56 56 52 51
67 66 66 66 67 67 67 65 57 56 51 47 47 55 55 50 45 44 44 44 45 46 61 62 61 61 60 61 61 61 60 56 57 58 56 55 58 58 57 58 57 53 52
66 66 67 64 65 65 67 64 57 55 48 45 46 47 47 48 44 44 44 44 44 48 59 59 60 60 60 61 62 61 60 60 60 59 58 59 58 58 57 57 57 56 55
58 57 63 63 63 63 62 60 59 56 55 56 48 48 44 44 45 44 44 44 54 51 58 60 59 61 61 61 61 61 61 60 59 57 58 57 58 57 56 55 54 54 54
57 57 57 57 58 59 59 56 53 56 60 60 56 50 47 43 44 45 42 56 57 57 60 62 62 60 60 61 60 60 59 58 58 57 57 56 56 54 54 54 54 51 52
59 56 56 56 56 56 56 58 59 59 60 60 60 56 56 53 55 55 54 60 58 56 58 60 62 63 61 60 59 58 57 57 57 55 56 55 54 54 53 52 52 51 51
59 57 55 57 56 57 59 60 60 60 60 60 60 58 49 58 53 54 54 56 55 56 56 56 54 56 54 57 58 60 57 55 55 56 56 55 55 54 54 54 53 53 53
56 59 60 57 56 58 58 59 59 59 59 60 59 52 48 53 52 53 54 53 53 53 54 53 52 52 52 52 52 51 50 49 51 52 53 54 54 56 56 54 54 53 53
52 52 52 54 56 54 55 54 54 55 55 55 54 52 53 53 53 53 52 53 53 53 53 52 50 49 49 50 50 48 46 47 48 49 51 53 53 54 54 54 53 53 53
54 53 53 53 53 54 55 53 53 50 53 52 52 52 51 51 50 52 51 51 51 51 50 49 49 48 49 49 49 47 46 43 47 47 48 49 48 48 50 51 50 49 49
54 55 54 53 55 55 53 52 51 51 51 51 50 50 50 50 51 50 50 50 50 50 50 50 51 49 47 47 46 42 38 34 41 38 46 49 49 48 45 42 44 43 44
52 52 52 52 51 51 51 50 49 49 48 48 48 47 48 47 48 49 50 50 49 49 48 45 43 41 40 36 37 33 31 31 32 32 35 45 47 47 47 46 44 42 43

GFSGL_sfc_dewp_075.txt.gz
Dewpoint
71 72 72 72 71 70 71 70 68 67 66 66 66 67 68 68 68 67 67 67 67 67 68 68 67 68 68 68 68 68 67 66 62 63 63 64 64 64 64 63 62 61 62
71 71 71 71 70 71 70 68 68 68 67 66 65 66 67 67 67 67 66 65 66 66 65 66 65 68 66 66 67 66 67 67 63 61 62 62 63 64 63 62 61 60 61
71 71 70 70 69 70 69 69 68 68 67 67 66 65 65 65 65 65 64 62 63 64 64 64 64 65 65 66 66 66 66 66 64 62 60 61 61 63 63 63 62 59 59
70 70 70 69 69 69 69 69 69 67 68 67 66 66 67 65 65 64 64 61 62 63 64 62 66 66 65 65 66 65 65 64 63 62 61 60 60 61 62 60 58 58 57
69 69 69 69 70 69 69 69 67 67 67 68 67 66 65 65 61 64 63 61 61 63 64 65 64 64 65 64 65 66 66 63 62 60 59 58 58 59 60 60 58 57 56
69 69 71 70 70 69 69 69 67 67 67 66 65 65 65 65 60 60 61 62 62 63 62 64 63 64 63 63 64 65 65 62 61 60 59 58 59 59 60 59 58 57 54
69 70 71 70 69 69 69 68 68 66 67 66 66 66 66 63 58 58 59 60 60 62 62 63 63 64 62 62 62 63 64 64 63 61 60 59 58 59 59 58 58 58 56
71 71 71 71 68 69 68 67 67 67 67 68 67 66 66 61 57 57 58 57 60 62 62 62 63 63 63 63 61 62 63 64 64 64 61 60 60 60 60 60 60 60 60
71 70 70 69 69 68 67 67 68 68 68 67 67 67 66 61 57 56 57 58 59 61 63 61 62 61 59 59 63 62 61 60 59 60 62 61 59 58 59 60 59 58 57
71 71 71 71 70 68 67 68 68 69 68 68 67 66 65 63 55 55 58 59 58 60 61 62 60 59 56 56 61 61 61 61 60 59 59 59 60 59 60 60 59 57 57
71 67 62 61 61 68 69 69 68 68 67 66 66 65 65 64 59 52 53 60 59 60 60 59 62 55 54 53 55 60 57 55 60 60 61 60 61 61 61 61 61 59 58
63 62 61 60 63 62 63 66 67 67 66 66 65 66 66 64 60 52 52 54 59 61 59 59 56 52 51 52 54 54 50 51 56 61 61 61 61 62 61 61 61 62 61
61 59 60 60 62 62 60 62 67 67 66 65 65 64 64 64 59 54 52 51 53 59 61 58 51 49 50 50 51 50 47 51 52 52 53 58 61 61 63 61 61 62 62
58 57 59 61 63 59 61 63 67 66 65 64 65 63 65 65 59 56 56 54 55 56 57 56 56 54 52 53 54 51 51 51 50 49 50 52 55 57 60 62 61 61 60
58 58 59 60 60 65 65 64 65 61 62 64 63 63 64 63 60 55 57 60 58 56 58 61 57 56 55 56 57 56 53 51 50 48 47 49 52 55 55 56 54 54 54
63 62 62 62 65 64 61 60 54 56 52 51 53 56 54 51 45 45 45 45 46 48 57 58 57 59 60 60 60 60 60 56 53 53 54 55 57 57 56 56 57 56 54
58 60 63 61 63 62 62 60 59 56 48 45 44 47 49 48 44 43 46 47 47 50 56 57 58 57 57 58 58 60 59 58 60 59 59 58 58 57 56 56 57 56 56
57 54 57 57 59 60 61 61 59 57 54 53 47 47 42 44 44 44 45 47 50 51 55 56 56 58 60 59 57 58 58 58 57 56 56 56 57 57 56 56 55 55 54
57 57 57 57 57 57 58 60 60 59 57 57 52 49 44 44 47 45 43 54 56 55 56 60 58 58 59 58 58 57 57 56 56 55 54 54 53 53 53 54 54 50 52
57 56 56 57 58 58 59 59 59 59 59 60 58 58 53 50 52 52 53 57 56 57 58 58 57 58 58 57 56 56 55 54 53 53 54 54 53 53 52 52 51 51 49
58 58 55 55 57 58 59 59 59 59 59 59 59 56 51 57 59 57 55 54 53 51 52 52 51 52 52 53 53 54 52 51 51 51 51 53 55 54 53 54 53 53 52
54 55 58 56 54 56 57 58 58 59 59 59 58 57 52 53 53 53 52 52 52 52 52 50 49 49 49 48 48 47 47 47 47 48 49 50 50 51 50 51 52 52 52
54 53 54 55 57 56 55 57 58 57 57 56 54 53 53 53 53 52 52 52 52 49 49 49 48 48 49 48 47 46 45 44 46 46 46 48 48 48 49 48 48 47 46
54 54 54 54 54 53 53 53 53 51 52 51 51 51 51 51 50 50 50 50 49 49 50 49 47 46 47 45 44 41 40 40 43 42 44 46 47 45 45 45 44 44 44
53 53 53 55 55 51 50 50 51 51 52 52 52 52 52 51 50 49 49 49 49 50 50 47 44 41 38 35 32 31 31 30 32 33 33 38 44 45 44 45 45 43 42
52 52 52 52 51 51 50 49 49 49 48 48 48 48 49 49 49 49 49 49 49 49 47 41 38 36 35 33 30 30 30 29 29 29 30 34 40 43 44 44 42 41 41

GFSGL_sfc_dewp_078.txt.gz
Dewpoint
70 70 70 70 70 69 69 68 68 67 67 67 67 68 69 68 68 67 67 67 66 66 66 67 66 67 68 68 68 67 67 65 62 62 63 64 65 65 64 63 63 63 64
70 71 70 71 70 69 69 69 68 66 66 65 65 67 67 67 67 66 65 67 66 65 65 66 65 67 65 65 66 66 66 66 63 60 62 62 63 64 62 61 61 61 62
70 71 71 70 70 69 69 69 67 67 66 66 65 65 66 66 66 66 65 64 64 65 64 64 65 65 65 65 65 65 65 66 63 62 60 61 62 64 62 62 58 58 61
70 70 70 70 69 69 69 69 67 67 66 66 65 65 64 65 65 64 64 62 61 63 64 62 65 65 64 65 65 65 64 63 63 62 61 61 61 62 62 60 58 58 57
70 70 70 69 69 69 69 68 67 67 67 66 66 66 66 65 63 65 63 60 60 61 63 65 65 64 64 64 65 65 64 63 62 60 60 60 60 60 61 60 58 57 55
69 69 69 69 69 69 68 68 67 66 67 66 66 66 64 64 59 61 63 62 62 63 62 63 62 64 63 63 64 65 64 62 60 60 59 59 60 60 60 59 58 56 54
69 69 70 69 69 69 69 68 67 65 66 65 65 65 64 63 58 58 60 61 61 61 63 63 61 62 62 62 62 63 63 62 61 60 60 60 59 60 60 59 58 57 55
69 70 70 71 69 68 67 66 67 66 66 65 65 65 65 64 57 56 58 57 59 62 62 63 63 62 61 62 62 62 62 64 62 61 60 59 59 60 60 61 60 60 59
70 70 71 69 63 63 63 62 63 65 66 66 66 66 65 63 55 55 57 57 58 61 62 63 62 62 60 59 62 61 59 59 59 60 60 59 58 58 59 60 59 59 58
68 70 67 65 64 60 58 60 62 61 60 67 67 66 63 62 54 54 58 58 57 58 59 60 60 58 56 57 62 60 58 59 60 59 59 59 58 58 58 60 59 58 57
65 64 63 65 64 61 60 61 60 60 61 66 66 66 65 63 58 52 54 59 58 58 59 60 60 55 52 53 56 60 59 59 59 59 58 59 59 59 59 60 59 59 58
61 61 61 62 64 63 61 61 58 60 60 65 65 65 65 64 58 52 51 56 58 59 59 59 58 53 50 50 53 52 49 53 59 58 58 58 58 59 60 61 60 60 60
58 58 58 60 62 62 61 60 60 59 63 65 65 64 63 63 60 52 50 51 54 59 60 57 51 49 50 51 52 51 49 52 52 54 56 57 59 60 60 59 60 59 60
57 56 57 58 59 58 60 60 59 60 60 64 64 64 64 63 61 57 56 54 54 56 57 56 53 52 52 53 53 51 51 52 51 50 49 50 53 55 57 59 58 60 60
58 56 58 58 61 59 59 58 59 63 64 65 65 64 64 63 62 56 56 57 58 55 56 58 56 54 54 54 55 56 54 51 51 50 48 47 49 54 54 55 56 56 58
62 62 61 62 61 63 61 59 52 50 51 51 52 60 60 55 51 51 46 47 47 48 58 59 58 59 58 59 60 60 59 57 54 52 53 53 54 56 56 56 56 55 53
56 57 58 60 60 61 61 59 57 53 48 46 46 48 50 49 45 44 44 44 45 50 55 58 58 57 55 58 58 59 59 59 59 59 58 57 58 57 56 56 56 56 56
57 54 57 57 58 59 60 61 60 58 55 53 44 44 42 42 42 42 43 46 52 53 55 56 56 56 57 56 58 57 57 57 56 55 54 54 54 55 55 54 54 54 54
56 57 57 58 57 56 59 60 60 59 57 52 50 47 45 43 42 42 42 54 55 53 54 57 57 56 56 55 54 54 53 52 54 54 54 53 54 53 53 53 53 49 49
57 54 55 57 58 58 58 58 59 59 58 57 57 54 50 49 53 53 54 57 57 57 58 57 56 57 56 55 55 53 53 53 53 54 54 54 53 53 52 52 51 51 51
54 58 54 56 57 58 58 58 58 59 60 58 58 57 49 58 57 57 54 54 54 54 52 51 51 50 51 51 50 50 49 49 48 48 49 50 51 49 51 53 53 53 53
53 53 55 55 53 56 56 58 58 58 59 59 58 54 49 58 56 53 52 52 51 51 51 49 48 47 47 47 47 46 46 45 45 45 46 47 47 47 47 47 46 47 48
53 53 53 54 54 54 56 57 58 58 58 58 58 57 54 54 55 54 52 50 50 49 49 48 47 47 46 45 45 44 43 42 43 43 44 45 45 44 45 44 45 43 42
53 53 53 53 52 53 53 53 52 50 52 53 53 52 51 51 50 50 49 48 49 49 48 47 46 44 39 37 35 34 35 35 34 34 36 39 43 44 44 44 44 44 43
52 52 53 52 51 50 51 51 51 51 51 51 51 51 51 50 49 49 49 50 49 48 46 44 38 34 32 31 30 29 30 29 29 31 32 35 40 41 43 43 42 41 40
52 52 52 51 51 51 51 50 50 50 50 51 50 50 49 48 48 48 49 49 49 45 40 37 35 33 31 28 27 29 29 28 28 30 33 36 32 28 33 37 39 39 39

GFSGL_sfc_dewp_081.txt.gz
Dewpoint
69 69 69 69 69 68 68 67 67 67 67 67 67 68 68 68 67 67 66 65 65 64 64 64 64 65 66 67 67 67 67 65 62 62 63 65 65 65 64 63 63 64 65
69 69 69 69 69 68 68 68 67 66 66 66 66 66 67 67 67 66 66 67 65 65 65 65 65 66 65 64 65 66 66 65 63 61 62 63 63 64 62 61 61 62 63
69 69 69 69 69 69 68 68 68 66 66 65 65 66 66 66 66 66 66 65 65 65 64 64 65 65 64 64 64 64 63 65 63 62 61 62 63 63 61 60 60 59 62
69 69 69 69 69 69 69 68 67 67 66 65 65 65 65 65 66 65 66 64 62 63 64 64 64 64 64 63 64 64 65 64 63 62 61 61 62 62 62 59 57 57 59
69 69 69 70 70 69 69 68 67 66 66 65 65 65 65 64 65 64 64 63 61 61 62 64 65 65 65 63 63 65 64 63 62 61 60 60 60 61 60 61 58 57 56
69 69 69 69 69 68 68 65 66 66 66 66 65 65 65 65 61 61 63 61 62 62 62 63 62 64 63 63 64 65 64 62 61 60 59 60 60 61 61 60 58 56 55
69 69 70 68 68 65 63 63 62 62 63 64 65 65 64 63 58 59 62 62 61 61 62 62 63 64 63 63 63 63 63 62 62 61 60 60 60 61 62 60 59 57 56
69 69 69 68 65 64 63 63 62 62 62 62 60 63 65 64 57 56 59 59 59 61 61 62 62 62 62 62 63 63 62 62 62 61 61 61 61 61 62 61 60 59 58
68 69 69 67 65 63 63 63 63 61 61 62 61 60 64 65 56 54 56 56 57 60 61 62 63 63 60 58 62 62 60 60 59 59 59 58 58 58 60 61 59 59 58
66 68 69 66 64 62 62 62 62 60 59 60 60 60 60 65 54 53 57 58 56 58 59 59 60 61 57 56 62 61 59 59 59 59 60 59 57 57 58 60 60 59 58
64 64 65 65 64 62 60 59 58 61 61 58 59 60 64 65 58 52 54 58 58 57 59 58 58 54 53 53 56 61 60 59 59 58 58 58 58 58 58 58 59 60 58
60 61 61 62 63 63 61 60 58 58 58 58 59 61 65 65 57 52 52 55 57 58 58 58 58 52 50 51 55 52 51 55 58 59 57 56 57 58 58 58 58 58 59
59 57 57 57 58 61 59 58 58 58 58 60 62 64 65 64 60 52 50 52 54 58 59 56 53 50 49 51 52 51 50 53 53 57 57 56 57 58 58 58 58 58 58
59 57 56 56 57 57 57 59 58 58 58 60 63 63 63 63 61 55 54 54 54 58 56 53 53 53 52 53 53 52 52 52 51 51 50 50 51 53 54 58 58 60 60
59 60 57 58 57 61 59 56 60 59 57 59 60 61 63 63 62 56 56 57 58 57 55 56 56 56 55 54 56 56 55 51 51 50 49 48 48 52 53 53 59 59 58
56 57 58 60 62 62 60 54 48 47 47 51 49 55 61 57 51 50 49 48 48 48 57 59 58 56 56 56 57 58 59 57 55 54 53 54 55 56 56 56 55 53 54
55 56 57 57 59 60 60 60 56 50 45 44 48 48 50 50 48 46 45 44 44 50 59 59 59 59 59 59 57 59 58 59 59 58 58 57 57 57 56 56 56 56 55
56 53 56 57 58 58 60 60 58 57 55 51 46 45 43 44 44 44 44 48 55 55 55 56 56 55 55 57 58 57 56 56 55 55 54 53 53 54 54 54 54 54 53
56 55 57 57 58 57 59 60 58 55 53 51 53 48 43 41 41 42 43 55 55 54 55 55 55 56 55 54 53 53 52 54 54 53 52 52 53 53 52 52 51 49 49
53 54 55 57 58 58 58 58 57 56 56 55 54 52 51 52 54 53 53 55 55 56 58 56 55 55 54 53 52 52 51 52 51 53 54 54 53 53 52 51 51 51 51
51 52 54 56 56 58 58 58 58 56 57 57 57 56 48 57 56 56 55 56 56 56 55 54 52 52 51 51 49 48 47 47 47 47 48 48 47 47 47 48 50 49 48
51 52 52 55 55 54 57 58 58 59 58 58 57 53 47 56 55 54 52 53 54 52 52 49 47 47 47 47 47 46 45 44 44 45 46 46 45 45 45 44 43 43 44
51 53 53 53 54 54 54 56 57 58 59 58 57 56 56 55 53 53 53 53 52 49 47 46 45 44 44 44 44 43 42 41 41 42 43 44 43 42 42 42 42 41 40
51 51 52 51 52 52 53 53 54 53 58 57 56 54 53 52 51 50 51 49 48 48 47 44 40 36 34 34 33 33 34 33 32 32 35 39 41 41 42 41 42 41 40
51 52 52 50 51 52 51 51 51 52 53 51 51 52 51 51 51 50 49 48 47 46 42 36 34 32 31 31 30 28 29 29 28 30 34 37 37 36 40 40 40 40 38
51 52 52 51 53 53 53 53 51 52 53 53 52 53 52 50 49 49 48 47 45 40 35 34 32 30 29 27 26 28 29 28 28 30 33 26 24 24 25 26 24 27 28

GFSGL_sfc_dewp_084.txt.gz
Dewpoint
69 70 69 69 69 69 68 68 68 67 68 68 68 68 68 67 68 68 67 68 67 67 67 66 66 66 67 68 68 67 67 66 64 63 64 65 66 66 65 65 65 66 66
69 70 70 70 69 69 69 69 68 68 68 68 68 68 68 69 69 68 68 68 67 66 66 66 66 67 67 68 66 66 66 66 64 62 63 63 64 65 63 62 62 64 64
69 69 70 70 69 69 69 69 69 68 67 67 67 67 67 68 68 68 68 67 67 67 66 66 67 66 67 67 67 66 66 66 65 63 62 63 63 63 61 61 61 62 63
69 69 69 69 70 70 69 69 69 68 67 67 67 67 67 68 68 67 67 67 67 65 66 66 66 66 67 67 67 67 66 66 65 63 62 62 63 63 62 59 58 59 61
68 69 68 69 70 69 69 69 68 68 67 67 67 67 66 66 65 67 66 66 65 64 65 66 65 66 65 66 66 67 66 64 64 62 61 61 61 61 60 61 59 59 59
64 64 63 68 69 69 68 67 67 67 67 67 67 66 66 65 62 62 65 65 65 64 64 65 66 66 65 63 64 64 66 65 63 62 61 61 62 62 61 61 59 58 58
62 62 63 64 68 67 67 66 66 66 66 66 67 66 66 66 60 60 62 64 64 64 65 65 64 64 63 64 63 63 63 62 62 63 61 61 62 64 63 61 60 60 60
60 60 63 64 67 66 65 65 66 66 65 66 66 65 66 66 60 57 60 64 63 64 63 64 65 64 63 64 66 65 64 64 64 62 63 63 63 63 63 62 62 61 59
61 60 62 67 66 65 64 64 65 65 65 66 64 63 64 65 58 55 59 62 61 62 63 64 64 64 60 59 65 65 65 64 59 60 59 59 59 59 62 62 60 59 58
64 65 66 69 66 65 65 64 65 64 64 63 63 62 59 63 56 54 58 61 60 62 63 64 60 62 56 56 64 64 63 62 64 64 63 61 60 60 59 63 61 60 60
64 63 63 66 66 66 63 62 60 62 62 61 60 61 61 61 63 53 55 62 61 61 62 62 64 55 52 51 56 64 63 63 61 62 62 62 62 61 61 62 63 61 60
63 61 60 60 63 64 63 62 61 61 60 60 60 60 61 62 58 52 53 57 59 61 62 63 61 50 49 50 56 55 52 58 63 62 61 61 62 61 62 61 62 62 63
61 61 59 58 59 60 61 61 60 60 59 59 59 60 60 64 64 53 53 55 55 60 62 59 54 48 48 51 50 49 52 57 60 61 62 62 62 62 63 62 62 63 62
57 59 60 59 58 60 59 60 60 59 59 59 60 61 63 64 61 58 57 58 56 59 56 56 54 54 54 54 53 53 55 55 55 55 56 57 55 55 59 62 60 60 60
56 56 58 59 60 61 61 57 58 60 57 60 61 62 63 62 60 55 56 59 60 58 56 57 57 57 57 57 58 57 57 56 54 53 52 52 51 52 54 57 59 60 60
55 56 56 57 58 60 61 57 47 46 44 43 46 55 62 53 50 49 48 48 48 50 59 59 58 59 59 59 59 59 59 57 57 56 55 55 57 57 58 59 58 57 57
55 56 56 56 58 58 59 60 59 51 44 42 41 44 50 51 47 46 47 47 46 51 60 59 60 59 59 59 61 60 59 60 60 57 57 57 58 58 57 57 57 57 56
54 52 56 57 58 58 58 60 59 57 56 52 46 44 45 45 44 45 45 47 53 56 60 60 59 59 59 59 59 58 57 57 56 56 55 55 55 55 55 55 54 54 53
53 55 55 57 58 57 59 59 56 54 52 52 52 47 46 44 44 43 46 59 58 57 57 58 58 59 58 57 57 56 56 56 56 55 55 56 56 55 53 53 53 49 51
54 53 53 56 57 57 58 57 57 56 55 55 54 53 54 55 55 55 56 57 57 57 57 57 57 57 55 55 55 54 54 54 55 55 54 54 54 53 51 52 52 52 52
53 53 53 55 56 57 59 58 57 57 57 56 56 54 48 57 56 56 57 57 58 57 56 56 55 54 54 54 53 52 51 50 51 51 51 51 52 51 51 52 50 48 48
52 53 54 53 55 56 57 59 58 58 58 57 56 52 48 56 55 54 55 55 55 54 53 52 51 50 50 49 49 48 47 48 49 50 50 50 50 49 49 48 48 46 45
52 52 53 53 54 54 55 57 58 58 58 57 57 56 55 54 53 53 52 52 51 50 50 49 46 45 45 45 45 46 45 45 45 47 48 48 48 47 48 47 47 46 46
52 52 52 52 53 54 54 55 57 53 57 57 56 55 54 54 53 53 52 50 49 47 44 42 41 39 37 35 35 34 34 34 35 36 41 45 45 44 45 45 45 44 43
52 53 52 52 53 52 52 53 55 54 54 54 53 53 53 53 52 51 48 46 43 38 36 35 34 34 34 33 32 31 30 29 33 33 39 40 40 42 42 41 42 39 36
51 52 52 53 53 54 54 53 53 52 53 53 53 53 53 51 50 48 47 44 37 35 34 34 34 33 31 28 28 30 29 29 33 32 30 30 29 28 27 27 27 25 27

GFSGL_sfc_dewp_087.txt.gz
Dewpoint
71 71 71 71 71 72 72 71 71 72 71 71 72 71 71 70 69 68 68 67 68 68 68 68 69 70 66 67 70 70 69 68 65 66 66 67 67 67 67 68 67 68 66
71 71 71 71 71 71 71 71 71 72 71 70 71 71 70 70 69 70 69 69 69 69 68 68 67 65 67 68 67 69 68 69 67 65 64 64 66 66 66 64 64 66 66
71 71 71 70 71 72 72 72 72 72 71 69 70 70 70 70 70 70 70 68 68 68 68 68 68 69 69 70 69 68 67 67 66 64 64 66 66 64 63 62 62 63 65
71 70 71 70 71 72 72 72 72 72 71 70 70 70 70 69 69 69 70 69 68 68 68 68 68 68 69 69 68 69 68 67 68 67 66 65 65 64 63 60 59 61 62
70 71 70 71 71 72 72 72 72 72 71 71 70 70 70 68 66 68 69 68 68 68 68 67 67 67 66 67 66 68 68 66 65 65 64 63 63 62 60 61 59 59 61
70 67 69 69 69 68 69 71 72 72 72 71 70 69 69 67 62 63 67 67 68 68 67 67 66 66 65 64 64 65 66 66 66 64 64 63 63 63 62 61 61 59 59
65 66 66 67 67 66 66 67 70 72 72 71 71 70 69 69 60 60 63 66 67 67 68 67 65 63 66 66 63 63 63 63 64 67 65 65 65 64 64 62 61 62 62
64 64 64 65 65 65 64 66 67 69 72 72 71 70 70 69 60 58 60 68 68 67 67 67 67 67 66 65 66 66 66 65 66 64 66 66 66 66 65 64 62 61 59
64 65 66 65 65 65 65 66 67 69 71 71 70 68 68 69 58 57 61 68 67 67 66 66 66 66 62 59 66 65 65 65 60 60 60 60 60 60 63 64 61 59 58
64 66 65 66 68 68 66 67 68 69 69 69 67 66 63 66 59 55 58 65 66 64 67 67 61 64 56 57 67 66 66 66 65 65 64 61 62 61 60 65 62 61 61
64 65 64 64 66 67 67 66 65 64 64 65 64 65 66 64 64 53 54 64 65 66 66 64 63 57 52 52 56 69 65 64 63 66 64 63 64 63 63 64 64 63 61
62 64 64 63 63 65 65 64 63 63 63 62 63 63 62 64 58 56 52 54 62 67 66 67 63 53 50 50 55 55 54 59 63 62 61 61 61 62 62 64 65 64 63
60 61 63 64 63 63 63 63 62 64 63 63 62 62 61 61 62 54 51 52 55 66 68 64 54 48 48 51 52 51 53 63 63 63 61 61 62 64 65 65 64 65 65
58 58 59 60 60 64 63 63 63 62 62 61 60 59 60 61 64 66 59 56 56 62 59 61 56 55 55 56 55 56 59 59 59 59 62 64 62 60 64 63 62 61 60
59 59 58 57 59 61 63 63 61 62 60 60 59 61 61 63 64 57 56 59 61 59 61 60 59 59 59 58 58 57 57 57 55 56 55 56 55 56 57 58 58 59 57
54 55 56 58 59 60 60 61 49 48 45 44 43 49 61 54 49 47 47 48 49 50 59 61 60 60 60 59 58 57 59 57 58 58 57 57 56 57 57 57 57 57 57
55 56 56 56 59 59 59 61 61 47 43 43 43 42 42 46 44 45 45 45 47 52 60 60 61 62 62 62 62 62 61 61 61 59 58 58 59 59 59 59 59 57 57
55 52 55 55 57 60 59 60 59 58 57 55 47 44 42 42 44 43 43 47 53 57 61 60 60 61 60 60 61 61 61 60 59 58 59 58 59 58 57 56 56 56 55
53 53 54 55 57 58 60 60 58 57 56 55 54 48 44 41 42 42 44 58 59 60 61 60 60 61 61 60 59 59 59 57 56 56 57 56 55 55 54 53 53 51 52
54 54 53 55 56 57 58 58 58 57 57 57 57 56 56 55 56 56 59 59 58 59 59 59 59 60 58 57 57 57 55 55 55 54 54 54 53 52 51 51 51 51 51
52 52 54 54 54 56 57 59 58 57 57 57 57 55 46 57 57 57 58 58 57 57 58 58 58 57 56 55 55 55 54 54 54 54 53 53 52 50 51 51 50 48 47
52 52 52 53 54 55 57 60 58 58 58 57 57 54 47 58 56 55 55 56 55 55 56 55 55 56 56 55 54 53 53 52 52 51 51 48 46 45 45 44 43 41 40
52 53 53 53 55 55 56 56 59 58 58 57 56 55 55 54 54 54 53 53 53 53 52 51 51 51 50 50 50 50 50 50 49 48 47 46 46 45 44 43 42 42 42
52 53 53 54 54 54 54 56 58 54 57 56 55 55 54 54 53 52 50 50 49 49 50 48 47 43 42 41 42 43 44 45 48 48 47 45 45 44 44 43 42 42 40
52 53 53 54 54 54 54 54 56 56 56 55 54 55 55 55 53 52 49 49 47 44 41 38 37 37 37 36 36 35 33 31 37 37 43 45 44 46 43 42 42 41 40
51 52 53 53 54 55 55 55 54 54 55 56 55 54 53 51 50 49 42 38 36 35 36 36 37 38 36 34 34 32 30 31 37 34 38 39 38 37 36 36 36 31 30

GFSGL_sfc_dewp_090.txt.gz
Dewpoint
73 73 73 72 71 71 71 72 71 72 72 72 70 70 71 71 70 70 69 67 68 68 69 69 70 71 72 73 72 72 70 69 66 67 70 69 69 69 69 69 68 70 67
73 74 72 72 71 70 71 72 72 72 72 72 70 71 70 70 70 70 69 67 67 68 68 68 68 66 69 69 65 72 72 67 64 67 68 67 68 69 68 67 68 68 68
73 72 71 70 70 70 71 72 72 72 72 71 69 70 69 69 70 70 70 68 68 68 68 68 68 69 70 70 67 70 69 70 69 64 64 64 66 67 64 63 64 65 66
66 71 70 70 70 69 72 73 72 72 72 71 70 70 69 69 69 69 69 69 68 68 68 68 67 67 68 70 70 70 70 69 69 70 70 65 65 66 65 62 60 63 64
63 64 72 71 71 71 72 72 73 72 72 72 70 70 70 68 66 68 68 68 68 68 68 68 67 67 67 67 64 70 70 69 66 65 65 66 65 64 63 63 61 61 62
69 70 71 72 72 72 73 73 73 72 72 72 71 70 69 65 62 63 66 67 68 67 67 68 67 66 66 65 65 65 67 68 66 60 60 63 65 64 63 61 60 59 59
67 70 70 71 72 73 72 71 70 70 71 72 72 71 70 69 62 61 63 67 66 66 67 67 65 61 65 65 64 63 64 63 65 68 67 66 68 67 64 62 61 61 62
65 65 67 68 69 70 69 69 70 69 70 71 71 73 72 70 61 59 61 68 67 67 67 68 68 67 66 65 65 65 65 66 67 64 68 68 69 69 67 65 64 62 62
63 64 64 66 66 68 67 68 68 68 69 70 70 72 72 72 60 58 62 68 68 68 68 68 67 68 62 60 65 66 66 67 61 61 62 62 62 62 65 64 61 60 58
65 66 66 67 68 68 69 69 69 69 69 68 70 70 66 70 60 56 60 66 69 69 71 71 62 65 58 57 65 68 65 66 65 65 64 62 63 63 61 66 63 60 61
64 66 66 67 67 69 70 70 69 69 68 68 68 68 69 68 68 54 54 63 62 65 68 68 70 59 54 54 56 66 68 68 65 67 67 64 65 64 64 65 66 67 61
62 63 64 65 66 64 67 67 68 67 65 65 65 64 65 67 60 57 54 54 60 63 65 66 68 55 51 51 56 56 56 60 62 66 66 60 61 61 62 64 66 66 66
61 61 62 63 64 65 65 65 63 65 64 64 64 64 64 65 66 56 53 53 54 59 62 63 58 52 49 52 53 53 54 61 60 62 59 64 67 60 64 65 65 67 67
60 60 61 61 61 62 62 63 62 61 61 61 61 60 59 59 60 61 61 60 54 58 59 64 60 60 58 60 58 58 61 59 60 59 58 63 66 69 68 68 62 62 63
56 58 58 58 59 59 61 63 63 63 61 62 61 61 59 60 60 58 60 64 63 59 63 62 61 62 63 62 61 60 59 59 58 59 60 62 62 63 65 66 65 60 58
54 51 54 55 56 58 59 59 53 50 46 45 44 47 58 53 49 47 47 48 50 50 62 61 60 62 63 60 59 59 59 58 57 57 57 56 56 56 58 59 60 59 57
55 54 52 53 53 56 58 59 60 57 45 43 42 43 41 43 42 43 43 44 46 51 61 61 62 61 61 61 61 59 59 59 62 59 59 60 60 57 57 60 62 60 61
55 51 51 51 53 54 55 59 57 57 57 57 49 47 46 41 41 41 42 46 53 55 62 61 62 63 63 63 64 64 62 61 62 60 60 59 59 58 58 57 58 58 56
52 51 51 50 52 54 56 59 58 57 57 57 57 52 47 40 40 41 43 59 58 60 61 61 62 61 61 62 61 61 60 61 60 60 59 58 58 58 58 56 56 52 53
52 53 52 51 51 53 55 58 58 58 58 58 59 58 58 54 55 53 56 59 59 60 61 61 61 61 60 59 59 60 58 58 58 58 57 58 57 56 53 52 52 52 53
49 49 52 50 48 50 54 59 59 58 56 58 57 55 45 58 58 58 58 58 58 58 58 58 58 58 59 59 59 59 58 57 57 56 55 54 53 52 52 52 51 51 49
49 49 49 48 49 49 52 58 60 58 57 57 57 56 47 56 57 56 56 56 57 57 58 58 58 58 58 58 58 58 58 57 57 56 54 52 51 50 48 47 45 43 43
49 49 49 49 51 53 55 58 59 59 58 57 58 56 56 57 55 55 55 56 57 57 58 57 57 57 57 58 59 58 55 53 52 52 49 46 43 42 41 40 39 39 38
51 52 50 50 56 53 55 56 57 54 58 56 56 55 54 53 53 52 52 52 52 52 54 54 54 52 53 52 52 51 51 51 50 48 47 43 42 42 41 41 39 40 39
50 53 52 52 53 56 55 55 57 58 56 55 56 56 55 54 52 52 51 51 53 52 50 48 46 45 45 44 45 44 37 32 46 42 44 44 43 44 41 39 40 38 39
48 49 50 51 53 54 56 56 57 57 56 56 56 55 53 52 51 50 50 51 49 46 45 43 43 42 40 38 37 34 31 32 38 33 41 41 41 40 39 40 40 35 34

GFSGL_sfc_dewp_093.txt.gz
Dewpoint
74 75 75 73 73 73 72 73 73 72 74 72 70 70 70 71 71 71 70 68 69 69 70 70 70 71 69 72 72 73 73 71 69 70 73 71 69 70 70 71 71 70 67
73 74 74 74 73 72 72 72 74 73 74 73 71 70 70 71 71 69 68 67 67 67 68 68 68 67 70 72 69 72 72 72 71 69 71 71 70 70 71 69 69 68 69
68 69 69 67 72 72 72 72 73 72 73 72 72 70 69 68 71 71 69 68 68 69 69 70 69 70 71 73 70 72 69 72 71 70 70 70 65 68 66 65 65 66 66
67 66 65 65 65 69 73 74 73 73 72 72 73 70 69 68 68 71 70 69 71 69 70 69 69 69 70 71 71 70 71 70 68 70 69 71 68 67 66 64 63 64 64
68 66 65 66 66 67 72 73 73 73 72 73 72 72 72 67 64 70 70 69 70 69 70 68 67 69 68 68 69 72 72 68 64 64 66 69 68 66 64 64 64 63 63
68 67 65 65 65 65 71 73 73 74 74 73 72 71 71 65 62 64 66 67 70 68 69 68 69 68 66 66 66 66 69 69 70 70 68 62 68 65 66 65 62 60 59
69 69 67 66 64 65 71 72 73 73 75 74 72 71 70 70 62 62 64 67 66 70 70 70 67 62 66 66 65 64 64 64 65 69 67 66 68 68 66 63 61 60 61
66 68 69 69 69 71 71 73 73 75 72 71 71 74 72 71 60 60 62 69 69 68 69 70 68 68 68 66 68 66 65 65 65 62 67 68 69 70 68 65 63 63 62
64 65 66 66 67 68 70 70 71 72 70 70 71 73 73 72 61 59 62 69 68 68 68 68 68 68 65 61 65 68 67 68 61 63 62 63 64 65 66 65 62 61 59
66 66 66 68 68 69 69 68 69 70 70 68 70 71 68 73 61 57 61 66 67 64 70 70 63 66 61 58 67 67 68 66 65 65 66 62 63 64 62 67 63 61 60
64 66 66 67 67 68 69 71 71 71 70 70 70 71 71 70 69 55 55 67 64 64 63 64 66 59 55 54 58 67 66 70 67 68 64 63 63 66 64 66 66 62 61
62 64 64 65 65 66 67 67 67 68 68 67 68 68 68 69 62 57 55 56 63 64 63 65 68 56 53 53 56 57 57 61 70 66 63 67 62 62 63 66 68 69 70
62 62 62 63 63 65 65 66 64 66 65 65 63 63 63 64 66 58 54 54 55 62 63 60 56 52 52 53 54 54 56 64 62 64 62 64 69 63 68 69 69 69 69
59 61 62 62 61 62 61 61 61 61 62 61 61 61 60 62 63 62 61 62 57 59 60 61 60 58 58 61 59 58 63 62 60 62 59 65 64 70 69 69 69 67 67
58 56 58 55 60 61 61 60 59 62 60 61 61 62 62 61 59 50 52 60 65 61 61 62 62 65 64 64 63 63 63 65 65 64 66 66 68 69 68 68 69 68 63
56 51 51 51 51 55 57 61 55 54 51 47 45 50 57 52 47 45 43 43 45 48 61 64 64 64 65 65 64 63 64 63 63 61 63 65 67 66 64 68 66 66 65
56 55 50 49 49 52 53 54 57 57 48 45 44 44 42 45 43 43 42 42 43 45 57 62 63 64 65 63 63 63 63 64 64 66 67 65 64 61 60 63 62 60 61
55 52 51 49 48 48 51 54 57 56 55 56 48 48 47 43 41 41 41 42 56 51 59 62 63 63 63 63 63 62 63 63 64 65 63 61 60 60 60 62 62 61 59
51 50 50 49 48 49 52 56 57 56 56 56 57 51 51 43 41 40 40 59 60 59 61 62 63 63 63 63 62 62 61 62 62 62 62 62 60 59 58 58 58 54 55
51 53 52 50 48 48 49 58 56 57 57 56 56 57 58 57 57 55 56 59 59 60 62 61 61 61 61 60 60 60 60 60 61 61 61 60 61 58 57 56 55 55 55
47 47 52 47 46 46 46 50 58 58 57 56 59 55 47 58 57 57 58 58 59 59 60 60 60 60 60 59 59 59 59 59 59 59 60 60 60 57 55 54 53 54 53
48 47 48 46 46 46 49 51 56 60 57 57 55 54 49 56 57 57 56 57 57 58 58 58 58 58 59 59 58 58 58 58 58 58 58 58 56 54 53 52 52 51 49
49 51 50 51 54 53 53 53 58 59 58 57 57 56 55 55 55 54 55 57 57 57 59 57 57 58 58 59 59 58 58 59 59 58 57 55 54 52 51 50 48 46 43
47 53 49 50 52 52 55 55 55 54 57 58 56 55 54 53 53 53 53 53 54 57 57 58 58 58 59 59 59 58 56 57 57 55 53 48 47 44 45 43 40 40 40
44 45 45 46 47 49 55 55 56 57 56 56 56 56 55 53 53 52 53 55 56 56 54 52 53 54 54 53 53 49 39 35 50 45 49 48 46 47 42 40 40 40 39
43 43 43 48 48 46 50 53 57 57 57 56 56 55 54 53 53 53 53 54 53 50 49 49 49 49 48 48 47 37 33 33 40 37 44 46 43 43 41 41 40 38 39

GFSGL_sfc_dewp_096.txt.gz
Dewpoint
75 75 76 76 75 74 73 72 73 76 75 73 73 73 72 73 73 73 73 72 71 71 71 71 71 71 69 69 70 69 68 68 67 68 71 71 69 70 69 71 70 69 67
75 75 74 69 74 73 72 73 73 74 75 73 73 73 73 73 73 72 71 69 70 70 70 69 70 71 71 71 71 70 69 70 69 67 70 70 69 70 70 69 69 69 68
69 68 66 67 65 66 69 71 73 73 73 73 73 72 72 72 72 71 71 70 71 70 70 70 69 69 70 70 70 70 70 71 70 69 68 70 69 69 67 67 66 66 66
68 67 65 65 66 66 69 69 71 71 72 73 73 73 72 71 72 71 71 71 71 71 71 70 69 69 70 69 70 70 70 69 69 69 69 69 68 68 65 63 62 64 64
68 66 66 65 65 65 65 68 70 72 72 72 72 73 72 71 67 72 71 71 71 70 71 70 69 69 70 70 70 70 70 69 69 67 67 67 67 66 65 64 63 63 63
67 67 66 65 64 63 63 67 71 71 72 72 72 72 71 68 63 66 70 70 71 71 71 71 71 69 68 66 66 66 69 69 68 67 67 66 66 66 66 64 63 60 59
67 68 67 67 67 67 68 69 70 72 73 72 71 71 71 71 63 62 65 70 70 71 71 70 69 65 67 68 65 65 65 64 66 68 67 66 66 67 66 65 62 61 61
67 68 69 68 68 67 68 69 70 71 71 70 70 70 72 71 61 60 62 71 70 71 71 71 70 69 70 68 69 66 66 66 66 64 66 68 69 69 67 64 62 63 64
66 67 67 68 68 68 67 68 69 69 68 69 71 73 72 71 61 59 63 70 70 70 70 70 70 69 66 62 68 68 68 67 62 62 61 63 64 66 67 65 63 61 59
65 66 68 69 68 68 69 68 68 68 68 69 68 71 69 71 62 58 62 69 69 68 70 71 64 67 62 59 67 69 68 67 67 65 64 63 64 65 62 65 63 61 60
64 65 65 66 67 69 68 70 69 69 69 70 70 71 71 70 71 57 57 69 68 68 66 67 68 59 57 54 57 69 67 68 66 68 66 66 65 66 66 67 64 62 60
64 64 63 64 64 65 67 68 69 69 69 69 68 67 68 71 63 58 54 56 64 68 67 68 67 55 54 54 56 59 57 61 68 67 67 64 64 64 65 66 68 65 64
63 64 65 63 62 65 66 67 65 68 68 68 66 66 66 66 70 59 55 55 56 62 67 64 55 54 51 53 54 55 55 65 67 67 66 65 67 66 67 67 68 67 67
62 63 64 66 63 65 64 62 62 62 63 63 62 62 63 64 63 59 61 64 57 61 62 65 62 58 58 60 60 57 64 66 67 66 64 66 67 66 66 67 66 66 65
60 60 61 59 62 64 64 64 63 64 62 62 61 62 62 61 61 51 51 56 57 55 54 63 64 63 62 62 63 64 64 66 66 65 66 65 65 65 65 66 66 66 64
58 55 55 53 51 54 61 62 55 54 52 49 46 52 59 53 48 44 43 42 43 45 57 61 62 64 64 65 64 64 64 64 66 64 64 64 64 64 64 64 65 64 62
59 58 54 54 53 56 55 58 59 60 50 48 45 44 43 46 43 42 42 41 42 44 57 59 61 62 63 64 65 65 64 65 64 63 62 62 64 63 63 63 62 62 61
59 53 54 54 51 51 51 56 54 58 58 60 48 48 44 42 42 41 41 41 51 48 57 59 60 62 62 63 64 64 64 63 63 62 62 62 63 62 61 61 61 60 60
54 52 53 51 51 51 52 52 54 59 59 59 60 50 49 46 43 41 40 49 58 59 60 60 61 62 63 63 64 63 63 62 62 62 62 61 61 60 59 59 58 55 56
53 55 53 53 51 51 50 55 56 60 62 60 57 57 56 56 58 57 56 57 59 59 61 61 62 63 63 63 62 61 60 60 60 61 60 60 61 60 59 58 58 57 58
48 50 54 51 50 52 53 55 62 60 61 61 61 54 47 57 57 57 57 57 57 58 60 61 61 60 61 61 61 60 60 60 60 60 59 59 59 58 59 58 57 56 56
49 48 49 49 52 52 53 54 56 59 57 58 58 55 48 56 56 56 57 57 58 58 58 58 58 58 59 59 59 59 59 58 58 58 58 58 58 57 56 55 54 54 53
47 49 49 50 51 53 53 54 55 57 59 57 56 55 55 55 55 54 55 55 57 58 58 58 58 58 58 58 59 59 58 57 58 58 57 57 56 56 56 55 54 53 51
45 48 45 51 52 52 52 52 55 54 56 57 55 55 55 55 54 53 54 55 56 57 57 57 57 58 58 58 58 59 59 59 59 58 57 56 55 52 53 52 50 48 44
44 45 42 45 49 48 46 52 57 57 55 57 55 55 55 54 54 53 54 56 57 56 54 55 57 58 58 58 58 54 43 42 55 50 52 50 48 49 47 46 46 46 45
44 44 45 45 43 45 44 51 52 57 58 59 58 55 54 54 53 53 54 54 53 51 51 52 52 53 53 53 46 37 34 33 40 36 51 50 48 47 46 45 45 44 41

GFSGL_sfc_dewp_099.txt.gz
Dewpoint
72 72 72 72 72 65 66 71 71 71 72 72 72 71 71 71 70 70 70 69 69 69 69 69 68 68 68 68 67 66 66 66 64 65 68 68 68 68 69 69 68 66 66
73 70 70 69 65 64 65 65 69 71 71 71 72 71 71 70 70 70 69 68 69 68 68 68 68 70 68 68 68 67 67 67 66 64 66 67 67 67 67 67 68 68 65
69 67 67 66 66 65 66 64 64 65 70 70 70 69 70 71 70 70 69 68 68 68 68 67 67 68 67 67 68 68 68 68 68 67 66 67 66 65 66 66 66 65 65
67 66 66 66 66 66 66 65 64 63 68 70 71 70 70 70 70 69 68 68 68 68 68 68 67 67 66 67 67 66 67 66 66 65 65 65 65 65 65 63 63 64 64
66 65 65 66 65 66 64 64 63 61 66 70 71 71 70 69 69 69 68 68 68 68 68 68 68 68 67 67 67 66 66 66 65 65 64 64 63 64 62 62 61 63 63
66 66 65 64 64 64 64 63 64 69 70 70 70 70 70 70 65 66 68 68 69 68 67 68 67 68 67 66 67 68 67 66 65 64 63 63 63 63 63 62 62 61 59
66 67 65 64 63 62 65 66 66 68 68 68 69 69 69 69 64 62 66 68 68 69 69 69 68 67 66 66 64 65 66 66 66 66 63 63 63 64 65 63 61 61 60
66 66 66 65 65 65 64 65 64 66 68 68 68 68 68 70 64 61 62 68 69 69 68 69 67 66 66 66 65 64 63 63 64 65 65 64 65 65 66 64 62 62 63
64 65 66 66 66 65 64 64 65 67 66 67 68 68 68 68 63 59 61 65 67 68 68 69 68 67 64 62 67 65 64 64 62 61 61 62 62 63 64 63 62 61 60
63 64 64 66 66 65 65 65 66 66 66 68 67 66 65 68 64 57 59 66 67 67 68 68 64 66 61 59 65 66 65 65 64 61 61 61 63 63 61 63 62 61 59
62 63 63 64 64 65 65 66 66 66 66 66 66 67 68 68 67 57 57 67 68 67 67 67 68 60 57 55 58 66 65 66 64 63 63 63 63 64 64 64 63 61 60
61 61 61 61 62 64 63 64 64 66 64 64 65 66 67 67 63 57 55 56 63 67 67 67 63 55 52 51 54 59 58 61 66 65 64 64 63 64 65 65 63 62 62
59 59 60 61 60 62 62 63 63 63 63 63 63 63 64 65 63 55 53 52 54 59 65 63 56 54 53 55 53 54 54 63 64 64 64 64 64 64 65 65 65 64 63
57 57 58 59 60 59 61 61 59 59 60 61 60 60 61 62 59 57 57 58 57 59 60 62 62 59 58 60 60 57 60 64 65 65 64 65 65 64 64 65 64 65 64
56 56 55 54 54 60 61 60 60 60 59 59 59 59 58 59 57 51 51 54 54 53 50 59 60 61 61 59 59 61 61 63 65 65 64 64 63 63 63 65 64 64 62
56 55 55 54 52 52 54 60 57 54 51 50 47 53 57 52 49 44 42 43 43 44 51 56 59 61 62 62 62 61 62 62 64 65 64 64 63 63 63 64 64 63 62
56 55 55 54 54 52 51 54 57 57 50 48 45 45 45 48 44 42 41 41 41 42 47 54 57 59 61 62 63 63 63 64 64 64 63 63 63 63 62 62 62 61 59
55 53 53 54 53 51 50 52 53 56 56 57 47 48 44 43 41 41 41 41 48 45 49 55 57 59 60 61 62 63 63 63 63 63 62 63 63 62 62 61 61 60 59
55 54 53 53 52 52 51 50 51 55 56 57 55 48 48 43 42 45 41 50 53 57 57 56 58 59 60 62 63 63 63 63 63 62 62 62 62 61 60 60 60 56 57
52 53 52 52 52 53 53 53 53 57 57 57 56 55 54 53 55 55 56 57 57 57 58 59 60 61 62 62 63 62 62 61 62 62 61 61 60 60 59 59 59 58 58
50 50 53 52 52 54 54 55 58 57 57 57 54 53 46 54 55 57 56 57 56 56 56 57 59 61 61 60 61 61 61 61 62 61 61 61 60 59 59 58 58 58 58
50 50 50 51 52 52 53 55 56 58 57 56 54 53 46 53 54 54 55 55 56 57 58 57 57 57 58 58 60 61 60 60 60 60 59 59 59 58 58 57 57 57 56
49 48 49 49 51 52 53 55 54 56 56 56 55 53 53 55 54 54 54 55 56 56 57 57 57 57 58 58 58 58 57 57 58 59 58 57 57 57 57 56 56 55 54
45 45 46 47 50 49 50 52 55 53 55 56 55 53 54 54 53 54 54 55 56 55 55 56 57 57 57 57 57 58 58 58 58 58 57 57 56 55 56 55 55 54 50
40 45 47 49 48 47 47 54 55 55 55 55 55 55 54 54 53 52 54 54 56 54 54 53 55 56 56 57 56 55 47 43 55 50 56 55 55 54 54 53 52 47 42
41 42 43 46 47 45 45 52 55 55 55 55 55 55 54 53 53 52 53 54 51 50 52 52 52 53 55 51 49 41 38 38 48 42 52 51 50 46 44 45 45 43 41

GFSGL_sfc_dewp_102.txt.gz
Dewpoint
72 71 70 71 68 68 67 66 67 69 70 70 71 71 71 71 71 70 69 69 69 68 69 68 68 68 68 68 66 65 65 65 64 64 67 68 68 68 69 68 69 68 68
69 69 68 66 66 66 65 65 66 66 67 70 71 71 71 70 70 70 69 69 68 67 68 67 67 69 67 67 66 65 65 65 64 62 65 67 66 67 66 66 67 66 65
70 67 66 65 66 66 66 65 66 67 67 67 68 70 70 70 70 70 69 68 68 68 68 67 67 67 66 66 67 66 67 66 66 64 64 66 66 66 66 66 66 66 65
67 66 65 64 64 65 65 66 66 66 66 66 65 69 70 70 69 69 69 68 67 68 68 67 67 66 67 66 66 67 67 66 66 66 64 64 64 65 64 64 63 64 64
66 66 66 65 66 66 65 65 65 63 62 64 63 69 69 69 70 69 68 68 67 67 68 67 67 67 66 66 67 66 66 65 64 63 63 63 63 64 64 63 63 63 64
64 64 65 65 65 65 66 65 65 64 64 64 68 69 68 70 65 65 67 67 67 67 67 67 67 67 66 64 65 65 66 65 64 63 62 62 62 63 63 62 61 61 60
65 64 64 63 63 63 64 64 64 64 67 68 68 68 67 68 63 62 64 68 68 67 67 67 67 67 66 66 64 64 64 64 64 65 62 62 62 63 63 61 60 61 61
64 64 64 63 63 62 64 64 65 65 65 66 67 68 68 68 62 61 62 67 67 68 68 68 67 67 66 66 66 64 65 66 66 66 65 64 64 64 65 64 62 62 62
62 63 64 64 64 63 63 63 63 64 65 65 67 67 67 68 62 59 61 65 66 67 67 67 68 67 63 61 65 64 63 63 62 60 62 61 61 61 63 63 61 61 60
62 62 63 64 64 63 63 63 63 64 64 66 66 66 64 67 60 58 59 66 65 66 66 66 63 65 61 58 64 65 64 64 63 62 61 61 60 61 61 64 63 61 60
61 61 61 61 62 63 63 64 63 63 63 64 65 65 66 65 66 58 55 65 66 66 65 65 66 60 56 55 57 66 65 65 63 63 62 62 62 63 63 63 63 62 59
58 60 59 59 61 62 62 63 63 63 63 63 64 65 66 66 55 57 53 54 59 66 66 67 66 55 54 52 55 57 54 58 66 64 62 62 62 63 65 63 63 62 62
56 56 57 59 59 60 59 59 59 61 62 61 61 61 62 61 59 52 53 55 55 57 62 62 56 54 53 56 53 55 56 62 65 64 64 63 63 63 64 65 62 61 60
55 55 54 57 58 59 59 59 58 58 59 59 58 58 59 60 58 57 56 56 55 56 55 57 59 59 57 61 60 59 60 62 64 64 64 65 64 63 63 64 64 63 62
55 54 54 54 52 52 57 59 58 58 57 57 57 57 56 56 56 50 50 53 52 51 49 53 57 59 61 61 60 61 59 60 62 64 64 64 63 64 63 64 64 63 62
54 54 54 54 53 53 52 51 55 54 50 50 48 52 56 51 48 43 42 42 42 44 51 53 54 57 59 60 59 60 60 60 61 62 64 65 64 63 63 64 64 63 62
52 53 53 52 53 52 49 49 55 55 48 45 45 46 47 48 43 42 41 41 41 42 47 51 53 55 57 59 60 61 61 61 61 61 62 63 64 63 61 63 63 63 63
52 52 52 52 52 51 50 49 50 53 54 55 45 46 43 42 42 42 41 43 52 45 47 50 52 55 57 59 60 61 62 62 62 63 63 63 63 63 62 62 63 62 61
51 50 50 51 51 51 52 52 50 49 55 55 53 49 48 44 43 43 42 52 54 55 56 56 55 56 58 59 60 61 61 62 62 63 63 63 63 63 62 62 62 57 58
49 51 51 51 52 53 54 56 57 57 56 55 55 53 53 51 52 53 55 55 55 55 56 56 57 58 59 60 60 62 62 62 62 63 63 63 63 63 62 62 61 60 60
49 49 51 50 51 52 54 55 58 57 57 57 53 52 45 52 54 55 55 55 55 56 57 57 57 57 59 60 61 61 61 62 62 62 62 62 62 61 61 61 60 60 59
50 48 48 49 51 50 53 54 55 55 55 54 53 52 43 51 53 54 54 55 55 56 57 57 57 57 57 57 57 59 60 61 61 62 61 61 61 61 60 60 59 59 58
50 49 45 45 47 50 52 54 53 54 54 54 53 54 51 53 54 54 54 54 55 55 56 56 56 56 57 57 57 57 57 56 57 60 59 59 59 59 59 58 58 57 57
42 41 41 45 46 48 49 51 53 52 53 54 53 52 52 52 53 53 54 55 56 55 54 53 54 55 56 56 56 57 57 57 58 58 58 57 56 55 56 56 56 56 55
41 41 42 43 44 46 48 47 52 53 53 54 53 53 52 52 52 53 51 54 55 55 54 54 55 55 53 52 54 53 44 38 52 48 56 56 56 55 55 55 54 52 52
43 44 42 42 43 46 45 44 52 53 53 53 54 53 53 51 50 51 52 53 54 51 51 52 52 54 52 50 50 42 38 36 47 42 54 55 54 53 54 53 52 51 49

GFSGL_sfc_dewp_105.txt.gz
Dewpoint
64 67 70 68 67 66 66 68 70 70 70 70 70 71 71 70 70 70 70 69 68 68 68 67 67 67 67 67 66 65 65 65 65 63 64 67 66 67 69 68 68 68 68
67 67 66 65 65 65 65 65 66 67 70 70 71 70 71 70 70 70 69 69 68 67 67 67 67 68 66 66 66 65 64 64 63 61 62 66 66 67 67 67 66 66 66
67 66 64 65 63 64 64 66 66 67 67 67 69 70 70 70 70 70 70 69 68 68 67 67 67 66 66 65 65 65 65 65 64 63 62 64 64 65 66 67 66 65 65
67 65 64 64 62 63 63 65 66 68 68 68 67 68 69 70 70 69 69 68 68 68 67 67 67 66 66 66 66 66 66 66 66 65 65 63 64 66 66 64 64 65 64
64 64 63 63 64 64 64 64 66 67 66 66 66 67 68 69 70 69 69 69 68 67 67 67 67 67 67 66 66 65 65 65 65 64 64 62 64 64 64 64 64 63 64
65 65 65 65 63 63 65 65 65 65 63 63 63 65 67 69 65 64 68 68 68 67 66 66 67 67 66 64 65 65 66 65 64 63 62 62 61 64 64 63 63 61 61
64 64 64 64 65 65 64 65 65 65 65 65 64 64 66 68 63 61 64 68 67 67 66 66 67 67 66 66 64 63 63 63 64 64 62 63 62 63 63 62 63 62 61
65 65 63 63 62 62 63 64 64 64 64 65 66 65 64 65 61 60 62 65 66 67 67 67 66 66 66 66 66 64 64 64 64 65 65 64 64 64 64 63 63 62 61
62 62 63 63 63 62 61 62 64 64 64 64 66 66 67 67 58 58 61 64 65 66 67 67 67 66 64 61 66 64 64 63 62 61 62 61 61 60 63 62 61 61 61
60 61 62 63 63 62 62 61 62 64 64 66 65 66 64 66 59 57 61 66 65 65 65 66 62 66 60 58 64 64 64 63 63 63 61 60 60 61 61 64 63 62 60
60 60 59 60 61 61 62 63 63 62 62 62 63 65 65 65 64 56 55 65 66 66 66 66 66 58 56 54 55 65 64 64 63 63 63 62 61 62 62 64 64 63 59
56 55 58 58 59 60 60 61 62 62 62 62 62 63 63 61 56 54 55 55 57 65 66 66 65 56 53 51 53 56 54 57 64 63 62 62 62 62 64 63 64 64 63
54 54 54 58 58 58 58 57 58 60 61 60 59 60 60 60 60 53 51 54 56 60 62 61 55 53 51 54 53 53 53 60 63 64 64 63 63 64 64 64 63 61 60
54 53 54 53 52 53 58 58 57 57 57 57 57 58 59 59 58 58 57 55 54 55 55 54 55 54 54 58 60 57 60 61 63 64 65 66 63 62 63 64 63 63 62
53 53 52 53 52 52 52 54 57 56 56 56 57 57 56 55 55 49 50 52 51 50 48 52 53 55 58 60 62 63 63 62 62 63 64 65 64 64 63 64 64 63 62
51 52 52 52 52 52 49 48 54 52 47 46 46 52 55 51 43 43 41 41 42 43 50 53 54 54 54 56 59 60 60 60 61 61 62 63 64 64 63 63 63 63 62
50 51 50 50 51 51 50 48 50 54 47 44 44 45 46 44 42 43 43 42 42 43 49 50 52 53 54 55 56 58 59 60 61 60 61 62 63 63 62 63 62 62 62
50 49 49 50 51 51 51 50 49 49 50 53 45 46 43 41 42 43 42 44 51 47 49 51 52 54 54 55 57 57 59 60 60 61 61 61 62 62 62 61 62 62 62
49 48 49 51 52 52 53 54 52 50 50 53 52 46 45 41 42 43 42 53 54 54 55 55 56 56 56 57 58 59 60 60 61 61 62 62 62 62 62 62 61 57 59
50 50 50 50 51 51 54 55 55 55 55 56 56 54 52 50 51 51 52 53 55 55 56 56 57 57 57 57 58 59 60 60 61 61 62 63 63 63 62 62 62 61 61
51 48 50 47 48 50 52 54 55 54 54 54 53 51 45 51 53 54 55 55 55 55 55 56 55 55 57 57 57 57 59 60 61 61 62 62 63 62 63 63 62 62 61
51 50 48 45 45 47 48 53 53 53 53 53 52 51 44 50 52 54 54 54 55 56 56 55 55 55 56 56 56 56 56 57 59 60 61 61 62 62 62 62 62 62 61
51 46 43 41 42 45 46 49 52 52 53 54 53 52 51 51 51 53 53 54 54 55 53 54 52 53 55 56 56 56 55 56 56 57 59 60 61 61 61 61 60 60 60
44 42 41 41 43 43 45 47 49 49 52 52 52 52 50 50 51 51 54 52 52 53 53 53 52 52 52 52 53 54 52 50 55 57 57 57 56 54 56 56 59 59 59
43 43 42 42 42 42 43 45 48 49 52 52 52 52 51 51 50 50 51 51 52 54 55 54 54 55 53 52 52 51 44 36 47 44 56 55 55 55 55 54 54 54 53
43 44 43 43 43 43 43 44 46 48 50 53 53 53 52 51 50 50 50 50 50 53 52 51 52 53 54 52 48 42 38 36 45 38 53 54 54 54 54 54 53 53 52

GFSGL_sfc_dewp_108.txt.gz
Dewpoint
65 65 67 64 67 67 68 69 70 70 70 70 71 71 71 71 71 70 70 70 69 70 70 69 69 69 70 70 69 69 68 67 65 67 67 69 69 69 70 72 71 71 72
65 65 66 65 65 64 65 65 66 68 70 71 70 71 71 71 71 70 70 70 69 69 69 69 69 69 69 70 69 68 68 68 67 66 66 68 68 68 69 69 69 69 69
66 64 64 64 64 63 63 65 66 67 68 70 71 71 71 71 70 71 70 70 70 69 69 69 69 69 69 69 69 68 68 68 67 66 66 67 68 68 67 68 68 68 67
66 64 64 64 64 64 65 65 66 67 67 68 69 70 70 70 70 70 70 70 70 70 70 69 69 69 69 69 68 68 68 67 66 66 66 66 67 68 68 67 67 67 68
66 64 64 64 63 64 64 64 65 66 67 68 68 68 69 70 70 70 70 70 69 69 69 69 69 68 67 68 68 69 68 66 65 66 65 65 65 66 65 66 66 66 67
65 64 65 64 64 63 63 63 65 67 66 65 66 67 67 68 65 64 67 69 69 69 68 69 69 68 67 64 65 65 68 68 66 65 65 64 65 66 66 66 66 64 63
65 65 65 64 63 63 64 65 65 65 65 65 64 64 66 67 62 62 63 69 68 69 68 68 68 67 67 68 64 64 64 64 65 68 67 67 67 67 67 65 65 64 64
64 65 64 64 64 65 65 65 65 65 65 65 66 65 65 65 61 59 61 67 67 68 68 68 68 69 69 68 68 67 67 67 67 67 68 68 68 68 68 67 66 66 65
61 62 64 64 64 63 62 63 64 64 65 65 66 66 66 66 58 57 62 65 66 66 67 67 68 68 64 61 68 68 68 67 63 61 62 62 61 61 65 65 64 63 62
60 60 61 63 63 64 64 63 64 65 65 66 65 67 64 67 55 55 63 67 65 65 66 66 61 65 60 58 66 68 67 67 67 67 65 63 61 63 60 67 65 63 63
57 59 60 61 62 62 63 64 64 65 65 65 65 66 67 65 61 55 55 65 65 65 65 65 65 59 54 54 56 67 65 67 66 67 66 65 65 66 64 66 67 65 64
56 56 59 59 59 59 61 62 64 64 63 64 64 62 61 61 56 53 54 55 58 63 65 65 65 54 50 51 54 55 55 58 66 67 66 66 65 64 64 65 67 67 67
55 55 55 56 55 58 60 59 60 61 62 62 62 61 61 61 59 52 52 54 55 60 60 57 54 52 50 53 54 54 54 61 64 65 66 65 66 66 68 66 66 67 67
54 54 54 55 55 55 56 59 59 59 58 58 58 59 61 60 58 58 57 56 54 56 54 55 55 53 52 55 56 59 60 61 62 64 65 67 67 66 66 67 64 63 63
53 53 53 53 54 54 53 54 58 59 57 58 58 58 58 57 55 49 51 54 52 50 49 55 56 56 56 58 59 61 63 63 62 63 64 65 66 65 65 65 65 64 62
52 52 51 52 52 53 52 52 51 50 47 46 47 53 55 48 43 43 43 42 42 43 52 54 54 55 56 56 56 57 58 59 62 63 63 64 64 64 64 64 64 64 63
52 51 51 51 52 53 52 51 52 53 46 45 45 46 44 45 42 43 42 42 42 45 53 53 53 54 54 55 56 57 57 58 61 63 62 62 63 63 63 64 63 63 63
51 48 51 52 53 53 55 55 52 51 52 53 47 47 42 41 46 45 42 45 53 51 54 53 54 55 55 56 57 57 57 58 59 60 61 61 62 62 62 62 63 62 62
50 50 50 52 52 53 55 57 55 53 52 53 56 51 46 41 41 42 42 55 55 55 55 56 56 56 56 57 58 58 58 58 59 60 61 61 61 61 61 62 62 57 58
52 51 50 50 51 52 53 55 56 57 58 57 57 57 54 52 55 55 55 56 56 56 56 55 55 56 56 56 57 57 57 58 59 60 60 61 61 62 62 62 62 61 61
52 51 50 46 45 48 49 51 56 56 56 56 57 55 48 56 55 56 56 56 56 56 56 56 56 55 56 57 57 57 57 57 57 58 59 61 62 62 62 62 63 62 62
52 51 47 44 43 44 45 47 51 55 56 54 56 54 43 51 55 55 56 56 56 56 57 57 57 56 56 57 57 56 56 56 56 56 57 58 59 61 61 61 61 62 62
51 47 44 44 43 45 45 45 47 51 55 54 55 55 54 53 54 54 55 55 56 56 57 56 57 56 57 57 57 57 55 55 55 57 56 57 57 56 59 60 61 61 61
47 45 44 43 43 43 44 44 44 46 49 54 54 55 55 55 54 54 55 56 56 56 56 57 57 56 56 56 57 56 56 53 53 56 57 56 56 55 55 55 55 58 60
47 46 45 44 44 45 45 45 47 47 49 51 52 53 55 55 55 55 55 56 55 54 54 55 56 56 56 56 56 55 49 35 44 41 56 57 55 55 55 55 54 54 53
46 46 45 46 47 47 46 46 46 47 49 51 53 54 54 55 55 55 55 55 54 53 53 54 54 53 53 54 54 44 37 35 43 35 49 56 54 53 54 53 53 53 52

GFSGL_sfc_dewp_111.txt.gz
Dewpoint
66 66 67 68 69 72 72 73 72 73 73 73 73 72 72 72 73 73 73 73 72 73 72 72 71 73 75 71 69 70 69 70 68 67 68 68 71 70 70 72 73 72 71
68 67 67 67 68 69 72 72 72 72 73 72 72 73 72 72 73 72 71 71 71 71 71 72 71 70 72 73 72 70 69 70 68 66 68 67 69 71 70 70 71 72 72
68 68 68 69 69 68 70 71 71 73 73 72 73 73 73 73 72 72 72 72 72 71 72 71 71 71 71 71 71 70 69 70 69 68 66 67 67 68 69 69 69 69 69
67 67 67 68 68 68 67 67 68 68 69 71 73 73 73 73 73 73 72 72 72 72 72 71 71 71 71 71 71 71 70 69 68 68 67 66 67 68 68 68 68 69 68
66 67 67 67 67 66 66 67 67 67 67 69 69 71 72 72 71 72 72 71 72 71 72 72 71 70 68 69 68 70 70 69 68 68 66 66 66 66 66 67 66 67 68
67 67 66 66 66 65 65 65 66 67 66 68 68 69 69 70 65 64 69 72 72 71 71 71 71 69 68 65 66 66 69 70 68 67 66 66 66 67 67 66 66 66 65
66 66 66 66 66 65 65 65 65 66 67 67 68 68 68 69 63 62 63 71 70 69 70 70 71 69 68 70 65 64 65 65 66 71 69 68 68 69 70 69 67 66 65
64 65 65 66 65 65 65 64 65 65 66 66 66 66 65 66 60 60 62 68 69 68 69 69 69 71 70 70 70 70 69 70 69 67 69 71 71 73 72 71 69 68 68
62 64 65 65 65 65 66 66 66 66 65 65 66 67 66 67 59 57 61 67 67 67 68 68 69 69 64 60 69 69 69 69 63 62 63 62 62 62 65 69 66 65 65
61 62 64 65 65 65 65 66 66 66 67 67 66 67 64 67 59 57 59 67 66 67 67 68 62 65 60 58 67 69 69 67 71 71 70 66 63 66 61 68 68 65 63
60 62 62 64 65 66 67 68 67 67 67 67 67 66 66 66 66 54 55 69 68 66 65 66 67 57 55 53 55 68 68 67 68 71 72 73 68 68 67 67 69 66 63
59 59 59 61 61 62 66 67 67 67 67 67 64 63 62 61 56 55 55 57 60 66 66 66 64 52 51 51 54 55 54 56 66 68 67 68 68 66 65 67 69 69 68
58 59 59 59 59 63 63 63 62 64 63 64 62 63 63 62 59 53 52 53 55 63 63 58 53 51 50 54 52 52 52 63 63 64 65 66 66 65 68 70 69 71 70
57 58 59 59 59 58 57 60 59 57 58 58 59 60 61 59 58 59 59 59 55 58 56 58 56 54 52 55 57 59 62 63 63 64 65 66 68 68 67 68 67 67 66
56 56 56 54 56 56 56 58 59 62 57 57 58 58 57 57 56 50 52 57 56 52 53 57 58 58 58 58 59 59 61 63 64 64 64 65 66 67 67 67 67 66 63
54 53 53 52 52 53 53 56 50 50 47 46 46 53 55 47 44 44 44 44 44 44 55 56 55 56 56 56 56 57 57 59 60 61 63 64 64 65 65 66 66 65 63
54 54 54 53 55 56 57 54 54 53 46 45 45 45 45 48 43 43 42 43 43 46 55 55 55 55 55 55 56 57 57 57 60 60 60 61 61 63 64 64 64 64 64
53 49 53 53 53 54 56 56 54 54 52 53 47 48 42 42 42 42 41 43 53 51 55 54 54 55 55 55 56 57 58 59 60 60 60 60 61 61 62 62 63 63 63
51 50 51 52 51 53 54 54 52 52 51 53 57 51 45 41 42 42 43 56 55 55 54 54 55 55 55 56 56 58 59 58 58 60 60 60 61 61 60 60 61 57 59
53 52 50 48 47 48 48 48 49 52 53 50 50 52 57 53 56 57 58 58 57 55 55 54 55 57 57 57 59 59 59 58 59 58 58 59 60 61 61 61 61 61 61
52 52 49 46 43 43 44 45 46 48 50 49 52 53 47 56 54 55 56 56 55 55 56 56 55 55 56 57 59 58 58 57 58 58 58 58 58 58 60 61 61 61 62
50 51 48 46 44 42 42 42 43 44 47 49 49 51 44 54 54 54 55 56 56 57 56 58 57 56 56 57 57 57 55 55 56 57 58 58 58 58 58 57 58 60 62
49 48 46 46 45 44 43 42 40 42 44 46 47 49 50 53 53 54 54 53 55 56 56 57 57 56 57 57 56 56 55 56 57 57 57 58 57 57 57 57 57 56 57
48 48 47 47 46 44 45 47 47 43 46 47 47 47 49 51 50 51 54 53 55 56 56 56 57 56 57 57 57 57 57 58 57 56 57 57 56 56 56 55 55 54 55
49 49 48 47 47 49 49 48 48 48 46 46 46 47 48 50 51 53 54 55 55 55 55 54 55 56 58 58 57 56 53 38 48 46 53 56 56 56 56 54 54 54 54
49 50 50 50 50 50 50 50 50 49 49 50 50 51 50 50 50 51 53 54 55 53 53 53 54 55 56 56 56 51 42 36 44 36 50 50 55 54 55 56 54 53 52

GFSGL_sfc_dewp_114.txt.gz
Dewpoint
67 67 70 71 71 73 73 73 75 75 74 74 74 73 73 73 74 75 74 73 72 71 72 72 71 73 70 74 76 72 73 73 70 65 64 68 71 71 70 70 70 71 75
68 69 69 68 70 70 74 74 75 75 73 74 75 74 74 73 74 73 72 71 70 70 70 72 71 69 74 75 75 74 74 73 67 68 67 66 70 72 71 72 70 69 72
68 69 69 70 70 70 70 72 73 74 74 74 73 74 73 73 72 74 73 71 70 70 70 71 72 72 72 73 72 73 71 72 70 67 65 65 66 67 69 71 71 71 70
68 68 68 69 70 69 70 70 71 71 72 72 73 73 73 73 74 72 72 72 71 72 71 71 70 71 71 72 72 72 73 69 69 69 65 66 67 69 68 65 67 68 67
67 67 68 68 68 68 68 67 66 67 67 67 68 71 72 72 71 72 72 72 72 71 71 70 70 71 68 69 69 71 73 69 68 67 66 66 66 67 67 65 65 73 69
67 68 68 68 67 67 67 67 67 67 67 68 68 67 68 67 65 65 70 74 73 72 72 71 71 70 69 66 66 66 70 73 70 67 65 65 68 68 68 65 65 65 64
66 67 67 67 67 67 66 67 66 66 67 68 68 68 68 70 63 62 64 72 73 72 72 71 70 68 70 70 66 64 65 64 67 72 69 68 68 69 71 71 70 66 64
65 65 66 67 66 67 67 66 66 67 67 67 67 69 69 69 62 59 61 69 72 72 72 72 71 70 70 70 70 69 70 70 69 68 70 71 72 72 71 70 72 73 69
63 64 65 66 66 66 66 67 68 69 67 66 67 67 68 68 59 58 60 66 68 69 69 69 69 68 64 60 67 67 68 70 65 62 63 62 61 62 66 70 68 70 66
62 64 65 66 66 66 67 67 68 68 68 68 68 67 65 69 59 56 59 66 67 69 70 68 64 66 60 59 66 66 66 68 71 70 70 68 66 68 61 70 69 68 65
63 62 64 65 66 67 67 68 68 69 69 68 65 65 65 61 64 54 54 65 68 68 68 66 67 58 55 54 54 66 65 68 67 67 66 70 69 73 73 70 69 70 69
60 60 61 64 63 65 67 68 68 69 68 66 65 62 62 61 54 52 53 56 61 68 67 69 66 53 52 51 53 57 55 58 65 63 68 65 71 72 72 70 73 73 74
60 61 62 61 62 65 65 64 60 64 65 64 64 64 62 61 60 52 52 54 57 63 63 56 54 51 50 53 51 52 52 61 65 65 65 65 71 70 71 68 69 70 73
59 60 61 60 60 61 60 58 56 55 55 56 57 58 59 59 59 59 58 57 55 58 56 59 58 55 54 58 58 58 61 64 66 65 65 63 65 66 65 67 65 65 68
57 57 56 53 56 57 59 59 58 60 55 55 56 56 56 55 55 50 52 55 55 52 56 58 58 58 57 58 58 59 59 61 62 63 64 64 65 66 65 66 66 66 65
55 53 53 52 52 52 51 57 50 48 47 45 46 51 56 48 46 46 45 45 45 46 54 56 56 56 56 57 56 56 56 57 58 59 59 61 63 64 65 68 67 66 65
56 57 52 51 52 53 54 52 54 52 47 46 46 46 47 48 44 45 44 44 47 47 53 55 56 56 56 56 55 55 55 56 60 57 58 59 60 61 61 63 65 65 64
55 50 53 51 50 50 52 52 50 52 52 53 48 49 44 43 43 43 43 45 54 52 54 53 54 56 56 56 56 55 56 57 58 59 60 59 59 60 61 61 61 63 64
51 49 50 49 48 48 47 47 47 49 48 48 54 50 47 43 42 43 43 55 54 52 51 53 55 57 56 56 56 57 58 57 56 58 58 59 60 62 60 61 60 56 57
52 51 49 47 46 45 45 44 44 46 48 47 47 46 54 53 54 55 57 56 56 55 53 54 55 56 56 56 57 57 56 57 57 56 57 57 58 59 59 59 60 61 61
48 50 50 45 43 43 43 44 44 44 44 45 46 49 48 48 47 47 49 51 52 53 53 54 53 54 56 57 56 56 55 55 54 53 53 54 55 56 57 59 59 59 59
48 48 47 45 46 45 44 44 42 40 42 43 44 45 46 51 46 47 47 49 50 52 53 54 53 53 55 56 56 54 54 53 53 54 54 53 55 55 54 53 54 55 57
47 47 46 46 46 47 46 45 46 46 43 40 41 42 43 45 47 47 47 47 48 50 52 53 54 54 54 56 56 57 54 54 54 55 55 55 54 53 52 52 53 54 55
50 48 47 47 46 46 46 47 47 45 47 46 44 43 44 45 45 46 46 47 49 50 51 51 51 52 55 56 56 57 58 59 58 57 56 56 54 53 53 53 54 54 52
47 48 48 47 47 47 47 47 46 46 46 47 47 47 47 48 47 47 49 50 51 51 52 51 51 51 52 55 56 54 52 41 53 47 55 56 55 55 54 54 54 54 53
46 47 46 45 45 45 45 45 45 45 45 47 47 48 50 49 49 50 51 51 51 52 53 52 52 52 52 51 52 50 44 38 48 37 52 54 54 52 53 54 53 50 50

GFSGL_sfc_dewp_117.txt.gz
Dewpoint
67 68 68 69 72 73 72 73 75 76 75 71 74 73 75 75 75 75 75 74 74 74 73 73 73 75 70 71 69 70 70 73 69 65 66 72 72 71 70 71 73 73 72
66 71 72 71 70 71 74 75 75 75 76 72 72 72 69 73 75 75 73 71 73 73 73 73 73 70 74 75 74 74 71 73 71 69 69 67 71 73 73 73 73 70 71
67 68 71 72 71 72 72 72 74 74 73 74 73 69 72 74 75 74 74 73 73 73 72 72 72 73 74 74 75 74 72 72 71 69 67 66 67 68 72 72 72 72 70
67 69 69 70 71 71 72 71 71 71 70 72 73 72 72 72 74 74 73 74 73 72 73 73 73 73 74 74 74 75 75 71 71 68 66 63 64 69 70 69 70 70 67
68 68 69 70 70 70 70 69 69 69 69 69 69 70 72 72 73 73 73 73 74 73 73 72 72 72 69 72 71 75 75 71 67 67 64 63 64 68 66 66 68 65 72
67 67 68 70 69 69 69 68 68 67 67 67 67 67 67 67 66 65 70 73 73 74 73 73 73 69 69 66 66 67 72 72 71 66 66 65 72 69 67 66 67 67 64
65 66 67 69 68 68 68 67 67 68 67 67 67 67 67 68 63 63 65 69 71 73 74 75 73 68 69 71 66 65 66 65 67 73 71 70 72 72 73 72 72 71 67
64 65 67 66 66 68 68 67 68 68 68 69 67 68 68 67 62 61 62 71 72 73 73 74 73 73 73 71 72 70 70 69 70 70 71 71 73 74 74 73 74 73 71
62 64 65 65 66 66 66 67 69 68 69 69 68 68 68 69 59 58 63 68 68 71 72 72 72 71 63 61 71 70 70 70 67 62 62 62 62 62 67 74 71 71 65
61 62 63 65 66 66 68 68 69 70 69 70 68 67 64 68 59 56 61 65 66 67 70 70 63 66 60 59 69 68 67 67 67 67 67 65 64 67 62 73 70 69 69
63 64 65 66 65 66 68 69 68 69 69 68 67 66 66 63 64 54 55 65 69 70 68 67 66 58 55 55 58 67 65 65 66 68 67 67 69 72 73 71 74 71 71
62 62 63 65 65 67 68 68 69 67 67 66 64 63 62 61 55 53 53 56 63 67 67 68 65 56 53 52 57 57 55 58 64 66 67 67 66 67 70 74 73 73 71
63 62 62 65 64 66 67 68 64 67 68 64 66 67 63 63 61 52 53 56 58 67 66 58 54 51 51 55 52 54 53 63 63 64 63 62 66 67 68 69 70 71 69
61 60 61 60 62 65 63 62 58 57 60 58 61 64 59 62 61 60 58 58 56 59 57 59 58 57 57 60 60 58 61 64 65 65 65 63 67 68 64 64 63 62 65
58 57 56 52 55 57 60 60 57 58 54 58 58 57 56 54 54 49 51 55 55 52 56 58 58 59 60 60 60 62 62 64 64 64 64 65 64 65 65 66 68 66 65
56 51 52 50 50 50 52 57 50 49 47 46 45 51 55 48 46 46 45 46 46 47 55 56 55 56 56 56 57 57 57 58 58 58 59 59 59 59 60 61 65 66 66
57 57 51 49 49 50 51 50 56 54 48 47 46 45 45 48 45 45 45 46 47 48 55 53 54 55 55 55 55 55 55 56 60 57 57 57 57 57 58 59 58 58 60
56 51 51 49 47 47 48 48 47 48 51 55 49 48 43 44 44 44 46 46 54 52 54 53 53 54 55 55 55 55 55 58 57 57 57 57 58 60 58 57 58 58 58
49 46 47 46 46 48 46 46 44 46 46 46 54 51 47 44 45 45 44 56 52 50 50 50 54 54 56 56 55 56 58 56 56 56 59 58 58 57 57 57 57 54 56
52 51 49 46 45 44 43 43 44 45 46 46 46 48 54 53 53 56 57 57 53 51 51 51 52 54 57 57 57 56 59 58 56 55 55 54 54 55 55 55 56 57 57
47 48 51 45 43 44 44 45 43 42 42 43 45 46 45 46 44 45 46 48 49 49 49 50 48 50 58 58 57 56 57 56 54 53 52 53 53 54 55 54 53 52 55
49 50 47 45 45 46 45 46 45 45 44 41 40 43 45 48 46 46 45 46 46 49 49 52 51 50 49 50 53 53 51 51 52 55 54 55 52 52 52 54 53 51 52
47 49 49 46 48 47 44 44 45 45 46 46 45 43 41 44 44 44 46 48 48 48 49 50 50 49 52 52 53 54 51 51 53 54 55 54 54 54 54 54 53 53 53
48 48 48 44 45 44 46 48 44 43 44 44 43 45 47 47 45 46 46 53 54 55 55 54 53 51 54 55 54 55 53 55 55 55 58 58 56 54 55 55 53 55 54
50 50 45 43 43 43 42 42 42 41 41 45 47 48 49 51 51 50 51 52 52 52 53 52 55 56 56 56 55 53 51 41 53 49 55 56 55 56 54 55 54 54 53
45 47 44 42 41 41 40 40 40 40 39 43 44 46 48 49 48 48 50 49 49 49 49 48 49 51 52 53 47 42 41 38 49 42 55 54 53 52 50 53 53 53 52

GFSGL_sfc_dewp_120.txt.gz
Dewpoint
71 71 70 70 72 74 74 74 74 75 74 71 72 73 72 71 72 72 73 73 73 73 73 72 72 73 72 71 72 71 70 71 68 68 70 70 73 72 71 72 73 73 73
68 71 72 73 73 71 72 74 74 74 74 73 72 69 69 67 69 70 71 72 72 72 73 73 71 71 73 72 73 72 71 72 71 69 70 70 71 73 73 73 72 71 72
68 67 71 71 71 71 72 72 74 73 73 72 71 69 68 68 67 66 68 71 72 71 72 73 72 72 71 71 71 70 71 71 71 70 69 72 70 71 72 73 73 73 72
67 68 68 68 70 70 71 72 71 72 73 71 71 70 68 68 67 65 66 68 71 71 72 72 72 72 71 72 72 72 73 72 72 70 70 69 70 71 71 70 71 72 71
67 67 68 69 70 70 70 71 71 71 71 71 72 71 71 68 65 66 67 67 66 71 72 72 72 71 70 71 71 72 73 71 71 70 68 69 67 68 67 68 69 70 71
66 66 67 68 69 69 70 70 70 70 70 70 70 70 70 69 65 64 66 69 67 63 71 72 72 70 69 67 68 69 72 72 71 69 68 67 68 68 69 69 69 68 65
65 65 66 67 68 70 70 69 69 70 71 70 70 70 69 69 65 64 65 67 66 70 72 72 72 70 69 71 66 66 67 66 68 71 69 70 68 70 70 68 68 68 68
62 63 64 64 66 68 68 68 69 69 70 69 70 70 69 69 61 61 64 70 70 71 71 72 72 72 71 70 70 70 70 70 68 68 71 71 70 70 70 68 68 69 71
61 63 63 63 65 64 65 66 67 70 69 69 70 69 69 69 58 58 64 70 70 70 71 72 72 72 66 62 70 69 70 70 66 63 64 64 63 63 64 68 67 67 67
61 62 63 63 63 65 66 67 67 69 68 69 68 69 63 68 56 56 61 67 69 68 71 71 64 67 60 59 69 68 67 67 67 67 69 65 62 64 61 67 68 66 68
61 62 63 64 64 65 65 66 66 66 66 66 66 66 66 61 62 54 55 67 68 69 70 69 67 58 57 57 59 67 65 66 65 66 66 66 67 68 69 67 68 68 66
62 61 62 63 64 64 64 64 64 65 65 65 64 63 63 63 55 55 54 56 62 67 67 69 65 55 54 54 58 57 56 59 64 64 64 65 65 65 67 68 69 69 70
62 63 64 63 63 65 64 65 64 65 64 64 65 65 63 66 63 54 54 57 58 66 66 60 53 51 51 55 53 54 54 63 63 62 63 64 64 65 67 68 68 68 68
61 62 63 63 63 65 62 59 59 58 61 64 65 64 64 62 62 63 62 62 58 60 58 61 60 59 58 60 60 57 63 64 64 64 66 67 68 67 66 67 66 64 64
60 61 61 61 62 63 61 59 59 55 55 58 59 57 58 57 53 48 51 56 56 52 59 61 61 62 61 61 63 64 64 64 63 64 64 64 65 65 66 67 67 66 65
59 58 57 54 55 59 60 60 50 49 46 45 46 54 53 48 46 46 45 45 45 46 59 61 62 62 61 62 60 60 61 61 63 61 61 61 61 61 61 63 64 64 63
60 59 55 52 52 57 56 59 59 54 48 46 44 45 49 48 45 46 46 46 46 49 60 62 61 60 60 61 60 59 58 61 62 61 61 60 60 60 59 60 61 61 60
60 53 53 51 50 50 52 52 52 58 57 56 49 49 44 44 44 44 46 48 58 53 57 59 59 61 60 60 59 59 59 61 61 60 59 57 59 59 59 58 59 59 60
52 50 51 52 51 54 53 50 48 51 53 58 55 50 47 45 46 46 45 56 58 57 57 58 58 61 60 60 61 61 61 60 59 59 60 60 60 59 58 57 57 53 55
57 52 52 52 49 48 47 47 48 54 55 52 53 56 55 52 54 56 56 59 60 57 57 57 58 60 61 61 61 61 60 60 59 59 59 59 58 58 56 56 55 55 57
50 53 53 49 48 49 50 49 50 52 52 51 53 55 48 55 53 53 57 58 57 55 56 55 53 60 61 61 60 60 59 58 59 57 57 58 57 54 57 56 57 55 54
53 54 50 49 48 50 49 49 50 50 50 49 52 53 45 53 52 52 53 52 53 56 57 60 56 55 55 58 59 56 55 55 55 57 56 56 56 56 56 55 55 55 54
51 48 49 51 49 49 49 47 48 48 48 48 49 50 50 52 52 52 52 53 56 55 55 56 56 54 55 57 57 59 54 56 57 58 58 58 59 58 57 56 55 54 55
52 50 46 46 48 45 47 45 45 43 46 50 48 50 50 51 50 51 52 52 53 53 54 53 54 53 55 51 50 51 50 48 51 58 58 58 58 57 58 57 56 55 54
47 47 46 46 43 44 43 42 43 41 41 43 44 46 46 48 50 49 50 51 50 50 50 50 51 53 50 46 45 42 38 35 41 42 54 57 57 57 56 55 54 54 55
42 43 42 42 41 41 40 40 40 41 42 43 44 46 47 46 46 48 50 50 49 48 48 48 48 48 48 44 41 37 35 34 37 35 41 52 57 56 54 53 52 52 54

GFSGL_sfc_dewp_123.txt.gz
Dewpoint
63 65 69 68 69 72 72 72 72 72 72 71 70 71 71 72 72 72 72 72 71 71 72 72 71 71 71 71 70 69 69 68 66 66 67 69 69 70 69 70 71 70 71
63 66 66 66 67 68 70 72 72 72 72 72 71 71 69 68 66 65 64 68 70 70 71 71 71 71 71 71 70 70 68 68 67 66 68 69 69 70 69 70 70 70 70
64 65 66 66 66 66 69 69 70 72 71 72 71 70 68 68 66 66 65 64 65 70 70 71 71 71 70 70 70 69 69 69 70 69 68 69 69 69 69 69 70 70 70
63 62 64 65 65 65 66 68 69 69 68 70 70 70 69 67 65 62 63 64 64 67 71 71 71 71 70 70 70 69 69 69 69 69 68 68 69 69 69 68 68 70 70
62 62 63 64 65 66 67 68 69 69 68 69 70 70 69 65 65 62 62 63 64 65 68 65 66 70 70 69 70 70 70 70 70 69 69 68 68 67 66 67 67 67 68
61 63 64 63 65 65 66 68 68 68 68 68 68 69 67 66 64 64 65 65 65 65 65 65 65 64 67 67 67 68 70 70 69 69 68 67 67 66 67 66 67 65 63
62 61 62 62 62 63 65 66 68 67 67 67 67 68 69 69 63 62 63 66 67 66 64 64 63 66 65 65 68 66 67 67 69 70 68 67 66 66 67 65 65 64 65
59 60 61 62 61 62 63 64 65 65 65 65 66 66 67 69 63 61 62 65 66 64 65 64 64 63 65 67 69 68 68 68 67 69 69 69 68 68 67 67 65 65 67
58 60 61 62 61 62 62 63 64 64 65 65 66 65 65 65 58 60 62 66 66 67 67 69 68 68 66 64 68 67 67 68 66 63 64 64 65 64 67 67 64 63 63
59 60 62 61 62 62 63 62 64 65 65 65 65 65 63 65 57 58 60 66 66 66 66 67 62 66 61 59 67 67 67 67 67 67 67 65 64 65 62 66 66 64 64
60 61 61 62 62 63 61 60 60 63 64 65 64 64 63 62 61 56 55 65 65 65 65 66 65 59 57 57 58 66 65 66 65 65 66 66 66 66 66 64 66 65 64
59 61 61 60 62 64 61 61 62 63 64 63 63 63 63 61 57 56 55 57 61 64 64 66 62 53 52 54 59 55 57 61 65 64 64 64 64 64 66 67 68 67 67
60 60 60 61 61 62 61 60 61 62 63 62 63 62 62 63 61 54 55 56 58 64 63 59 54 51 52 56 54 55 57 62 62 61 61 62 64 64 65 66 66 67 66
58 59 59 60 59 61 60 57 56 57 60 61 62 61 56 54 56 60 63 63 60 60 59 61 59 59 58 60 58 57 62 62 62 62 62 63 64 63 63 63 63 62 61
58 58 56 56 59 57 54 52 55 51 50 55 55 56 54 52 52 47 48 53 56 50 56 60 60 61 61 61 61 61 61 62 62 62 62 61 61 62 62 63 62 62 61
57 55 54 53 51 59 58 55 49 48 46 44 47 51 51 47 45 46 44 44 45 46 56 58 59 60 60 60 60 61 62 62 60 58 57 57 57 57 57 57 60 60 59
58 55 54 51 50 51 53 57 55 54 48 45 44 43 47 47 45 45 45 44 45 49 56 57 57 57 57 56 55 56 58 58 58 57 56 56 56 56 57 57 57 57 58
51 51 49 51 49 48 50 51 57 56 55 53 50 49 44 44 45 44 44 48 55 53 54 56 56 57 56 56 56 56 57 56 55 55 55 56 56 56 57 56 56 56 57
50 49 49 51 51 47 49 48 48 49 53 55 53 50 47 45 47 46 45 53 56 56 53 55 56 56 56 56 56 56 56 57 56 56 55 56 56 55 54 54 54 51 52
56 52 50 50 51 47 47 47 48 47 46 54 55 54 52 50 52 52 53 56 57 58 56 53 57 58 57 57 56 57 56 56 56 56 56 56 56 57 54 53 53 53 53
52 51 53 49 49 49 49 50 50 51 49 48 49 54 51 52 51 53 55 57 57 57 53 50 57 57 57 57 56 56 56 56 56 57 57 56 56 56 55 54 54 56 54
51 51 50 50 49 49 48 48 49 49 50 49 50 49 47 52 52 52 52 54 55 54 55 56 55 55 56 58 58 57 55 54 54 55 56 55 54 54 54 54 53 53 53
51 49 49 49 50 49 47 46 47 47 50 50 50 50 50 51 51 51 51 51 53 54 54 54 55 54 51 52 51 50 49 48 49 53 55 55 55 55 54 54 53 53 52
51 49 48 46 43 42 42 43 43 42 46 47 48 48 50 49 49 50 50 50 50 50 49 52 53 50 47 45 44 43 42 44 44 44 49 54 55 54 55 54 54 54 54
44 44 43 43 40 38 36 38 38 41 40 44 47 48 48 49 49 50 50 50 49 48 48 48 50 47 43 42 42 40 36 34 38 39 44 47 51 54 55 55 54 54 53
36 39 38 36 36 34 35 33 32 34 35 38 38 38 39 39 47 48 49 47 47 47 47 47 46 44 42 40 38 34 33 33 36 34 40 46 48 50 54 55 54 52 52

GFSGL_sfc_dewp_126.txt.gz
Dewpoint
62 63 64 65 65 66 67 70 71 71 71 71 71 70 70 70 71 71 70 70 70 70 71 71 71 71 71 70 71 69 69 68 66 66 66 67 67 69 69 70 71 70 70
62 62 63 64 65 65 64 65 70 71 70 71 70 71 70 69 67 68 69 69 66 67 69 71 71 71 70 71 70 69 68 69 67 66 66 67 68 69 69 68 69 70 69
61 62 62 62 63 64 65 65 68 69 69 70 70 70 67 66 66 64 64 66 66 65 64 66 69 70 70 71 70 70 69 68 68 67 66 67 68 68 68 68 69 69 70
60 61 61 62 63 64 65 66 66 67 67 68 69 69 67 66 66 64 65 64 64 64 64 64 66 69 70 70 70 70 69 68 68 68 67 67 67 68 68 67 67 68 69
60 61 61 62 64 63 63 63 66 67 68 68 68 68 68 66 67 64 63 62 63 61 63 64 65 69 69 69 71 70 69 68 68 68 68 67 67 66 66 67 67 67 68
60 60 61 61 62 62 61 62 64 64 67 68 67 68 68 67 63 64 64 61 62 63 63 64 66 67 67 66 67 67 69 69 68 68 68 67 68 66 66 66 65 64 64
60 60 60 60 61 61 61 61 62 63 67 67 67 67 68 68 62 60 62 63 62 63 64 65 65 66 64 65 65 65 66 66 67 70 68 68 68 67 66 64 65 64 64
59 58 60 60 60 60 61 62 61 63 64 65 66 65 67 68 62 60 61 64 64 64 65 65 65 64 64 64 64 65 67 68 68 69 70 69 69 68 68 66 66 65 65
58 59 60 60 60 61 59 62 61 63 62 63 64 64 64 65 60 60 61 65 65 65 65 65 64 63 61 60 64 65 66 68 65 63 64 64 63 62 66 67 65 64 63
55 59 60 61 61 61 61 60 60 61 63 64 64 64 62 64 56 55 60 65 65 65 65 66 63 64 60 59 65 66 66 67 68 67 65 63 64 64 62 68 66 64 63
57 59 60 61 61 61 61 61 62 64 63 63 63 63 62 62 60 55 55 65 65 65 66 66 66 57 55 54 56 67 67 67 65 67 66 66 66 66 65 66 66 66 63
57 59 60 61 61 62 60 61 62 62 63 63 63 62 62 61 57 57 55 56 59 63 63 65 60 53 52 54 58 54 56 62 65 64 64 64 64 65 66 66 66 66 66
57 57 57 59 60 61 60 60 61 61 61 61 61 60 60 62 61 55 54 55 57 62 63 60 53 50 51 54 53 54 58 64 64 63 62 62 62 64 65 65 66 66 66
57 58 58 57 59 58 56 55 54 57 59 60 58 56 54 52 56 60 62 62 59 61 61 60 58 58 56 57 58 59 62 63 63 62 62 62 63 63 63 64 63 62 62
57 58 56 56 58 55 53 52 53 51 49 55 54 53 50 50 50 46 48 55 57 55 60 61 61 62 61 61 61 61 62 62 62 61 61 61 60 61 60 60 61 60 60
55 55 53 50 49 58 57 56 50 48 46 44 45 50 50 46 44 43 43 42 43 47 56 58 59 60 60 60 60 61 61 60 58 57 56 57 57 56 56 56 58 58 57
55 52 48 49 48 49 55 55 54 54 47 44 43 42 42 43 42 43 42 43 44 48 54 57 58 58 59 56 57 58 57 57 57 56 55 56 55 55 56 56 55 56 55
51 49 47 49 49 47 48 54 55 55 53 52 47 46 45 45 45 44 43 49 54 53 55 56 55 55 55 55 55 57 56 55 54 54 55 55 55 55 55 55 55 54 55
53 52 47 49 49 47 46 46 47 46 54 54 52 49 47 44 43 43 45 53 55 56 54 55 56 55 55 55 55 56 56 56 56 55 55 55 55 55 53 53 53 51 52
54 54 51 50 50 48 48 47 48 48 47 54 53 53 52 52 53 54 54 54 54 56 56 52 55 55 56 56 55 55 55 55 55 55 55 55 56 56 55 54 53 52 52
50 51 52 49 49 49 49 48 49 50 50 49 50 51 47 52 52 52 52 53 53 54 55 54 56 56 57 56 55 55 55 55 55 55 55 55 56 55 56 54 53 54 53
50 48 48 48 47 47 45 45 49 50 51 50 51 49 46 50 50 49 50 50 50 52 55 55 53 52 52 51 52 51 50 49 50 51 53 54 54 53 54 54 53 52 52
51 47 43 42 40 42 41 44 46 49 49 49 50 49 49 49 49 49 49 49 49 49 52 53 51 48 46 46 46 46 45 45 46 46 48 51 53 55 54 53 53 53 52
46 43 39 36 35 35 35 37 38 40 46 47 48 49 49 49 49 49 49 48 48 48 48 50 48 45 44 43 42 42 42 44 45 45 46 47 49 51 53 53 54 54 53
37 37 37 35 33 33 32 33 34 35 37 35 34 38 41 49 48 48 47 47 46 44 45 47 46 43 42 41 40 40 36 33 38 37 44 47 48 48 49 50 52 54 54
33 33 33 33 33 32 33 34 34 35 35 36 35 35 35 36 41 46 47 46 44 44 44 44 46 42 41 40 39 35 31 30 34 32 41 44 43 44 43 43 44 47 50